[[{"header":{"parameterUnit":"m.s-1","parameterCategory":1,"la1":30.6,"la2":28.766,"lo1":-90.7593,"lo2":-88.6598,"dx":0.0162,"dy":0.0183,"nx":116,"ny":114,"refTime":"2022-11-17T18:00:00:Z","depth":0,"parameterNumber":2,"parameterNumberName":"U-component_of_WINDS"},"data":[0.0,0.0,0.0,0.0,0.0,0.0,0.0,0.0,0.0,0.0,0.0,0.0,0.0,0.0,0.0,0.0,0.0,0.0,0.0,0.0,0.0,0.0,0.0,0.0,0.0,0.0,0.0,0.0,0.0,0.0,0.0,0.0,0.0,0.0,0.0,0.0,0.0,0.0,0.0,0.0,0.0,0.0,0.0,0.0,0.0,0.0,0.0,0.0,0.0,0.0,0.0,0.0,0.0,0.0,0.0,0.0,0.0,0.0,0.0,0.0,0.0,0.0,0.0,0.0,0.0,0.0,0.0,0.0,0.0,0.0,0.0,0.0,0.0,0.0,0.0,0.0,0.0,0.0,0.0,0.0,0.0,0.0,0.0,0.0,0.0,0.0,0.0,0.0,0.0,0.0,0.0,0.0,0.0,0.0,0.0,0.0,0.0,0.0,0.0,0.0,0.0,0.0,0.0,0.0,0.0,0.0,0.0,0.0,0.0,0.0,0.0,0.0,0.0,0.0,0.0,0.0,0.0,0.0,0.0,0.0,0.0,0.0,0.0,0.0,0.0,0.0,0.0,0.0,0.0,0.0,0.0,0.0,0.0,0.0,0.0,0.0,0.0,0.0,0.0,0.0,0.0,0.0,0.0,0.0,0.0,0.0,0.0,0.0,0.0,0.0,0.0,0.0,0.0,0.0,0.0,0.0,0.0,0.0,0.0,0.0,0.0,0.0,0.0,0.0,0.0,0.0,0.0,0.0,0.0,0.0,0.0,0.0,0.0,0.0,0.0,0.0,0.0,0.0,0.0,0.0,0.0,0.0,0.0,0.0,0.0,0.0,0.0,0.0,0.0,0.0,0.0,0.0,0.0,0.0,0.0,0.0,0.0,0.0,0.0,0.0,0.0,0.0,0.0,0.0,0.0,0.0,0.0,0.0,0.0,0.0,0.0,0.0,0.0,0.0,0.0,0.0,0.0,0.0,0.0,0.0,0.0,0.0,0.0,0.0,0.0,0.0,0.0,0.0,0.0,0.0,0.0,0.0,0.0,0.0,0.0,0.0,0.0,0.0,0.0,0.0,0.0,0.0,0.0,0.0,0.0,0.0,0.0,0.0,0.0,0.0,0.0,0.0,0.0,0.0,0.0,0.0,0.0,0.0,0.0,0.0,0.0,0.0,0.0,0.0,0.0,0.0,0.0,0.0,0.0,0.0,0.0,0.0,0.0,0.0,0.0,0.0,0.0,0.0,0.0,0.0,0.0,0.0,0.0,0.0,0.0,0.0,0.0,0.0,0.0,0.0,0.0,0.0,0.0,0.0,0.0,0.0,0.0,0.0,0.0,0.0,0.0,0.0,0.0,0.0,0.0,0.0,0.0,0.0,0.0,0.0,0.0,0.0,0.0,0.0,0.0,0.0,0.0,0.0,0.0,0.0,0.0,0.0,0.0,0.0,0.0,0.0,0.0,0.0,0.0,0.0,0.0,0.0,0.0,0.0,0.0,0.0,0.0,0.0,0.0,0.0,0.0,0.0,0.0,0.0,0.0,0.0,0.0,0.0,0.0,0.0,0.0,0.0,0.0,0.0,0.0,0.0,0.0,0.0,0.0,0.0,0.0,0.0,0.0,0.0,0.0,0.0,0.0,0.0,0.0,0.0,0.0,0.0,0.0,0.0,0.0,0.0,0.0,0.0,0.0,0.0,0.0,0.0,0.0,0.0,0.0,0.0,0.0,0.0,0.0,0.0,0.0,0.0,0.0,0.0,0.0,0.0,0.0,0.0,0.0,0.0,0.0,0.0,0.0,0.0,0.0,0.0,0.0,0.0,0.0,0.0,0.0,0.0,0.0,0.0,0.0,0.0,0.0,0.0,0.0,0.0,0.0,0.0,0.0,0.0,0.0,0.0,0.0,0.0,0.0,0.0,0.0,0.0,0.0,0.0,0.0,0.0,0.0,0.0,0.0,0.0,0.0,0.0,0.0,0.0,0.0,0.0,0.0,0.0,0.0,0.0,0.0,0.0,0.0,0.0,0.0,0.0,0.0,0.0,0.0,0.0,0.0,0.0,0.0,0.0,0.0,0.0,0.0,0.0,0.0,0.0,0.0,0.0,0.0,0.0,0.0,0.0,0.0,0.0,0.0,0.0,0.0,0.0,0.0,0.0,0.0,0.0,0.0,0.0,0.0,0.0,0.0,0.0,0.0,0.0,0.0,0.0,0.0,0.0,0.0,0.0,0.0,0.0,0.0,0.0,0.0,0.0,0.0,0.0,0.0,0.0,0.0,0.0,0.0,0.0,0.0,0.0,0.0,0.0,0.0,0.0,0.0,0.0,0.0,0.0,0.0,0.0,0.0,0.0,0.0,0.0,0.0,0.0,0.0,0.0,0.0,0.0,0.0,0.0,0.0,0.0,0.0,0.0,0.0,0.0,0.0,0.0,0.0,0.0,0.0,0.0,0.0,0.0,0.0,0.0,0.0,0.0,0.0,0.0,0.0,0.0,0.0,0.0,0.0,0.0,0.0,0.0,0.0,0.0,0.0,0.0,0.0,0.0,0.0,0.0,0.0,0.0,0.0,0.0,0.0,0.0,0.0,0.0,0.0,0.0,0.0,0.0,0.0,0.0,0.0,0.0,0.0,0.0,0.0,0.0,0.0,0.0,0.0,0.0,0.0,0.0,0.0,0.0,0.0,0.0,0.0,0.0,0.0,0.0,0.0,0.0,0.0,0.0,0.0,0.0,0.0,0.0,0.0,0.0,0.0,0.0,0.0,0.0,0.0,0.0,0.0,0.0,0.0,0.0,0.0,0.0,0.0,0.0,0.0,0.0,0.0,0.0,0.0,0.0,0.0,0.0,0.0,0.0,0.0,0.0,0.0,0.0,0.0,0.0,0.0,0.0,0.0,0.0,0.0,0.0,0.0,0.0,0.0,0.0,0.0,0.0,0.0,0.0,0.0,0.0,0.0,0.0,0.0,0.0,0.0,0.0,0.0,0.0,0.0,0.0,0.0,0.0,0.0,0.0,0.0,0.0,0.0,0.0,0.0,0.0,0.0,0.0,0.0,0.0,0.0,0.0,0.0,0.0,0.0,0.0,0.0,0.0,0.0,0.0,0.0,0.0,0.0,0.0,0.0,0.0,0.0,0.0,0.0,0.0,0.0,0.0,0.0,0.0,0.0,0.0,0.0,0.0,0.0,0.0,0.0,0.0,0.0,0.0,0.0,0.0,0.0,0.0,0.0,0.0,0.0,0.0,0.0,0.0,0.0,0.0,0.0,0.0,0.0,0.0,0.0,0.0,0.0,0.0,0.0,0.0,0.0,0.0,0.0,0.0,0.0,0.0,0.0,0.0,0.0,0.0,0.0,0.0,0.0,0.0,0.0,0.0,0.0,0.0,0.0,0.0,0.0,0.0,0.0,0.0,0.0,0.0,0.0,0.0,0.0,0.0,0.0,0.0,0.0,0.0,0.0,0.0,0.0,0.0,0.0,0.0,0.0,0.0,0.0,0.0,0.0,0.0,0.0,0.0,0.0,0.0,0.0,0.0,0.0,0.0,0.0,0.0,0.0,0.0,0.0,0.0,0.0,0.0,0.0,0.0,0.0,0.0,0.0,0.0,0.0,0.0,0.0,0.0,0.0,0.0,0.0,0.0,0.0,0.0,0.0,0.0,0.0,0.0,0.0,0.0,0.0,0.0,0.0,0.0,0.0,0.0,0.0,0.0,0.0,0.0,0.0,0.0,0.0,0.0,0.0,0.0,0.0,0.0,0.0,0.0,0.0,0.0,0.0,0.0,0.0,0.0,0.0,0.0,0.0,0.0,0.0,0.0,0.0,0.0,0.0,0.0,0.0,0.0,0.0,0.0,0.0,0.0,0.0,0.0,0.0,0.0,0.0,0.0,0.0,0.0,0.0,0.0,0.0,0.0,0.0,0.0,0.0,0.0,0.0,0.0,0.0,0.0,0.0,0.0,0.0,0.0,0.0,0.0,0.0,0.0,0.0,0.0,0.0,0.0,0.0,0.0,0.0,0.0,0.0,0.0,0.0,0.0,0.0,0.0,0.0,0.0,0.0,0.0,0.0,0.0,0.0,0.0,0.0,0.0,0.0,0.0,0.0,0.0,0.0,0.0,0.0,0.0,0.0,0.0,0.0,0.0,0.0,0.0,0.0,0.0,0.0,0.0,0.0,0.0,0.0,0.0,0.0,0.0,0.0,0.0,0.0,0.0,0.0,0.0,0.0,0.0,0.0,0.0,0.0,0.0,0.0,0.0,0.0,0.0,0.0,0.0,0.0,0.0,0.0,0.0,0.0,0.0,0.0,0.0,0.0,0.0,0.0,0.0,0.0,0.0,0.0,0.0,0.0,0.0,0.0,0.0,0.0,0.0,0.0,0.0,0.0,0.0,0.0,0.0,0.0,0.0,0.0,0.0,0.0,0.0,0.0,0.0,0.0,0.0,0.0,0.0,0.0,0.0,0.0,0.0,0.0,0.0,0.0,0.0,0.0,0.0,0.0,0.0,0.0,0.0,0.0,0.0,0.0,0.0,0.0,0.0,0.0,0.0,0.0,0.0,0.0,0.0,0.0,0.0,0.0,0.0,0.0,0.0,0.0,0.0,0.0,0.0,0.0,0.0,0.0,0.0,0.0,0.0,0.0,0.0,0.0,0.0,0.0,0.0,0.0,0.0,0.0,0.0,0.0,0.0,0.0,0.0,0.0,0.0,0.0,0.0,0.0,0.0,0.0,0.0,0.0,0.0,0.0,0.0,0.0,0.0,0.0,0.0,0.0,0.0,0.0,0.0,0.0,0.0,0.0,0.0,0.0,0.0,0.0,0.0,0.0,0.0,0.0,0.0,0.0,0.0,0.0,0.0,0.0,0.0,0.0,0.0,0.0,0.0,0.0,0.0,0.0,0.0,0.0,0.0,0.0,0.0,0.0,0.0,0.0,0.0,0.0,0.0,0.0,0.0,0.0,0.0,0.0,0.0,0.0,0.0,0.0,0.0,0.0,0.0,0.0,0.0,0.0,0.0,0.0,0.0,0.0,0.0,0.0,0.0,0.0,0.0,0.0,0.0,0.0,0.0,0.0,0.0,0.0,0.0,0.0,0.0,0.0,0.0,0.0,0.0,0.0,0.0,0.0,0.0,0.0,0.0,0.0,0.0,0.0,0.0,0.0,0.0,0.0,0.0,0.0,0.0,0.0,0.0,0.0,0.0,0.0,0.0,0.0,0.0,0.0,0.0,0.0,0.0,0.0,0.0,0.0,0.0,0.0,0.0,0.0,0.0,0.0,0.0,0.0,0.0,0.0,0.0,0.0,0.0,0.0,0.0,0.0,0.0,0.0,0.0,0.0,0.0,0.0,0.0,0.0,0.0,0.0,0.0,0.0,0.0,0.0,0.0,0.0,0.0,0.0,0.0,0.0,0.0,0.0,0.0,0.0,0.0,0.0,0.0,0.0,0.0,0.0,0.0,0.0,0.0,0.0,0.0,0.0,0.0,0.0,0.0,0.0,0.0,0.0,0.0,0.0,0.0,0.0,0.0,0.0,0.0,0.0,0.0,0.0,0.0,0.0,0.0,0.0,0.0,0.0,0.0,0.0,0.0,0.0,0.0,0.0,0.0,0.0,0.0,0.0,0.0,0.0,0.0,0.0,0.0,0.0,0.0,0.0,0.0,0.0,0.0,0.0,0.0,0.0,0.0,0.0,0.0,0.0,0.0,0.0,0.0,0.0,0.0,0.0,0.0,0.0,0.0,0.0,0.0,0.0,0.0,0.0,0.0,0.0,0.0,0.0,0.0,0.0,0.0,0.0,0.0,0.0,0.0,0.0,0.0,0.0,0.0,0.0,0.0,0.0,0.0,0.0,0.0,0.0,0.0,0.0,0.0,0.0,0.0,0.0,0.0,0.0,0.0,0.0,0.0,0.0,0.0,0.0,0.0,0.0,0.0,0.0,0.0,0.0,0.0,0.0,0.0,0.0,0.0,0.0,0.0,0.0,0.0,0.0,0.0,0.0,0.0,0.0,0.0,0.0,0.0,0.0,0.0,0.0,0.0,0.0,0.0,0.0,0.0,0.0,0.0,0.0,0.0,0.0,0.0,0.0,0.0,0.0,0.0,0.0,0.0,3.8931,0.0,0.0,0.0,0.0,0.0,0.0,0.0,0.0,0.0,0.0,0.0,0.0,0.0,0.0,0.0,0.0,0.0,0.0,0.0,0.0,0.0,0.0,0.0,0.0,1.7652,1.8154,1.8092,1.8393,0.0,0.0,0.0,0.0,0.0,0.0,0.0,1.8542,1.9873,2.0713,2.0964,2.2663,2.4472,2.6322,2.4867,2.3461,2.2157,0.0,0.0,0.0,0.0,0.0,0.0,0.0,0.0,0.0,0.0,0.0,0.0,0.0,0.0,0.0,0.0,0.0,0.0,0.0,0.0,0.0,0.0,0.0,0.0,0.0,0.0,0.0,0.0,0.0,0.0,0.0,0.0,0.0,0.0,0.0,0.0,0.0,0.0,0.0,0.0,0.0,0.0,0.0,0.0,0.0,0.0,0.0,0.0,0.0,0.0,0.0,0.0,0.0,0.0,0.0,0.0,0.0,0.0,0.0,0.0,0.0,0.0,0.0,0.0,0.0,0.0,0.0,0.0,0.0,0.0,0.0,4.0397,0.0,0.0,0.0,0.0,0.0,0.0,0.0,0.0,0.0,0.0,0.0,0.0,0.0,0.0,0.0,0.0,0.0,0.0,0.0,0.0,0.0,1.8129,1.8907,1.9334,1.9723,2.0062,1.9773,1.976,2.0213,2.0062,0.0,0.0,0.0,0.0,2.0375,2.2006,2.3185,2.3822,2.6306,2.809,2.9189,3.0005,2.88,2.5895,2.465,0.0,0.0,0.0,0.0,0.0,0.0,0.0,0.0,0.0,0.0,0.0,0.0,0.0,0.0,0.0,0.0,0.0,0.0,0.0,0.0,0.0,0.0,0.0,0.0,0.0,0.0,0.0,0.0,0.0,0.0,0.0,0.0,0.0,0.0,0.0,0.0,0.0,0.0,0.0,0.0,0.0,0.0,0.0,0.0,0.0,0.0,0.0,0.0,0.0,0.0,0.0,0.0,0.0,0.0,0.0,0.0,0.0,0.0,0.0,0.0,0.0,0.0,0.0,4.3207,4.4156,4.4824,4.4705,4.6207,4.866,4.5408,4.3862,4.3534,4.2237,0.0,0.0,0.0,0.0,0.0,0.0,0.0,0.0,0.0,0.0,0.0,0.0,0.0,0.0,0.0,0.0,0.0,0.0,0.0,1.9346,1.9033,2.0713,2.1719,2.1306,2.1644,2.1906,2.1956,2.1105,0.0,0.0,0.0,2.2182,2.2644,2.4315,2.5686,2.6758,2.9905,3.1085,3.0412,3.1959,3.1909,3.0457,2.8856,2.8028,2.7702,0.0,0.0,0.0,0.0,0.0,0.0,0.0,0.0,0.0,0.0,0.0,0.0,0.0,0.0,0.0,0.0,0.0,0.0,0.0,0.0,0.0,0.0,0.0,0.0,0.0,0.0,0.0,0.0,0.0,0.0,0.0,0.0,0.0,0.0,0.0,0.0,0.0,0.0,0.0,0.0,0.0,3.2226,3.2896,0.0,0.0,0.0,0.0,0.0,0.0,0.0,0.0,0.0,0.0,0.0,0.0,0.0,4.1677,4.1574,4.2998,4.398,4.4535,4.5296,4.5947,4.6489,4.6476,4.6714,4.7101,4.6575,0.0,4.4841,4.3513,0.0,0.0,0.0,0.0,0.0,0.0,0.0,0.0,0.0,0.0,0.0,0.0,0.0,0.0,0.0,0.0,0.0,0.0,0.0,0.0,0.0,2.3211,2.433,2.4723,2.4958,2.4983,2.4673,2.4497,0.0,0.0,2.4522,2.5084,2.5008,2.6942,2.88,3.0552,3.2616,3.3524,3.3376,3.4751,3.4974,3.417,3.3442,3.1386,2.8405,2.7727,0.0,0.0,0.0,0.0,0.0,0.0,0.0,0.0,0.0,0.0,0.0,0.0,0.0,0.0,0.0,0.0,0.0,0.0,0.0,0.0,0.0,0.0,0.0,0.0,0.0,0.0,0.0,0.0,0.0,0.0,0.0,0.0,0.0,0.0,0.0,0.0,0.0,0.0,0.0,3.1363,3.2241,3.4263,3.4392,3.4346,0.0,0.0,0.0,0.0,0.0,0.0,0.0,0.0,0.0,4.1445,4.227,4.2824,4.3101,4.3075,4.3337,4.3885,4.386,4.4388,4.531,4.4863,4.5502,4.6863,4.5342,4.5023,4.5561,4.5001,4.4764,4.4741,0.0,0.0,0.0,0.0,4.5529,4.5675,0.0,0.0,0.0,0.0,0.0,0.0,0.0,0.0,0.0,0.0,0.0,0.0,2.4114,2.5435,2.6515,2.7236,2.7437,2.7462,2.7354,2.7562,2.7394,2.6691,2.762,2.7964,2.758,2.9723,3.1788,3.3696,3.4801,3.5531,3.5958,3.6935,3.721,3.6808,3.6808,3.4248,2.9986,2.9986,2.9202,2.7914,0.0,0.0,0.0,0.0,0.0,0.0,0.0,0.0,0.0,0.0,0.0,0.0,0.0,0.0,0.0,0.0,0.0,0.0,0.0,0.0,0.0,0.0,0.0,0.0,0.0,0.0,0.0,0.0,0.0,0.0,0.0,0.0,0.0,0.0,0.0,0.0,0.0,3.2914,3.3579,3.5871,3.6404,3.6452,0.0,0.0,0.0,0.0,0.0,0.0,4.2081,4.1419,4.1722,4.3228,4.341,4.3724,4.4217,4.3291,4.324,4.4041,4.3366,4.3698,4.4922,4.4173,4.4976,4.6786,4.4724,4.4667,4.5969,4.5582,4.5651,4.5909,4.572,4.5789,4.6084,4.7253,4.7709,4.7822,0.0,0.0,0.0,0.0,0.0,0.0,0.0,0.0,0.0,0.0,0.0,2.4691,2.4766,2.6673,2.7795,2.7336,2.777,2.8524,2.9553,2.9107,2.9057,2.9572,3.0131,3.0412,3.0387,3.2566,3.4248,3.5382,3.6533,3.711,3.7135,3.7688,3.7939,3.7914,3.7914,3.6886,3.5031,3.352,3.2491,3.1717,2.9634,0.0,0.0,0.0,0.0,0.0,0.0,0.0,0.0,0.0,0.0,0.0,0.0,0.0,0.0,0.0,0.0,0.0,0.0,0.0,0.0,0.0,0.0,0.0,0.0,0.0,0.0,0.0,0.0,0.0,0.0,0.0,0.0,0.0,0.0,0.0,0.0,0.0,0.0,3.8718,3.9171,0.0,0.0,0.0,0.0,4.1056,4.02,4.0378,4.2099,4.2145,4.2647,4.3724,4.4253,4.4827,4.5397,4.4794,4.5292,4.6873,4.5824,4.5904,4.6944,4.6381,4.6185,4.6334,4.6185,4.618,4.6169,4.4565,4.4622,4.5652,4.5017,4.5207,4.5886,4.659,4.6861,4.7052,0.0,0.0,0.0,1.6185,1.6988,1.7841,1.8594,2.025,2.1493,2.1744,2.4196,2.5879,2.5879,2.8473,3.0432,3.0979,3.2144,3.2746,3.2466,3.2896,3.2946,3.2466,3.2946,3.3596,3.4321,3.51,3.6031,3.7112,3.7889,3.8291,3.8316,3.9195,3.9421,3.912,3.9471,3.8894,3.7588,3.5929,3.4698,3.3699,3.257,3.1035,0.0,0.0,0.0,0.0,0.0,0.0,0.0,0.0,0.0,0.0,0.0,0.0,0.0,0.0,0.0,0.0,0.0,0.0,0.0,0.0,0.0,0.0,0.0,0.0,0.0,0.0,0.0,0.0,0.0,0.0,0.0,0.0,0.0,0.0,0.0,0.0,0.0,3.9371,4.0199,0.0,4.1277,4.163,4.1982,4.2359,4.2685,4.3288,4.4271,4.4321,4.4819,4.5869,4.612,4.6471,4.7029,4.6828,4.6998,4.7631,4.723,4.7255,4.7631,4.7431,4.733,4.733,4.733,4.733,4.728,4.6677,4.6323,4.605,4.5817,4.6078,4.6806,4.8417,4.8975,4.9057,0.0,0.0,0.0,1.65,1.7578,1.8644,1.9196,2.1153,2.2723,2.3115,2.5577,2.7512,2.8108,3.0602,3.2562,3.3316,3.4876,3.5406,3.4502,3.5456,3.568,3.4776,3.5429,3.6358,3.7487,3.7688,3.8316,3.9421,3.9823,4.01,4.0301,4.1003,4.1053,4.0577,4.0902,4.0551,3.9622,3.8341,3.691,3.5479,3.4728,3.3348,3.1587,0.0,0.0,0.0,0.0,0.0,0.0,0.0,0.0,0.0,0.0,0.0,0.0,0.0,0.0,0.0,0.0,0.0,0.0,0.0,0.0,0.0,0.0,0.0,0.0,0.0,0.0,0.0,0.0,0.0,0.0,0.0,0.0,0.0,0.0,3.8417,3.9772,3.9948,4.1103,4.1854,4.1854,4.2886,4.3614,4.3843,4.4844,4.5799,4.6552,4.6602,4.7029,4.7933,4.7927,4.8178,4.8761,4.856,4.8661,4.9038,4.8661,4.8586,4.8736,4.856,4.8485,4.8485,4.8485,4.8485,4.8485,4.8485,4.8159,4.7657,4.728,4.7481,4.8133,4.9466,4.9996,4.9996,0.0,0.0,1.65,1.6525,1.7904,1.9221,1.9761,2.1716,2.3963,2.6172,2.7921,2.9559,3.121,3.2918,3.3947,3.3972,3.5502,3.623,3.5608,3.6659,3.7085,3.6556,3.7538,3.8617,3.9722,4.03,4.1103,4.2238,4.2263,4.2537,4.3065,4.309,4.2838,4.2338,4.2313,4.1932,4.1326,4.0775,3.9295,3.721,3.6083,3.4979,3.3796,0.0,0.0,0.0,0.0,0.0,0.0,0.0,0.0,0.0,0.0,0.0,0.0,0.0,0.0,0.0,0.0,0.0,0.0,0.0,0.0,0.0,0.0,0.0,0.0,0.0,0.0,0.0,0.0,0.0,0.0,0.0,0.0,0.0,3.9145,4.0375,4.1177,4.0675,4.2057,4.3065,4.3115,4.4066,4.4945,4.5522,4.6577,4.7626,4.8793,4.8843,4.912,4.964,4.9665,4.9941,5.0436,4.9967,5.0268,5.1348,5.0268,5.0017,5.0486,4.9992,4.9741,4.9741,4.9741,4.9741,4.9715,4.9715,5.0042,5.0393,4.9264,4.9195,4.964,4.9665,4.969,4.969,1.65,1.65,1.6636,1.7085,1.8505,1.9786,2.0351,2.2673,2.4691,2.5728,2.7996,3.003,3.126,3.3574,3.523,3.5678,3.7235,3.7964,3.7338,3.8718,3.9546,3.9371,4.0023,4.0549,4.0851,4.143,4.2085,4.2788,4.3564,4.4016,4.4192,4.502,4.5321,4.5121,4.4317,4.3639,4.3062,4.2135,4.0877,3.9546,3.8843,3.7412,3.5653,0.0,0.0,0.0,0.0,0.0,0.0,0.0,0.0,0.0,0.0,0.0,0.0,0.0,0.0,0.0,0.0,0.0,0.0,0.0,0.0,0.0,0.0,0.0,0.0,0.0,0.0,0.0,0.0,0.0,0.0,0.0,4.1128,4.2085,4.1381,4.2009,4.276,4.3385,4.389,4.4493,4.5321,4.5995,4.6622,4.7205,4.7908,4.8812,4.9916,4.9967,5.0218,5.0795,5.1197,5.1473,5.1649,5.2251,5.2729,5.303,5.319,5.3316,5.3466,5.329,5.324,5.324,5.324,5.2989,5.2578,5.2578,5.2653,5.2603,5.0695,5.0318,5.087,5.1272,5.1674,5.1967,1.65,1.65,1.6762,1.7588,1.8882,2.0087,2.0918,2.2975,2.4992,2.6465,2.8473,3.0658,3.2871,3.4776,3.6207,3.7009,3.7964,3.8492,3.8366,3.9496,4.0375,4.0826,4.1379,4.1554,4.1258,4.2238,4.255,4.2162,4.3159,4.4085,4.4859,4.5527,4.573,4.5484,4.562,4.4783,4.3345,4.3505,4.2788,4.153,4.1204,3.9622,3.7411,3.716,3.6205,3.4798,3.3671,3.3345,3.3366,3.2767,0.0,0.0,0.0,0.0,0.0,0.0,0.0,0.0,0.0,0.0,0.0,0.0,0.0,0.0,0.0,0.0,0.0,0.0,0.0,0.0,0.0,0.0,0.0,0.0,4.3438,4.4342,4.4242,4.4116,4.4166,4.4539,4.5016,4.5497,4.5924,4.7079,4.7933,4.8234,4.927,5.0318,5.1389,5.144,5.1825,5.2662,5.2955,5.313,5.313,5.3758,5.4059,5.4059,5.4446,5.4597,5.4622,5.4848,5.4949,5.4949,5.5164,5.5064,5.4762,5.4762,5.4762,0.0,0.0,0.0,0.0,0.0,5.3331,5.3607,1.65,1.655,1.6937,1.8016,1.9133,2.0263,2.1331,2.2975,2.5059,2.7745,2.9202,3.1361,3.5006,3.6107,3.6959,3.7914,3.8115,3.8392,3.8891,3.9519,4.0217,4.0988,4.1825,4.1919,4.1246,4.286,4.2915,4.13,4.2446,4.3715,4.5116,4.5367,4.5204,4.484,4.6451,4.5718,4.3398,4.4868,4.4647,4.3291,4.3215,4.1532,3.9019,3.8492,3.7613,3.6557,3.5604,3.4926,3.4399,3.3994,0.0,0.0,0.0,0.0,0.0,0.0,0.0,0.0,0.0,0.0,0.0,0.0,0.0,0.0,0.0,0.0,0.0,0.0,0.0,0.0,0.0,0.0,0.0,0.0,4.5643,4.6597,4.7199,4.6476,4.5673,4.5146,4.5924,4.6351,4.5999,4.7813,4.9044,4.917,5.0677,5.2,5.302,5.3071,0.0,0.0,0.0,5.4798,5.4798,5.4924,5.4974,5.4974,5.4974,5.4974,5.4999,5.544,5.5666,5.5691,5.6194,5.6394,5.6394,5.6394,5.6394,5.6244,5.4612,5.4336,5.4873,5.4873,5.4924,5.4974,1.65,1.6887,1.7437,1.8078,1.9497,2.0742,2.1407,2.3301,2.5469,2.7795,2.9854,3.2064,3.4577,3.6558,3.7764,3.799,3.8843,3.9228,3.8908,4.0207,4.0508,3.9416,4.1417,4.2254,4.155,4.3726,4.4333,4.3171,4.5435,4.5905,4.4752,4.6313,4.6997,4.6922,4.7488,4.7445,4.6811,4.5905,4.5296,4.497,4.4493,4.2632,4.0199,4.0048,3.9346,3.8441,3.8642,3.8391,3.7989,3.8316,3.7889,3.7111,3.6582,3.578,0.0,0.0,0.0,0.0,0.0,0.0,0.0,0.0,0.0,0.0,0.0,0.0,0.0,0.0,0.0,0.0,0.0,0.0,0.0,4.5196,4.625,4.7299,4.8309,4.8291,4.814,4.8014,4.7757,4.7908,4.8711,4.959,5.0469,5.1398,5.2553,5.3532,5.4245,5.427,5.4371,5.4597,5.544,5.5892,5.5892,5.6796,5.7248,5.7248,0.0,0.0,5.7248,5.7374,5.7424,5.7424,5.7524,5.7575,5.7575,5.7575,5.7575,5.7449,5.6219,5.6068,5.6533,5.6533,5.6846,5.7248,1.6948,1.7186,1.7738,1.8807,1.9924,2.0968,2.1769,2.3311,2.5109,2.7035,2.895,3.111,3.3621,3.5855,3.7436,3.7965,3.9295,3.9518,3.8211,3.9844,4.0402,3.9338,4.0699,4.1153,4.0428,4.2015,4.2301,4.1149,4.2864,4.3651,4.3616,4.4591,4.4939,4.4811,4.5838,4.6034,4.5609,4.5697,4.5983,4.625,4.5668,4.4493,4.2911,4.2057,4.1255,4.0502,4.0199,3.9923,3.9697,3.9697,3.932,3.8793,3.8542,3.8065,3.7313,0.0,0.0,0.0,0.0,0.0,0.0,0.0,0.0,0.0,0.0,0.0,0.0,0.0,0.0,4.3266,4.412,0.0,4.5924,4.733,4.8008,4.8661,4.9464,5.0318,5.0444,4.9314,4.9439,4.9816,5.0393,5.1423,5.2302,5.2854,5.3658,5.4511,5.534,5.539,5.5641,5.6219,5.6771,5.7047,5.7047,5.7625,5.7901,5.7901,5.7901,5.7901,5.7901,5.8177,5.8303,5.8328,5.8579,5.8704,5.8704,5.8704,5.8704,5.8629,5.8077,5.77,5.7474,5.7474,5.765,5.7901,1.7688,1.7713,1.8115,1.9434,2.0226,2.1043,2.1995,2.3201,2.4598,2.6273,2.7896,2.9885,3.2487,3.4748,3.6487,3.7518,3.8679,3.8575,3.6704,3.8647,3.9515,3.8757,3.9538,3.965,3.8965,4.0084,4.0105,3.8828,3.9941,4.1022,4.2071,4.2371,4.2303,4.209,4.4162,4.4697,4.4085,4.5813,4.6888,4.7375,4.6853,4.6301,4.5623,4.4095,4.3014,4.2235,4.1304,4.0826,4.06,4.0275,4.0023,3.9848,3.9848,3.9848,3.9572,3.809,3.799,0.0,0.0,0.0,0.0,0.0,0.0,0.0,0.0,4.1103,4.203,4.2964,4.3915,4.5045,4.6527,4.6878,4.7556,4.9439,4.9841,5.0142,5.082,5.2117,5.2452,5.077,5.1272,5.1833,5.1934,5.3105,5.3959,5.416,5.4712,5.5491,5.6495,5.6545,5.6947,5.7876,5.8001,5.8052,5.8052,5.8152,5.8202,5.8202,5.8202,5.8202,5.8227,5.8679,5.888,5.8905,5.9307,5.9483,5.9483,5.9483,5.9483,5.9483,5.9382,5.883,5.8077,5.8177,5.8202,5.8202,1.8732,1.8832,1.8882,1.9058,1.9987,2.0893,2.1507,2.2949,2.4598,2.6273,2.7896,2.9584,3.1386,3.3571,3.5238,3.6146,3.5643,3.4928,3.4147,3.6507,3.7122,3.5326,3.7529,3.8559,3.8055,4.0256,4.0828,3.9746,4.1571,4.1707,4.0239,4.1496,4.2045,4.2105,4.5222,4.6522,4.648,4.7887,4.8528,4.8567,4.7958,4.7405,4.6798,4.5648,4.4271,4.2889,4.2788,4.2082,4.1277,4.1758,4.1255,4.0399,4.0399,4.0399,4.03,3.9622,3.9446,3.9346,3.8642,3.8894,3.9873,4.1858,4.1681,4.1804,0.0,4.4468,4.4116,4.612,4.7029,4.7657,4.8391,4.8887,4.9464,5.0193,5.077,5.1448,5.2468,5.3206,5.3708,5.4019,5.3658,5.3632,5.4195,5.4396,5.4863,5.5867,5.6408,5.7047,5.7675,5.77,5.7775,5.7901,5.8378,5.8591,5.8591,5.9081,5.9307,5.9307,5.9307,5.9307,5.9307,5.9382,5.9408,5.9408,5.9458,5.9483,5.9483,5.9483,5.9483,5.9458,5.8981,5.873,5.8679,5.9156,5.9307,5.9307,1.8958,1.9233,1.9472,1.9472,2.0427,2.1231,2.1482,2.2924,2.4356,2.5385,2.6666,2.8015,2.9327,3.2315,3.4624,3.562,3.6543,3.6083,3.3671,3.5941,3.6467,3.4439,3.6807,3.7878,3.7203,3.9403,4.0115,3.9121,4.0167,4.0962,4.1464,4.2048,4.2776,4.3616,4.499,4.5877,4.637,4.6931,4.7614,4.8209,4.7682,4.7299,4.6973,4.5899,4.5045,4.4346,4.3366,4.2886,0.0,4.2688,4.2135,4.1557,4.1856,4.1731,4.1381,4.0802,4.0877,4.118,4.1255,4.1456,4.1934,4.3137,4.3614,4.4116,4.5522,4.6024,4.6552,4.7832,4.851,4.9063,4.9615,4.9916,5.0469,5.164,5.2076,5.2628,5.3733,5.4336,5.4888,5.544,5.5591,5.5616,5.5541,5.5817,5.6344,5.7123,5.7399,5.7775,5.8353,5.8378,5.8504,5.8805,5.9056,5.9182,5.9182,5.9382,5.9332,5.9056,5.9056,5.888,5.8554,5.8554,5.8554,5.8554,5.8554,5.8554,5.8554,5.8554,5.8554,5.8554,5.8328,5.8252,5.8278,5.8478,5.8554,5.8554,1.9208,1.9522,1.9811,1.9811,2.0628,2.1331,2.1482,2.2774,2.3938,2.4515,2.541,2.6557,2.7946,3.0417,3.259,3.4111,3.5089,3.5004,3.3554,3.4575,3.4993,3.4381,3.5735,3.6436,3.6323,3.7867,3.8514,3.8259,3.8535,3.9539,4.1147,4.1757,4.255,4.3432,4.457,4.5318,4.5782,4.615,4.6844,4.7626,4.7099,4.6873,4.6747,4.5673,4.5246,4.5045,4.3542,4.3338,4.3689,4.3014,4.2512,4.2286,4.2838,4.2637,4.216,4.203,4.2409,4.2939,4.3341,4.3664,4.4016,4.4593,4.5447,4.6225,4.6552,4.728,4.8159,4.9038,4.9414,4.9866,5.072,5.087,5.1373,5.2904,5.3281,5.3758,5.4863,5.5491,5.6043,5.662,5.6985,5.7136,5.6922,5.7085,5.7499,5.8077,5.8127,5.8353,5.8905,5.8805,5.8905,5.9282,5.9131,5.9056,5.9056,5.9056,5.8855,5.8504,5.8504,5.8278,5.7901,5.7901,5.7901,5.7901,5.7901,5.7901,5.7901,5.7901,5.7901,5.7876,5.7725,5.765,5.765,5.7499,5.7625,5.7901,1.9786,1.9786,1.9811,1.9811,2.0301,2.0893,2.1432,2.2433,2.3346,2.3954,2.4515,2.567,2.7871,2.7509,2.8196,3.0906,2.8822,2.9132,3.3333,3.1594,3.1774,3.4833,3.3697,3.3735,3.5391,3.5516,3.6142,3.7344,3.7344,3.7398,3.7524,3.9727,4.0521,4.0217,4.4168,4.5693,4.5332,4.655,4.7087,4.7074,4.6522,4.6326,4.62,4.5041,4.4614,4.4464,4.3388,4.3338,4.3639,4.2587,4.2213,4.2286,4.2838,4.2637,4.2386,4.3413,4.4116,4.4514,4.4539,4.5342,4.6351,4.6873,4.74,4.8134,4.9213,4.8661,4.8385,5.0017,4.9967,5.0092,5.1749,5.2051,5.2402,5.3507,5.4195,5.4924,5.6018,5.6609,5.7161,5.7775,5.7851,5.8077,5.8604,5.8177,5.8102,5.8654,5.8704,5.893,5.9433,5.9006,5.8691,5.8716,5.8227,5.7951,5.7951,5.7951,5.7951,5.7926,5.7926,5.7926,5.7901,5.7901,5.7901,5.7901,5.7901,5.7901,5.7901,5.7901,5.7901,5.7851,5.7236,5.7035,5.696,5.6433,5.6947,5.7901,1.9811,1.9811,1.9811,1.9811,2.0603,2.1281,2.1482,2.2121,2.2909,2.3879,2.4465,0.0,0.0,0.0,0.0,0.0,3.0823,3.1262,3.0467,3.2911,3.4306,3.414,3.5303,3.6483,3.7591,3.6717,3.7205,3.9148,3.8121,3.9145,4.2013,4.2389,4.3318,4.4722,4.5737,4.589,4.5434,4.586,4.5824,4.5392,4.4869,4.484,4.5116,4.474,4.4589,4.4489,0.0,4.3413,4.3187,4.2864,4.2964,4.3366,4.389,4.4217,4.4472,4.4819,4.5573,4.617,4.5819,4.6527,4.7506,4.8083,4.8636,4.9314,5.0444,5.0419,5.0619,5.2251,5.1875,5.1649,5.2929,5.3155,5.3406,5.4195,5.4773,5.5491,5.6559,5.6885,5.7336,5.8328,5.8453,5.8504,5.8666,5.8529,5.8504,5.8704,5.8691,5.8629,5.8453,5.8278,5.8177,5.8177,5.8001,5.7901,5.7901,5.7901,5.77,5.7286,5.6947,5.6771,5.6796,5.7148,5.7286,5.7349,5.7725,5.7901,5.7901,5.7901,5.7901,5.7876,5.7675,5.76,5.76,5.7399,5.7575,5.7851,1.9811,1.9811,1.9811,1.9811,2.0427,0.0,0.0,0.0,0.0,0.0,0.0,0.0,0.0,0.0,0.0,0.0,0.0,3.0595,3.0611,3.2433,3.372,3.4148,3.4953,3.6002,3.7325,3.5692,3.5964,3.8224,3.7445,3.8613,4.1596,4.2747,4.3883,4.5003,4.548,4.5296,4.4597,4.4396,4.4418,4.4464,4.3162,4.3313,4.4242,4.3435,4.3009,0.0,4.2883,4.2559,4.2158,4.2587,4.309,4.3564,4.3915,4.4568,4.5296,4.5899,4.6853,4.7682,4.7531,4.8435,4.9439,4.9647,5.0243,5.0971,5.1699,5.1724,5.1925,5.3155,5.2729,5.2427,5.3507,5.3708,5.3959,5.4773,5.52,5.5842,5.7136,5.7311,5.7713,5.8855,5.883,5.8691,5.8691,5.8529,5.8403,5.8428,5.8428,5.8278,5.7926,5.77,5.76,5.76,5.7399,5.7298,5.7298,5.7298,5.7198,5.6985,5.6634,5.662,5.6821,5.7136,5.7311,5.7336,5.7725,5.7901,5.7901,5.7901,5.7901,5.7901,5.7901,5.7901,5.7901,5.7901,5.8027,5.8102,1.9811,1.9811,1.9811,0.0,0.0,0.0,0.0,0.0,0.0,0.0,0.0,0.0,0.0,0.0,0.0,0.0,0.0,0.0,3.3148,3.0371,3.0405,3.4708,3.2766,3.2678,3.5017,3.2814,3.2773,3.5029,3.5601,3.6156,3.6788,4.0823,4.2168,4.1269,4.34,4.379,4.2813,4.2286,4.2964,4.4113,4.1478,4.1706,4.3363,4.1279,4.0149,3.9848,4.0876,4.0926,4.0651,4.1758,4.2562,4.3115,4.3266,4.3991,4.5116,4.6747,4.8008,4.9019,4.954,5.087,5.2,5.1523,5.2201,5.2945,5.2995,5.2628,5.2377,5.2895,5.2628,5.2553,5.3557,5.3758,5.4135,5.5214,5.5415,5.6018,5.7675,5.7901,5.8278,5.9332,5.9031,5.8704,5.8591,5.8152,5.7851,5.7826,5.7851,5.7851,5.7801,5.7261,5.696,5.696,5.6495,5.6219,5.6219,5.6244,5.6483,5.7035,5.7035,5.7374,5.7901,5.7926,5.7951,5.7951,5.7976,5.7976,5.7976,5.7976,5.7976,5.7976,5.7976,5.7976,5.7976,5.7976,5.8303,5.8641,0.0,0.0,0.0,0.0,0.0,0.0,0.0,0.0,0.0,0.0,0.0,0.0,0.0,0.0,0.0,0.0,0.0,0.0,2.8647,3.1039,3.2689,3.3244,3.3806,3.5062,3.7157,3.4823,3.5166,3.8446,3.7426,3.7807,3.9485,4.0183,4.056,4.0683,4.0866,4.0802,4.0526,4.0401,4.0576,4.0852,3.9747,3.9899,4.0676,4.0124,3.9823,3.9798,4.0449,4.0375,4.0074,4.1152,4.2707,4.4568,4.6683,4.7512,4.7883,4.8711,4.9464,5.0117,5.0695,5.1473,5.2277,5.2929,5.3306,5.3733,5.4561,5.4336,5.412,5.4637,5.4336,5.4069,5.4321,5.4723,5.5039,5.534,5.5742,5.6445,5.7725,5.7901,5.8152,5.883,5.8805,5.8365,5.7512,5.7311,5.7035,5.6671,5.6985,5.7035,5.6671,5.6495,5.642,5.642,5.6294,5.6219,5.6219,5.6584,5.7085,5.7675,5.7675,5.775,5.7901,5.8328,5.8504,5.8529,5.893,5.9081,5.9081,5.9081,5.9081,5.9081,5.9081,5.9081,5.9081,5.9081,5.9182,5.9282,0.0,0.0,0.0,0.0,0.0,0.0,0.0,0.0,0.0,0.0,0.0,0.0,0.0,0.0,0.0,0.0,0.0,0.0,0.0,3.0157,3.1703,3.2463,3.3171,3.439,3.6158,3.4084,3.4262,3.6897,3.6549,3.7078,3.8442,3.9313,3.9722,3.9772,3.9471,3.9195,3.8944,3.8944,3.9521,0.0,0.0,3.8919,3.9948,3.8969,3.8467,3.8366,3.9145,3.9697,4.03,4.1854,4.3536,4.5321,4.7129,4.8008,4.8542,4.9063,5.0142,5.1222,5.1548,5.2578,5.3683,5.4285,5.4436,5.4536,5.4974,5.4411,5.3934,5.4235,5.3858,5.3743,5.4471,5.4612,5.4888,5.5641,5.5817,5.6319,5.77,5.7901,5.8202,5.8956,5.8654,5.8102,5.7474,5.6935,5.6508,5.6244,5.6458,5.6508,5.6219,5.6219,5.6219,5.6219,5.6408,5.6696,5.6947,5.7248,5.7663,5.8252,5.8252,5.8378,5.8604,5.8905,5.9056,5.9081,0.0,5.9483,5.9483,5.9483,5.9483,5.9483,5.9483,5.9483,5.9483,5.9483,5.9483,5.9483,0.0,0.0,0.0,0.0,0.0,0.0,0.0,0.0,0.0,2.4305,2.4205,2.4481,0.0,0.0,0.0,0.0,0.0,0.0,0.0,0.0,2.9302,3.1751,3.1746,3.2285,3.3649,3.2324,3.2216,3.3363,3.4557,3.53,3.5703,3.7963,3.8793,3.8341,3.8341,3.804,3.7563,3.7563,3.8668,4.0223,3.7839,3.8015,3.9521,0.0,3.6632,3.6406,3.7412,3.8919,4.0727,4.2785,4.4418,4.5698,4.6326,4.7255,4.8234,4.8843,5.0469,5.2151,5.2377,5.3884,5.5415,5.5491,5.5491,5.534,5.4748,5.3884,5.3146,5.2945,5.2653,5.2854,5.4245,5.4145,5.431,5.5867,5.5767,5.6068,5.7675,5.7951,5.8353,5.9282,5.8579,5.7976,5.7901,5.6947,5.6319,5.6319,5.6244,5.6219,5.6219,5.6219,5.6244,5.6319,5.6835,5.7387,5.8001,5.8001,5.8278,5.883,5.883,5.9056,5.9483,5.9483,5.9483,5.9483,5.9483,5.9483,5.9483,5.9483,5.9533,5.9608,5.9608,5.9659,5.9734,5.9734,5.9734,5.9734,0.0,0.0,0.0,0.0,0.0,0.0,0.0,0.0,0.0,0.0,2.5234,2.4892,0.0,0.0,0.0,0.0,0.0,0.0,0.0,0.0,0.0,3.0181,3.1011,3.1784,3.247,3.311,3.3567,3.3792,3.446,3.481,3.491,3.534,3.5506,3.5431,3.5431,3.5355,3.528,3.528,3.5481,3.5807,3.533,3.5355,3.5656,3.528,0.0,0.0,3.6431,3.8039,4.0023,4.1302,4.3711,4.6326,4.733,4.841,4.9414,4.9967,5.1071,5.2402,5.3793,5.4773,5.5491,5.5968,5.6068,5.5817,5.4823,5.4798,5.4561,5.3171,5.3582,5.412,5.3884,5.4195,5.4697,5.5415,5.5842,5.6495,5.7725,5.8303,5.8654,5.883,5.8641,5.8403,5.7951,5.7261,5.686,5.686,5.647,5.6219,5.6219,5.6219,5.642,5.6835,5.7449,5.8027,5.8579,5.8541,5.8855,5.9357,5.9357,5.9408,5.9483,5.9483,5.9483,5.9483,5.9483,0.0,5.9483,5.9483,5.9759,6.0186,6.0186,6.0462,6.0889,6.0889,6.0889,6.0889,0.0,0.0,0.0,0.0,0.0,0.0,0.0,2.5778,2.6615,2.8015,2.7971,2.7476,2.6565,2.6482,2.6482,0.0,0.0,0.0,0.0,0.0,0.0,0.0,2.998,3.0683,3.0959,3.2039,3.2591,3.2591,0.0,3.3398,3.3398,3.3721,3.3872,3.3872,3.3872,3.4022,3.4276,3.4276,3.4603,3.5082,3.4803,3.4879,3.5104,3.4803,0.0,0.0,3.618,3.7813,3.9823,4.0625,4.3285,4.6502,4.7581,4.9088,5.0469,5.0419,5.1825,5.3507,5.3984,5.4938,5.5817,5.5792,5.5792,5.5415,5.4034,5.3909,5.3808,5.2729,5.2929,5.3381,5.3658,5.3708,5.3984,5.4873,5.5189,5.5742,5.6872,5.775,5.8403,5.8641,5.8691,5.8604,5.8353,5.7801,5.7474,5.7474,5.7248,5.6972,5.6609,5.6922,5.7349,5.7863,5.8177,5.8579,5.9106,5.9131,5.9257,5.9483,5.9483,5.9483,5.9483,5.9483,5.9483,5.9508,5.9809,5.9935,5.996,6.0261,6.0537,6.0763,6.0763,6.0939,6.119,6.119,6.119,6.119,0.0,0.0,0.0,0.0,0.0,0.0,2.6424,2.7211,2.8197,2.9754,3.0457,3.003,2.8065,2.7713,2.7386,0.0,0.0,0.0,0.0,0.0,0.0,0.0,0.0,0.0,2.9603,0.0,0.0,3.1235,3.1763,0.0,0.0,0.0,0.0,0.0,3.2738,3.2964,3.337,3.337,3.39,0.0,0.0,3.4502,3.4979,0.0,0.0,0.0,0.0,3.7587,3.927,4.0074,4.261,4.5648,4.6979,4.9012,5.082,5.0368,5.2051,5.4044,5.3909,5.4863,5.5817,5.5616,5.539,5.4813,5.3246,5.297,5.2829,5.1925,5.1925,5.2377,5.3206,5.2995,5.3105,5.4245,5.4622,5.5175,5.6244,5.7374,5.8278,5.883,5.888,5.888,5.888,5.8403,5.8077,5.8077,5.8077,5.7826,5.7211,5.775,5.8278,5.8704,5.8792,5.9081,5.9483,5.9483,5.9483,5.9483,5.9483,5.9483,5.9483,5.9483,5.9558,5.9684,6.0136,6.0387,6.0537,6.0989,6.124,6.1366,6.1366,6.1441,6.1542,6.1542,6.1542,6.1542,0.0,0.0,0.0,0.0,0.0,0.0,2.6984,2.8097,2.9183,3.0362,3.0984,3.0879,2.9704,2.9082,2.8329,0.0,0.0,0.0,0.0,0.0,0.0,0.0,0.0,0.0,0.0,0.0,0.0,3.0663,3.121,0.0,0.0,0.0,0.0,0.0,0.0,3.1562,3.1612,3.1612,0.0,0.0,0.0,0.0,0.0,0.0,0.0,0.0,0.0,3.6833,3.7688,3.9245,4.1029,4.2939,4.5075,4.7556,4.9741,4.969,5.0921,5.2653,5.412,5.4622,5.4974,5.5892,5.539,5.4371,5.3181,5.3281,5.3055,5.0963,5.1398,5.2126,5.2226,5.2226,5.2528,5.3607,5.4637,5.5691,5.6759,5.7888,5.883,5.9357,5.9433,5.9433,5.9433,5.8956,5.8654,5.8654,5.8654,5.8403,5.7851,5.8353,5.8641,5.8691,5.9182,5.9433,5.9483,5.9483,5.9483,5.9483,5.9483,5.9483,5.9483,5.9483,5.9759,6.0236,6.0286,6.0613,0.0,6.1205,6.1492,6.1943,6.1943,6.2245,6.2631,6.2631,6.2631,6.2631,0.0,0.0,0.0,0.0,0.0,0.0,2.7469,2.8405,2.9559,3.1315,3.2064,3.2114,3.1336,3.0758,2.9553,2.7487,0.0,0.0,0.0,0.0,0.0,0.0,0.0,0.0,0.0,0.0,3.0131,3.0131,3.0331,0.0,0.0,0.0,0.0,0.0,0.0,3.0608,3.0934,3.0934,0.0,0.0,0.0,0.0,0.0,0.0,0.0,0.0,0.0,0.0,3.7411,3.8768,4.03,4.1982,4.389,4.5924,4.7883,4.9213,5.0795,5.2327,5.3306,5.431,5.5013,5.4762,5.4637,5.422,5.2754,5.2578,5.2402,5.1197,5.1297,5.1699,5.2051,5.2101,5.2352,5.3105,5.416,5.529,5.6394,5.7775,5.8905,5.9433,5.8615,5.8389,5.9392,5.8403,5.8217,5.9567,5.9382,5.9106,5.888,5.9081,5.9182,5.9182,5.9382,5.9483,5.9483,5.9483,5.8837,5.7534,5.8876,5.8798,5.7598,5.9224,6.0111,6.0362,6.104,6.1466,0.0,6.2044,6.1473,6.0362,6.0362,5.9667,5.8823,6.0194,6.0719,6.0886,0.0,0.0,0.0,0.0,0.0,2.5544,2.777,2.8706,2.9785,3.1491,3.2365,3.2667,3.2265,3.1587,3.0306,2.8216,2.7587,0.0,0.0,0.0,0.0,0.0,0.0,0.0,0.0,0.0,2.988,3.003,3.003,3.0105,0.0,0.0,3.0256,3.0276,0.0,0.0,0.0,0.0,0.0,0.0,0.0,0.0,0.0,0.0,0.0,0.0,0.0,0.0,0.0,0.0,0.0,4.1076,4.2582,4.4313,4.625,4.846,5.0293,5.1774,5.2443,5.3658,5.4561,5.4084,5.3909,5.3567,5.2377,5.1975,5.1649,5.0921,5.0921,5.1147,5.1523,5.1749,5.2051,5.2569,5.3884,5.5175,5.6068,5.7775,5.917,5.9684,5.8255,5.763,5.8654,5.7565,5.7405,5.899,5.8723,5.8227,5.7573,5.8187,5.8837,5.9508,5.9483,5.9173,5.8525,5.85,5.7415,5.5228,5.6773,5.6789,5.5526,5.7438,5.8442,5.8782,5.9601,6.0014,0.0,6.0573,5.9775,5.829,5.829,5.7306,5.6096,5.7669,5.829,5.8545,0.0,0.0,0.0,0.0,0.0,0.0,2.777,2.9051,2.998,3.0538,3.1562,3.2194,3.2194,3.124,3.0362,2.9804,2.8266,0.0,0.0,0.0,0.0,0.0,0.0,0.0,0.0,0.0,3.0055,3.0588,3.0588,3.0839,3.1361,3.1361,3.1361,3.1381,0.0,0.0,0.0,0.0,0.0,0.0,0.0,0.0,0.0,0.0,0.0,0.0,0.0,0.0,0.0,0.0,0.0,0.0,0.0,4.2833,4.5041,4.728,4.9081,5.067,5.18,5.2528,5.3171,5.4321,5.3331,5.2126,5.2101,5.1674,5.1004,4.9841,5.0042,5.0386,5.0444,5.0896,5.1473,5.2026,5.3959,5.5566,5.6118,5.8102,5.9684,6.0236,5.8774,5.7523,5.7081,5.6541,5.6231,5.6231,5.6255,5.5268,5.3086,5.5026,5.7257,5.9405,5.9483,5.8422,5.6279,5.6239,5.5107,5.2921,5.2962,5.319,5.3619,5.3661,5.4198,5.5052,5.5074,5.5408,0.0,5.59,5.59,5.5922,5.5922,5.5922,5.5879,5.5922,5.5922,5.5922,0.0,0.0,0.0,0.0,0.0,0.0,0.0,2.7613,2.8417,2.9333,3.0086,3.0557,3.0557,3.0256,2.9679,2.8725,2.8147,0.0,0.0,0.0,0.0,0.0,0.0,0.0,0.0,0.0,3.0412,3.0588,3.0959,3.1235,3.1406,3.1406,3.1406,3.1386,3.121,3.116,0.0,0.0,0.0,0.0,0.0,0.0,0.0,0.0,0.0,0.0,0.0,0.0,0.0,0.0,0.0,0.0,0.0,0.0,0.0,4.5497,4.7707,4.954,5.0645,5.1649,5.2352,5.2361,5.1624,5.1046,5.1448,5.0552,4.9723,5.0067,4.9992,5.0092,5.087,5.1147,5.1733,5.298,5.411,5.4921,5.5086,5.6009,5.6462,5.5842,5.4994,5.3916,5.2631,5.3356,5.4125,5.4463,5.413,5.362,5.2921,5.3538,5.4273,5.4986,5.6455,5.6191,5.397,5.3947,5.2839,5.0652,5.253,5.2625,5.1359,5.3548,5.4698,5.501,5.5455,5.5722,5.5879,5.5813,5.4895,5.3526,5.3526,5.271,5.1708,5.3324,5.4101,5.4539,0.0,0.0,0.0,0.0,0.0,0.0,0.0,2.665,2.7311,2.8197,2.88,2.9327,2.9754,2.9402,2.895,2.8455,2.8021,0.0,0.0,0.0,0.0,0.0,0.0,0.0,0.0,2.9735,3.0789,3.119,3.1964,3.2441,3.2641,3.2867,3.2742,3.2315,3.2114,3.1888,0.0,0.0,0.0,0.0,0.0,0.0,3.3215,0.0,0.0,0.0,0.0,0.0,0.0,0.0,0.0,0.0,0.0,0.0,0.0,0.0,4.6276,4.8083,4.9163,5.0444,5.1398,5.1046,5.0695,5.0519,5.087,4.9992,4.9264,4.9967,4.9841,4.9866,5.0795,5.1147,5.1749,5.3181,5.4235,5.4741,5.4315,5.509,5.4973,5.2934,5.2246,5.1524,5.0439,5.1142,5.1809,5.2113,5.1853,5.1282,5.0441,5.1198,5.126,5.0441,5.3351,5.3906,5.1678,5.1636,5.0611,4.8578,5.0291,5.0477,4.9518,5.1532,5.2552,5.2723,5.3087,5.3259,0.0,5.3407,5.2593,5.1341,5.1504,5.0721,4.9699,5.1151,5.1745,5.2077,0.0,0.0,0.0,0.0,0.0,0.0,0.0,2.603,2.6625,2.711,2.767,2.8423,2.9453,2.8649,2.8247,2.8706,0.0,0.0,0.0,0.0,0.0,0.0,0.0,0.0,2.8222,2.986,3.1215,3.2244,3.3395,3.4248,3.4778,3.5257,3.4979,3.3997,3.3467,3.2842,0.0,0.0,0.0,0.0,3.1712,3.216,0.0,0.0,0.0,0.0,0.0,0.0,0.0,0.0,0.0,0.0,0.0,0.0,0.0,0.0,0.0,0.0,0.0,4.9012,5.0318,5.031,5.0318,5.0318,5.031,4.9941,0.0,4.964,4.9665,4.9816,5.0336,5.0871,5.1581,5.282,5.4138,5.4672,5.3699,5.4712,5.4312,5.1139,5.0346,5.0051,4.9944,4.9569,4.9361,4.9361,4.9361,4.8462,4.642,4.8247,4.8419,4.6333,5.0273,5.1427,4.9382,4.9403,4.8535,4.6889,4.6948,4.7441,4.8203,4.8242,4.8476,0.0,4.8913,4.8913,4.8991,4.9355,4.9504,4.9562,5.0019,4.9941,4.9582,4.9582,4.9355,4.9109,0.0,0.0,0.0,0.0,0.0,0.0,0.0,0.0,0.0,0.0,2.6884,2.7437,2.7304,2.7412,2.7361,0.0,0.0,0.0,0.0,0.0,0.0,0.0,0.0,0.0,2.9377,3.1009,3.2164,3.2889,3.3997,3.4803,3.5307,3.5433,3.5357,3.5104,3.4552,3.3796,0.0,0.0,0.0,0.0,3.2763,3.2864,0.0,0.0,0.0,0.0,3.5979,3.6658,0.0,0.0,0.0,0.0,0.0,0.0,0.0,0.0,4.374,4.4719,4.6276,0.0,4.9264,4.969,4.9464,4.9264,0.0,4.9364,4.9213,5.0042,5.0218,5.0393,5.0971,5.0553,5.1044,5.3773,5.2445,5.1407,5.2326,5.0244,4.8329,4.7507,4.736,4.7237,4.7193,4.7157,4.7097,4.7097,4.7097,4.6836,4.6352,4.6793,4.6836,4.6308,4.7295,4.7598,4.7097,4.7372,4.7326,4.6889,4.7598,4.8008,4.8223,4.8555,4.8815,4.8913,4.8913,4.9043,4.9375,4.9492,4.9726,5.0039,5.0137,5.0312,5.0508,5.0508,5.043,5.0371,0.0,0.0,0.0,0.0,0.0,0.0,0.0,0.0,0.0,0.0,0.0,2.6407,2.6105,2.6582,0.0,0.0,0.0,0.0,0.0,0.0,0.0,0.0,0.0,0.0,3.0412,3.238,3.3688,3.4234,3.5601,3.6674,3.7528,3.7198,3.6816,3.6276,3.4923,3.3872,0.0,0.0,0.0,0.0,3.2537,0.0,0.0,0.0,0.0,0.0,3.568,3.6332,0.0,3.706,3.7337,3.7814,0.0,0.0,0.0,0.0,4.2986,4.4116,4.5547,4.7129,4.851,4.9095,4.9364,4.9615,4.9916,4.9941,5.0125,5.0695,5.082,5.0705,5.0361,5.0033,5.0223,5.1583,5.0488,4.9634,5.0186,4.7967,4.6367,4.6562,4.6426,4.6367,4.6562,4.6426,4.6308,4.6308,4.6308,4.6308,4.6308,4.6308,4.6308,4.6308,4.6308,4.6387,4.6582,4.6772,4.7084,4.7519,4.7988,4.832,4.8516,4.8796,4.8913,4.8913,4.8913,4.905,4.9258,4.9668,4.9961,5.0215,5.0605,5.0781,5.0801,5.0801,5.0683,5.0547,0.0,0.0,0.0,0.0,0.0,0.0,0.0,0.0,0.0,0.0,0.0,0.0,0.0,0.0,0.0,0.0,0.0,0.0,0.0,0.0,0.0,0.0,0.0,3.0604,3.1806,3.398,3.5383,3.5981,3.7776,3.915,4.004,3.9543,3.8637,3.7342,3.5329,3.3969,0.0,0.0,0.0,0.0,3.206,0.0,0.0,0.0,0.0,0.0,0.0,0.0,0.0,3.7563,3.7688,3.7713,3.912,0.0,0.0,0.0,0.0,0.0,4.5372,4.6878,4.8159,4.8693,4.954,5.0293,5.0293,5.067,5.1105,5.1247,5.1381,5.0952,4.9479,4.9464,4.9458,4.8711,4.8879,4.8789,4.7942,4.6944,4.6426,4.6753,4.6523,4.6445,4.6797,4.6504,4.6308,4.6308,4.6308,4.6308,4.6308,4.6308,4.6308,4.6308,4.6367,4.6601,4.6987,4.7031,4.7422,4.8203,4.8281,4.8496,4.8913,4.8913,4.8913,4.8913,0.0,0.0,4.907,4.9766,5.0117,5.0254,5.0957,5.1055,5.0801,5.0801,5.0586,5.0332,0.0,0.0,0.0,0.0,0.0,0.0,0.0,0.0,0.0,0.0,0.0,0.0,0.0,0.0,0.0,0.0,0.0,0.0,0.0,0.0,0.0,0.0,0.0,3.2182,3.4695,3.5802,3.676,3.7712,4.0069,4.1035,4.0683,4.1074,4.0096,3.7949,3.72,3.5697,3.3746,3.3115,0.0,3.309,3.2914,0.0,0.0,0.0,0.0,0.0,0.0,0.0,0.0,3.7286,3.7914,3.8693,3.8944,0.0,0.0,0.0,0.0,0.0,4.617,4.7732,4.8693,4.8768,4.9296,4.9715,4.9715,4.9791,5.0117,5.1096,5.1649,5.1523,4.9959,4.9425,4.9162,4.9013,4.9025,4.8442,4.6819,4.6429,4.6328,4.6387,4.6348,4.6328,4.6387,4.6348,4.6308,4.6308,4.6308,4.6308,4.6308,4.6308,4.6308,4.6308,4.6641,4.7051,4.748,4.748,4.7734,4.8203,4.8574,4.8835,4.8913,4.8913,4.8913,4.8913,0.0,4.9082,4.9433,4.957,4.9844,5.0195,5.0312,5.0547,5.0801,5.0801,5.0762,5.0723,0.0,0.0,0.0,0.0,0.0,0.0,0.0,0.0,0.0,0.0,0.0,0.0,0.0,0.0,0.0,0.0,0.0,0.0,0.0,0.0,0.0,0.0,0.0,0.0,3.6118,3.6981,3.8288,4.0102,4.1252,4.2267,4.3205,4.1842,4.0636,3.944,3.703,3.5535,3.4732,3.3596,3.309,3.309,0.0,0.0,0.0,0.0,0.0,0.0,0.0,0.0,0.0,0.0,3.8215,3.8944,3.9245,0.0,0.0,0.0,0.0,0.0,4.607,4.7933,4.9213,4.9213,5.0092,5.1021,5.1322,5.0765,5.0509,5.1863,5.1031,4.9766,4.8849,4.8186,4.7593,4.696,4.7048,4.6929,4.6111,4.6348,4.6641,4.6641,4.6641,4.6641,4.6641,4.6426,4.6308,4.6308,4.6308,4.6308,4.6308,4.6308,4.6406,4.6641,4.6772,4.7246,4.791,4.791,4.8125,4.8555,4.8815,4.8913,4.8913,4.8913,4.8913,4.8913,0.0,4.9011,4.9199,4.9687,4.9863,4.9902,5.0586,5.084,5.084,5.1055,5.1133,5.1133,0.0,0.0,0.0,0.0,0.0,0.0,0.0,0.0,0.0,0.0,0.0,0.0,0.0,0.0,0.0,0.0,0.0,0.0,0.0,0.0,0.0,0.0,0.0,0.0,3.8084,3.8685,4.016,4.2643,4.312,4.4094,4.5472,4.3322,4.178,4.0656,3.767,3.6078,3.5487,3.4085,3.3341,3.309,0.0,0.0,0.0,0.0,0.0,0.0,0.0,0.0,0.0,0.0,0.0,0.0,0.0,0.0,0.0,4.1884,4.3165,4.4418,4.6351,4.8209,4.9741,5.0393,5.1247,5.1915,5.1995,5.1049,5.0485,5.1452,4.994,4.8256,4.7594,4.6835,4.6064,4.5431,4.5527,4.5785,4.5937,4.6445,4.6772,4.687,4.6792,4.6777,4.6777,4.6484,4.6308,4.6308,4.6308,4.6308,4.6308,4.6387,4.6601,4.687,4.7084,4.7494,4.8203,4.8301,4.8535,4.8913,4.8913,4.8913,4.8913,4.8913,4.8913,4.8913,4.8913,4.8972,4.9109,4.9746,4.9883,4.9785,5.0762,5.0996,5.0859,5.1221,5.1377,5.1377,0.0,0.0,0.0,0.0,0.0,0.0,0.0,0.0,0.0,0.0,0.0,0.0,0.0,0.0,0.0,0.0,0.0,0.0,0.0,0.0,0.0,0.0,0.0,0.0,4.1925,4.1686,4.2731,4.5152,4.6963,4.7277,4.6241,4.6629,4.4625,4.0719,4.1111,3.9142,0.0,0.0,3.4022,3.309,3.309,0.0,0.0,0.0,0.0,0.0,0.0,0.0,0.0,0.0,0.0,0.0,0.0,0.0,4.0777,4.2462,4.3689,4.5116,4.7889,4.912,5.0218,5.2779,5.2352,5.0978,4.9595,4.919,4.8885,4.8061,4.847,4.8504,4.7034,4.5878,4.5385,4.6074,4.5918,4.5957,4.6738,4.6562,4.6484,4.6831,4.6582,4.6348,4.6348,4.6328,4.6308,4.6308,4.6308,4.6308,4.6308,4.668,4.685,4.6889,4.7695,4.8144,4.8203,4.8613,4.8874,4.8913,4.8913,4.8913,4.8913,4.8913,4.8913,4.8913,4.8913,4.9101,4.9492,4.9504,4.9785,5.0137,5.0234,5.0488,5.0859,5.1221,5.1377,5.1377,0.0,0.0,0.0,0.0,0.0,0.0,0.0,0.0,0.0,0.0,0.0,0.0,0.0,0.0,0.0,0.0,0.0,0.0,0.0,0.0,0.0,0.0,0.0,3.9349,4.3479,4.2351,4.3084,4.5953,4.7122,4.7429,4.6877,4.5212,4.3491,4.167,3.9765,0.0,0.0,0.0,0.0,3.4073,3.3721,3.3617,0.0,0.0,0.0,0.0,0.0,0.0,0.0,0.0,3.8617,3.9421,3.9622,4.03,4.1327,4.3011,4.4518,4.62,4.8611,4.9941,5.0971,5.2352,5.2754,5.2461,5.1321,4.9993,4.8784,4.8141,4.7236,4.6495,4.6452,4.5865,4.5703,4.6562,4.6348,4.6269,4.6811,4.6753,4.6714,4.687,4.6797,4.6582,4.6328,4.6308,4.6308,4.6308,4.6308,4.6308,4.6308,4.6699,4.7006,4.7324,4.791,4.834,4.8613,4.8815,4.8913,4.8913,4.8913,4.8913,4.8913,4.8913,4.8913,4.8913,4.916,4.9375,4.9523,5.0098,5.0273,5.0176,5.0176,5.0586,5.1152,5.0781,5.082,5.0996,0.0,0.0,0.0,0.0,0.0,0.0,0.0,0.0,0.0,0.0,0.0,0.0,0.0,0.0,0.0,0.0,0.0,0.0,0.0,3.2871,3.4382,3.6404,0.0,3.9379,4.3599,4.2872,4.3902,4.6929,4.7189,4.71,4.6608,4.4129,4.2688,0.0,0.0,0.0,0.0,0.0,0.0,0.0,3.4276,3.4148,0.0,0.0,0.0,0.0,0.0,0.0,0.0,0.0,3.8919,3.9697,3.9697,4.0576,4.1882,4.3363,4.5372,4.7481,4.9339,5.067,5.1615,5.1812,5.2256,5.2293,5.0859,4.9781,4.867,4.7328,4.6188,4.5644,4.6367,4.6269,4.625,4.6792,4.6699,4.6641,4.707,4.6967,4.6928,4.7109,4.6894,4.6621,4.6328,4.6308,4.6308,4.6308,4.6308,4.6367,4.6484,4.6914,4.7344,4.7773,4.8183,4.86,4.8913,4.8913,4.8913,4.8913,4.8913,4.8913,4.8913,4.8913,4.8913,4.8933,4.9336,4.9562,4.9785,5.0508,5.0723,5.0566,5.0566,5.0918,5.1299,5.0644,5.0566,5.0742,0.0,0.0,0.0,0.0,0.0,0.0,0.0,0.0,0.0,0.0,0.0,0.0,0.0,0.0,0.0,0.0,0.0,0.0,3.2452,3.3125,3.4398,3.6404,3.7075,3.896,4.2321,4.3658,4.5633,4.8319,4.7638,4.6621,4.5284,4.4128,0.0,0.0,0.0,0.0,0.0,0.0,0.0,0.0,3.4728,3.4703,3.4703,0.0,0.0,0.0,0.0,0.0,0.0,0.0,3.9245,3.9697,3.9697,4.0853,4.2439,4.3489,4.6175,4.9044,5.0117,5.1214,5.1939,5.1489,5.0872,4.9758,4.7364,4.797,4.8179,4.5073,4.543,4.6426,4.6855,4.6889,4.6889,4.6889,4.6889,4.709,4.7519,4.7207,4.709,4.7519,4.6816,4.6308,4.6308,4.6308,4.6308,4.6308,4.6308,4.6484,4.687,4.7344,4.7773,4.8203,4.8679,4.8913,4.8913,4.8913,4.8913,4.8913,4.8913,4.8913,4.8913,4.8913,4.8913,4.8933,4.9336,4.9766,5.0215,5.0625,5.1055,5.1377,5.1377,5.1377,5.1319,5.0957,5.0801,5.0723,0.0,0.0,0.0,0.0,0.0,0.0,0.0,0.0,0.0,0.0,0.0,0.0,0.0,0.0,0.0,0.0,0.0,0.0,3.178,3.2886,3.3979,3.5056,3.6567,3.8542,4.0954,4.3629,4.6082,4.8319,4.7638,4.6205,4.4107,4.4637,0.0,0.0,0.0,0.0,0.0,0.0,0.0,0.0,3.5904,3.5655,3.533,0.0,0.0,0.0,0.0,0.0,0.0,0.0,0.0,0.0,4.0149,4.1404,4.3065,4.4572,4.6808,4.9044,5.0117,5.0201,5.002,5.0235,4.9677,4.8635,4.7093,4.7568,4.7854,4.6085,4.5801,4.6074,4.6753,4.6699,4.6582,4.6831,4.6889,4.709,4.7519,4.7461,4.7441,4.7558,4.709,4.6621,4.6328,4.6308,4.6308,4.6308,4.6582,4.6753,4.687,4.7617,4.8086,4.8203,4.8679,4.8913,4.8913,4.8913,4.8913,4.8913,4.8913,4.8913,4.8913,4.8913,4.8913,4.8933,4.9336,4.959,4.9766,5.0508,5.1055,5.1358,5.1113,5.0996,5.0898,5.0176,4.9902,4.9844,0.0,0.0,0.0,0.0,0.0,0.0,0.0,0.0,2.8094,2.9428,2.9608,3.0087,0.0,0.0,0.0,3.1511,3.1511,0.0,3.1869,3.2916,3.3903,3.4847,3.6267,3.8093,4.0337,4.3629,4.5753,4.6711,4.686,4.5862,4.3884,0.0,0.0,0.0,0.0,0.0,0.0,0.0,0.0,0.0,3.6959,3.681,3.656,0.0,0.0,0.0,0.0,0.0,0.0,0.0,0.0,0.0,4.035,4.1656,4.3416,4.5522,4.7857,5.0049,5.1122,5.0758,5.0008,4.9561,4.8501,4.7285,4.6496,4.6716,4.6885,4.6198,4.6113,4.6289,4.6621,4.6601,4.6641,4.685,4.707,4.7285,4.7539,4.7715,4.7695,4.7363,4.709,4.6714,4.6348,4.6308,4.6308,4.6308,4.6699,4.6967,4.7187,4.7832,4.8281,4.8457,4.8776,4.8913,4.8913,4.8913,4.8913,4.8913,4.8913,4.8913,4.8913,4.8913,4.8913,4.8933,4.9336,4.9726,5.0078,5.0586,5.0957,5.1152,5.0898,5.0801,5.0703,4.9844,4.9484,4.9453,0.0,0.0,0.0,0.0,0.0,0.0,0.0,2.7675,2.8184,2.9502,2.9668,3.0133,0.0,0.0,0.0,3.1511,3.1511,3.175,3.2362,3.3095,3.4053,3.528,3.6118,3.7793,4.0427,4.3479,4.4825,4.4386,4.5732,4.5568,0.0,0.0,0.0,0.0,0.0,0.0,0.0,0.0,0.0,0.0,3.7839,3.8015,3.8015,3.8718,0.0,0.0,0.0,0.0,0.0,0.0,0.0,0.0,4.04,4.1681,4.3514,4.622,4.8987,5.1314,5.2163,5.1855,5.0889,4.9106,4.7301,4.5941,4.572,4.5746,4.5723,4.5723,4.6348,4.6714,4.6367,4.6641,4.6889,4.6889,4.7324,4.7637,4.7637,4.7969,4.791,4.7045,4.6948,4.6797,4.6348,4.6328,4.6367,4.6367,4.6738,4.7187,4.7617,4.8027,4.8457,4.8894,4.8913,4.8913,4.8913,4.8913,4.8913,4.8913,4.8913,4.8913,4.8913,4.8913,4.8913,4.8933,4.9297,4.9922,5.0683,5.0723,5.0781,5.0801,5.0801,5.0781,5.0644,4.9824,4.9492,4.9414,0.0,0.0,0.0,0.0,0.0,0.0,2.8291,2.8368,2.8846,3.0133,3.0313,3.0598,3.1421,3.1511,0.0,3.1511,3.1511,3.157,3.172,3.2856,3.3634,3.3903,3.6028,3.8452,4.1134,4.2391,4.3708,4.5095,4.6441,4.5177,0.0,0.0,0.0,0.0,0.0,0.0,0.0,0.0,0.0,0.0,0.0,3.8165,3.7537,3.8969,3.912,0.0,0.0,0.0,0.0,0.0,0.0,0.0,4.0826,4.2007,4.3467,4.5799,4.8134,4.9766,4.8894,4.8905,4.8643,4.6558,4.5902,4.5749,4.5715,4.5937,4.6172,4.6172,4.6308,4.6406,4.6328,4.6641,4.6889,4.6889,4.7578,4.8066,4.8066,4.8144,4.8008,4.75,4.7441,4.7148,4.6367,4.6601,4.6753,4.6753,4.7187,4.7617,4.8047,4.8476,4.8815,4.8894,4.8913,4.8913,4.8913,4.8913,4.8913,4.8913,4.8913,4.8913,4.8913,4.8913,4.8913,4.8913,4.9011,4.9316,4.9824,5.0176,5.0508,5.0801,5.0801,5.0605,5.0254,4.9726,4.9297,4.9031,0.0,0.0,0.0,0.0,0.0,0.0,0.0,0.0,2.9056,3.0342,3.0492,3.0747,3.1421,3.1511,0.0,0.0,3.1511,3.1511,3.1511,3.2766,3.3784,3.4442,3.6357,3.7913,3.9038,4.1242,4.2614,4.2996,4.4956,4.4625,0.0,0.0,0.0,0.0,0.0,0.0,0.0,0.0,0.0,0.0,0.0,0.0,0.0,3.9546,3.9572,3.8843,3.8542,0.0,0.0,0.0,0.0,0.0,0.0,0.0,4.3492,4.5974,4.7883,4.9152,4.8721,4.8351,4.7534,4.5097,4.5088,4.5727,4.5727,4.5996,4.6308,4.6308,4.6308,4.6367,4.6562,4.6777,4.7026,4.7435,4.791,4.8203,4.8203,4.8379,4.8203,4.7363,4.7461,4.7246,4.6387,4.6504,4.6719,4.687,4.7324,4.7773,4.8183,4.8659,4.8913,4.8913,4.8913,4.8913,4.8913,4.9062,4.9062,4.8913,4.9128,4.9109,4.8913,4.8913,4.9031,4.916,4.8991,4.9121,4.9504,4.9766,5.0,5.0195,5.0195,5.0058,4.9805,4.9375,4.9062,4.8913,0.0,0.0,0.0,0.0,0.0,0.0,0.0,0.0,0.0,3.0508,3.0658,3.0897,3.1451,3.1511,3.1511,0.0,0.0,0.0,3.1511,3.2766,3.4113,3.5459,3.6626,3.7105,3.6823,4.007,4.1312,4.0391,4.2437,0.0,0.0,0.0,0.0,0.0,0.0,0.0,0.0,0.0,0.0,0.0,0.0,0.0,0.0,0.0,0.0,0.0,3.907,3.9044,3.9044,3.9044,0.0,0.0,0.0,0.0,4.3517,4.607,4.7682,4.8803,4.9392,4.8557,4.6985,4.4537,4.4805,4.5746,4.5805,4.6055,4.6308,4.6308,4.6308,4.6426,4.6855,4.6992,4.7305,4.8086,4.8281,4.832,4.832,4.8542,4.8242,4.7168,4.7285,4.7168,4.6387,4.6367,4.6582,4.7012,4.7383,4.7793,4.8301,4.8718,4.8913,4.8913,4.8972,4.9011,4.9011,4.9414,4.9453,4.9128,4.9394,4.9297,4.8913,4.8913,4.9062,4.9394,4.9023,4.9062,4.9414,4.9445,4.9484,4.9484,4.9484,4.9484,4.9473,4.907,4.8913,4.8913,0.0,0.0,0.0,0.0,0.0,0.0,0.0,0.0,0.0,0.0,3.1361,3.1391,3.1481,3.1511,3.1511,3.1511,3.1511,3.1511,3.1511,0.0,0.0,3.5459,3.6207,3.7092,3.8123,3.8823,3.9401,3.989,3.9727,0.0,0.0,0.0,0.0,0.0,0.0,0.0,0.0,0.0,0.0,0.0,0.0,0.0,0.0,0.0,0.0,0.0,0.0,3.9597,3.9597,3.9597,3.9998,0.0,0.0,0.0,4.3366,4.5171,4.6803,4.8074,4.842,4.7753,4.6584,4.5178,4.5273,4.5781,4.6133,4.6269,4.6308,4.6308,4.6308,4.6426,4.6855,4.7246,4.7656,4.8125,4.8535,4.8815,4.8815,4.8229,4.774,4.7519,4.7207,4.6836,4.6348,4.6641,4.7031,4.7461,4.7539,4.793,4.8776,4.8874,4.8913,4.8913,4.9238,4.9433,4.9433,4.9883,5.0058,5.0,4.9687,4.9297,4.8913,4.8913,4.8933,4.8991,4.8933,4.8933,4.9031,4.9375,4.9484,4.9484,4.9484,4.9484,4.9473,4.907,4.8913,4.8913,0.0,0.0,0.0,0.0,0.0,0.0,0.0,0.0,0.0,0.0,0.0,3.1511,3.1511,3.1511,3.1511,3.1511,3.1511,3.166,3.2019,3.2976,3.3933,3.4907,3.5579,3.6207,3.6746,3.7332,3.7624,3.7601,0.0,0.0,0.0,3.9796,3.9574,0.0,0.0,0.0,0.0,0.0,0.0,0.0,0.0,0.0,0.0,0.0,0.0,0.0,0.0,0.0,4.1105,4.1105,4.1255,4.1557,4.2034,0.0,0.0,0.0,4.5497,4.6607,4.683,4.6405,4.5688,4.4877,4.5,4.543,4.5859,4.6133,4.6308,4.6308,4.6484,4.6777,4.7207,4.7441,4.7793,4.8457,4.8776,4.8913,4.8913,4.832,4.7851,4.7617,4.7187,4.6714,4.6348,4.6635,4.7109,4.7539,4.7793,4.8203,4.8874,4.9101,4.9121,4.8913,4.9297,4.9414,4.916,4.959,4.9805,4.9805,4.9355,4.9043,4.8913,4.8913,4.8913,4.8913,4.8913,4.8913,4.8913,4.9062,4.916,4.916,4.916,4.916,4.9121,4.8972,4.8913,4.8913,0.0,0.0,0.0,0.0,0.0,0.0,0.0,0.0,0.0,0.0,0.0,3.1511,3.1511,0.0,0.0,0.0,3.1511,3.172,3.2213,3.2871,3.3455,3.3979,3.4801,3.5123,3.4896,3.5725,3.5881,3.5324,0.0,0.0,3.8693,3.9371,3.9622,0.0,3.8743,0.0,0.0,0.0,0.0,0.0,4.035,4.1731,0.0,0.0,0.0,0.0,0.0,0.0,4.319,4.2914,4.2713,4.2587,4.2436,4.2688,0.0,0.0,0.0,4.5995,4.5571,4.5444,4.5278,4.4428,4.4375,4.4726,4.5508,4.5918,4.6172,4.6289,4.6562,4.6933,4.748,4.7656,4.7988,4.8776,4.8913,4.8913,4.8913,4.8476,4.8047,4.7637,4.7187,4.6714,4.6348,4.6777,4.7226,4.7558,4.8183,4.8672,4.9004,4.9453,4.9492,4.9089,4.9453,4.9473,4.907,4.9473,4.9648,4.9531,4.918,4.9011,4.8913,4.8913,4.8913,4.8913,4.8913,4.8913,4.8913,4.8913,4.8913,4.8913,4.8913,4.8913,4.8913,4.8913,4.8913,4.8913,0.0,0.0,0.0,0.0,0.0,0.0,0.0,0.0,0.0,0.0,0.0,3.1511,3.1511,3.1511,3.1511,3.1511,3.1511,3.1511,3.154,3.2183,3.2572,3.2602,3.3859,0.0,3.3227,3.4014,3.4229,0.0,0.0,0.0,3.8065,3.917,4.0249,4.1152,4.0099,3.9371,3.8994,0.0,0.0,0.0,0.0,4.3664,0.0,0.0,0.0,0.0,0.0,0.0,4.5924,4.4815,4.4141,4.3614,4.314,4.2989,4.3115,0.0,0.0,0.0,4.5073,4.5283,4.5753,4.4139,4.3457,4.3613,4.5336,4.5746,4.582,4.623,4.6328,4.6582,4.7422,4.791,4.832,4.8835,4.8913,4.8913,4.8913,4.8476,4.8047,4.7637,4.7187,4.6714,4.6348,4.7051,4.7558,4.7578,4.875,4.9426,4.9445,4.9902,4.9941,4.9465,4.9922,4.9941,4.9445,4.9922,4.9941,4.9484,4.9465,4.9277,4.8913,4.8913,4.8913,4.8913,4.8913,4.8913,4.8913,4.8913,4.8913,4.8913,4.8913,4.8913,4.8913,4.8913,4.8913,4.8913,0.0,0.0,0.0,0.0,0.0,0.0,0.0,0.0,0.0,0.0,0.0,0.0,0.0,0.0,0.0,0.0,0.0,0.0,0.0,3.3395,3.3784,3.3784,3.4651,3.4695,3.3696,3.4091,0.0,0.0,0.0,3.656,3.804,3.917,4.0099,4.0725,3.9672,3.9647,4.0399,4.0124,0.0,0.0,0.0,0.0,0.0,0.0,0.0,0.0,0.0,0.0,0.0,4.7004,4.5899,4.4719,4.379,0.0,0.0,4.374,4.502,4.5933,4.3949,4.4483,4.507,4.298,4.3203,4.4082,4.4707,4.5703,4.6445,4.6328,4.6738,4.7207,4.7519,4.7715,4.8027,4.8796,4.8913,4.8913,4.8913,4.8476,4.8144,4.8008,4.7598,4.7285,4.7129,4.7891,4.8444,4.8444,4.9355,4.9941,4.9941,5.0098,4.998,4.9484,4.9687,4.9551,4.9101,4.9304,4.9304,4.9101,4.9101,4.907,4.8913,4.8913,4.8913,4.8913,4.8913,4.8913,4.8913,4.8913,4.8913,4.8913,4.8913,4.8913,4.8913,4.8913,4.8913,4.8913,0.0,0.0,0.0,0.0,0.0,0.0,0.0,0.0,0.0,0.0,0.0,0.0,0.0,0.0,0.0,0.0,3.3649,3.3484,3.3484,3.3624,3.3704,3.3704,3.4015,3.3823,3.2999,0.0,0.0,0.0,0.0,0.0,0.0,0.0,3.9521,4.0199,3.9296,3.9597,0.0,0.0,0.0,4.2105,0.0,0.0,4.8661,0.0,0.0,0.0,0.0,0.0,0.0,0.0,0.0,0.0,0.0,0.0,0.0,0.0,4.4744,4.5045,4.2973,4.3503,4.4213,4.2122,4.2676,4.3848,4.4297,4.5391,4.6328,4.6484,4.6973,4.7402,4.7558,4.7578,4.7897,4.8757,4.8913,4.8913,4.8913,4.8613,4.8379,4.8223,4.7969,4.7734,4.7598,4.8496,4.907,4.8913,4.9941,5.0527,5.0391,5.0391,5.0117,4.9504,4.9375,4.916,4.8913,4.8913,4.8913,4.8913,4.8913,4.8913,4.8913,4.8913,4.8913,4.8913,4.8913,4.8913,4.8913,4.8913,4.8913,4.8913,4.8913,4.8913,4.8913,4.8913,4.8913,4.8913,0.0,0.0,0.0,0.0,0.0,0.0,0.0,0.0,0.0,0.0,0.0,0.0,0.0,0.0,0.0,0.0,3.3948,3.3543,3.3543,3.2643,3.2118,3.2118,0.0,0.0,0.0,0.0,0.0,0.0,0.0,0.0,0.0,0.0,3.8617,0.0,3.917,3.9245,3.9823,0.0,4.2032,4.3416,0.0,4.917,4.9916,0.0,0.0,0.0,5.3196,5.3356,0.0,5.2528,0.0,0.0,0.0,0.0,0.0,0.0,0.0,0.0,0.0,0.0,0.0,4.1602,4.1797,4.2773,4.4082,4.4746,4.5387,4.6596,4.687,4.707,4.75,4.7578,4.7897,4.8757,4.8894,4.8894,4.8894,4.8894,4.8737,4.8281,4.8223,4.8066,4.7701,4.8769,4.9355,4.8972,5.0469,5.123,5.084,5.082,5.041,4.9504,4.9101,4.8913,4.8913,4.8913,4.8913,4.8913,4.8913,4.8913,4.8913,4.8913,4.8913,4.8913,4.8913,4.8913,4.8913,4.8913,4.8913,4.8913,4.8913,4.8913,4.8913,4.8913,4.8913,4.8913,0.0,0.0,0.0,0.0,0.0,3.4398,3.4861,3.5878,0.0,0.0,0.0,0.0,0.0,0.0,0.0,0.0,3.5356,3.4605,3.4605,3.3232,3.2461,3.2461,3.2729,3.2544,0.0,0.0,0.0,0.0,0.0,0.0,0.0,0.0,0.0,0.0,3.9948,4.0375,4.0926,4.2057,0.0,4.5125,4.856,5.0067,0.0,0.0,0.0,0.0,0.0,5.5465,5.4813,0.0,5.2763,5.0896,0.0,0.0,0.0,0.0,0.0,0.0,4.193,0.0,0.0,0.0,0.0,0.0,4.3672,4.5195,4.6328,4.6074,4.6758,4.7441,4.7558,4.7578,4.7897,4.8757,4.864,4.8379,4.8379,4.8698,4.8855,4.8737,4.8718,4.8679,4.8561,4.9121,4.9609,4.9805,5.0527,5.1055,5.1201,5.0976,5.041,4.9504,4.9414,4.918,4.8913,4.8913,4.8913,4.8913,4.8913,4.8913,4.8913,4.8913,4.8913,4.8913,4.8913,4.8913,4.8913,4.8913,4.8913,4.8913,4.8913,4.8913,4.8913,4.8913,4.8913,4.8913,0.0,0.0,3.4412,3.4697,3.5506,3.6344,3.7015,3.776,3.8344,0.0,0.0,0.0,0.0,0.0,0.0,0.0,3.6096,3.5281,3.5064,3.3999,3.3298,3.3065,3.2951,3.2765,3.2475,0.0,0.0,0.0,0.0,0.0,0.0,0.0,0.0,0.0,0.0,4.1051,4.2133,0.0,0.0,0.0,4.9264,0.0,0.0,5.3858,5.5189,0.0,0.0,0.0,5.5691,5.5365,5.3934,0.0,0.0,0.0,0.0,0.0,0.0,0.0,0.0,0.0,0.0,0.0,0.0,0.0,4.3457,4.4824,4.5937,4.6152,4.6797,4.7305,4.7305,4.7461,4.7682,4.7818,4.8027,4.8203,4.8203,4.8418,4.864,4.864,4.8796,4.8913,4.8913,4.9258,4.9629,4.9883,5.0293,5.0644,5.0898,5.084,5.0508,4.9824,4.9805,4.959,4.9141,4.9141,4.9089,4.8913,4.8913,4.8913,4.8913,4.8913,4.8913,4.8913,4.8913,4.8913,4.8913,4.8913,4.8913,4.8913,4.8913,4.8913,4.8913,4.8913,4.8913,4.8913,0.0,0.0,3.5848,3.6583,3.7781,3.8841,3.9511,3.9682,3.9556,0.0,0.0,0.0,0.0,0.0,0.0,0.0,0.0,3.5816,3.5256,3.4797,3.4293,3.3759,3.2923,3.2717,3.319,3.224,0.0,0.0,0.0,0.0,0.0,0.0,0.0,0.0,4.03,4.1681,4.3313,4.5547,0.0,4.7726,4.9758,5.154,0.0,0.0,5.4587,5.5541,5.4536,5.5164,5.647,5.6344,5.5265,0.0,0.0,0.0,0.0,0.0,4.698,0.0,0.0,0.0,0.0,0.0,0.0,0.0,4.3223,4.3926,4.4746,4.6191,4.6577,4.6674,4.6674,4.707,4.7148,4.6484,4.7285,4.8027,4.8125,4.8223,4.8262,4.8223,4.8594,4.8874,4.8776,4.916,4.9406,4.9406,4.9902,5.0176,5.0176,5.0586,5.0605,5.0195,5.0215,5.0039,4.9562,4.9551,4.9336,4.8972,4.8933,4.8913,4.8913,4.8913,4.8913,4.8913,4.8913,4.8913,4.8913,4.8913,4.8913,4.8913,4.8913,4.8913,4.8913,4.8913,4.8913,4.8913,3.5011,3.5759,3.6673,3.7841,3.911,4.0247,4.0924,4.1095,4.1163,0.0,0.0,0.0,0.0,0.0,0.0,0.0,0.0,0.0,3.6109,3.5178,3.441,3.3875,3.4086,3.4073,3.3746,3.3972,3.4477,0.0,0.0,0.0,0.0,0.0,0.0,0.0,4.2007,4.3162,4.4414,4.6652,0.0,5.0544,5.1423,0.0,5.3607,5.422,5.5641,5.7374,5.7148,5.7575,5.8064,5.7136,5.6333,5.5491,0.0,0.0,0.0,5.0099,0.0,0.0,0.0,0.0,0.0,0.0,0.0,0.0,4.1953,4.3027,4.3848,4.3828,4.4668,4.5348,4.5348,4.5762,4.6211,4.6719,4.6738,4.6914,4.7598,4.8301,4.8594,4.8242,4.8594,4.864,4.7936,4.8581,4.9031,4.9031,4.9726,5.0176,5.0176,5.0586,5.0605,5.0195,5.0508,5.0469,5.0058,4.9707,4.9492,4.9394,4.9023,4.8913,4.8913,4.8913,4.8913,4.8913,4.8913,4.8913,4.8913,4.8913,4.8913,4.8913,4.8913,4.8913,4.8913,4.8913,4.8913,4.8913,3.4433,3.5673,3.7013,3.7988,3.9194,4.0371,4.1318,4.1247,0.0,0.0,0.0,0.0,0.0,0.0,0.0,0.0,0.0,0.0,0.0,3.7069,3.6533,3.5981,3.5956,3.5705,3.515,3.5655,3.5956,3.5956,0.0,0.0,0.0,0.0,0.0,0.0,0.0,4.4618,4.6778,4.8159,4.9741,5.1348,5.2176,0.0,5.4988,5.5265,5.6595,5.8303,5.8303,5.8478,5.8566,5.7713,5.7097,0.0,0.0,5.3824,5.2181,0.0,4.7294,4.3997,0.0,0.0,0.0,3.9668,0.0,0.0,0.0,4.2461,4.3066,4.3066,4.3945,4.4648,4.4414,4.4902,4.543,4.5625,4.6211,4.6543,4.6328,4.7422,4.8268,4.8203,4.8594,4.8737,4.8307,4.8659,4.8913,4.8913,4.9473,4.9844,4.9844,5.0449,5.0703,5.0508,5.0898,5.0918,5.0488,5.0078,4.9746,4.9531,4.9062,4.8913,4.8913,4.8913,4.8913,4.8913,4.8913,4.8913,4.8913,4.8913,4.8913,4.8913,4.8913,4.8913,4.8913,4.8913,4.8913,4.8913,3.3843,3.5374,3.7002,3.7779,3.8928,4.0162,4.1351,4.1015,0.0,0.0,0.0,0.0,0.0,0.0,0.0,0.0,0.0,0.0,0.0,3.9999,3.9722,3.9145,3.8191,3.7637,3.7536,3.7512,3.7361,3.7034,0.0,0.0,0.0,0.0,0.0,0.0,0.0,0.0,0.0,0.0,0.0,5.185,0.0,5.4762,5.6545,5.6545,5.765,5.9207,5.9207,5.9207,5.9131,5.8679,5.8227,5.7663,5.6947,5.5644,0.0,0.0,0.0,0.0,0.0,0.0,0.0,0.0,0.0,4.0293,0.0,0.0,0.0,4.2677,4.334,4.3789,4.3398,4.3984,4.4313,4.3848,4.5137,4.5801,4.4687,4.5937,4.7187,4.7773,4.8379,4.8718,4.8542,4.8991,4.9167,4.8913,4.9492,4.9699,4.9414,5.0215,5.0683,5.0683,5.1172,5.1221,5.0937,5.043,5.0,4.9648,4.9167,4.8913,4.8913,4.8913,4.8913,4.8913,4.8913,4.8952,4.9031,4.9031,4.9089,4.9148,4.8972,4.8913,4.8913,4.8991,4.9031,4.905,3.5018,3.568,3.6588,3.7772,3.9035,4.0277,4.1492,4.1184,0.0,0.0,0.0,0.0,0.0,0.0,0.0,0.0,0.0,0.0,4.4037,0.0,0.0,4.3162,4.0752,4.01,4.1509,3.9673,3.8919,3.932,3.9923,0.0,0.0,0.0,0.0,0.0,4.6627,0.0,0.0,0.0,5.3306,0.0,5.5189,5.6595,0.0,5.77,5.9031,6.0914,6.0914,6.0914,6.0889,0.0,6.0763,6.0437,0.0,5.6317,5.3508,5.1892,0.0,0.0,0.0,0.0,0.0,0.0,3.9863,0.0,0.0,0.0,4.1367,4.1426,0.0,4.207,4.2031,0.0,0.0,4.1699,4.2696,4.334,4.2752,4.3906,4.5195,4.6387,4.7558,4.7988,4.7226,4.9238,5.0098,4.8991,5.0312,5.0547,4.907,4.9766,5.0254,5.0254,5.1016,5.1358,5.1319,5.0586,5.0156,5.0098,4.9304,4.8913,4.8913,4.8913,4.8913,4.8913,4.8913,4.9082,4.9453,4.9453,4.9687,4.9988,4.9206,4.8913,4.8952,4.9297,4.9453,4.9512,3.5046,3.5661,3.6653,3.7799,3.871,3.9597,4.0407,4.1155,0.0,0.0,0.0,0.0,0.0,0.0,0.0,0.0,0.0,4.7124,0.0,0.0,0.0,4.4794,4.3037,4.2135,4.2213,4.1307,4.0753,4.0625,4.0851,4.1555,0.0,0.0,0.0,0.0,4.7857,0.0,5.0938,0.0,5.4762,0.0,0.0,5.8905,0.0,5.9307,6.001,6.1667,6.1667,6.1667,6.1392,0.0,6.0496,0.0,0.0,0.0,0.0,0.0,0.0,0.0,0.0,0.0,0.0,0.0,0.0,0.0,4.0644,0.0,4.1074,0.0,0.0,0.0,0.0,0.0,0.0,0.0,4.1836,4.2187,4.1758,4.3262,4.4785,4.582,4.6406,4.6894,4.7266,4.9433,5.0254,4.9011,5.0234,5.043,4.8991,4.9754,5.0176,5.0176,5.0996,5.1377,5.1377,5.084,5.041,5.0176,4.9551,4.9101,4.8913,4.8913,4.8913,4.8913,4.9141,4.9355,4.9504,4.9805,5.0019,5.0137,4.9813,4.9676,4.9648,4.9824,4.9902,4.9922,3.5981,0.0,0.0,3.7436,3.8065,3.8818,3.9973,4.1708,4.3266,4.4342,0.0,0.0,4.733,4.7983,0.0,0.0,4.9665,4.9665,0.0,0.0,4.7782,4.7531,4.5573,0.0,4.422,4.3492,4.2738,4.198,4.213,4.2532,4.324,4.324,4.4719,4.7531,4.8711,5.0519,5.277,5.4511,5.6018,5.7336,5.8478,6.0373,6.2446,6.114,6.0832,6.1078,6.1226,6.0842,6.0005,5.7892,5.8879,0.0,5.4941,0.0,5.556,0.0,0.0,0.0,4.4066,0.0,0.0,0.0,0.0,0.0,0.0,0.0,0.0,0.0,0.0,0.0,0.0,0.0,0.0,0.0,0.0,4.1055,0.0,4.1953,4.3613,4.4824,4.5273,4.5957,0.0,4.9492,5.043,4.9141,5.0469,5.0703,4.9343,4.9707,5.0098,5.0351,5.0937,5.126,5.1377,5.1016,5.0644,5.0351,4.9785,4.9355,4.9089,4.8952,4.8913,4.8913,4.9199,4.9473,4.9726,5.0039,5.0312,5.0527,5.0527,5.0527,5.0508,5.0391,5.0351,5.0371,3.8668,3.7487,0.0,3.6455,3.6909,3.8165,4.0851,4.3109,4.4916,4.6075,0.0,0.0,0.0,0.0,0.0,0.0,0.0,5.4687,5.3557,0.0,5.2151,5.2644,4.8504,4.7205,0.0,4.6753,4.4844,4.3714,4.4238,4.4267,4.3765,4.3765,4.4694,4.6476,4.9131,5.1021,5.2352,5.5555,5.7286,5.7976,5.9031,6.0487,6.2144,0.0,6.1506,5.8676,5.92,0.0,0.0,5.5964,5.603,0.0,0.0,0.0,0.0,0.0,0.0,0.0,0.0,0.0,0.0,4.3048,0.0,0.0,0.0,0.0,4.2148,0.0,0.0,0.0,0.0,0.0,0.0,0.0,0.0,0.0,0.0,0.0,0.0,4.2951,4.4277,0.0,0.0,4.9414,5.0831,0.0,5.1465,5.1914,5.0282,4.9766,4.9922,5.0762,5.082,5.1016,5.1377,5.1016,5.0801,5.0781,4.9922,4.9465,4.9445,4.9062,4.8913,4.8913,4.8913,4.9422,5.0156,5.0176,5.0664,5.1338,5.1338,5.1338,5.1299,5.0937,5.0781,5.084,0.0,0.0,0.0,3.8994,3.927,4.0199,4.261,4.3887,4.5242,4.7129,4.8661,0.0,0.0,5.2694,5.3708,0.0,0.0,5.5064,5.4346,5.4285,0.0,0.0,0.0,4.9766,0.0,0.0,4.6371,4.5969,4.5041,4.4719,4.492,4.492,4.5623,4.6948,4.9766,5.18,5.3306,5.5541,5.7876,0.0,0.0,6.0711,6.2333,0.0,5.934,5.8439,5.6763,5.568,0.0,5.3235,5.4412,5.5797,5.148,5.1536,5.2604,4.9579,4.8166,0.0,0.0,0.0,4.5723,4.4297,0.0,0.0,0.0,0.0,0.0,0.0,0.0,0.0,0.0,0.0,0.0,0.0,0.0,0.0,0.0,0.0,0.0,0.0,0.0,0.0,0.0,0.0,0.0,0.0,5.0391,0.0,4.9422,4.9453,4.9668,4.9941,5.0508,5.0879,5.1016,5.1152,5.1074,5.0801,5.0234,4.9805,4.9512,4.9062,4.8913,4.8913,4.918,4.9473,4.9785,5.0371,5.0762,5.1035,5.1328,5.1377,5.1358,5.1269,5.123,5.123,4.0275,0.0,3.9848,4.0174,4.0877,4.2082,4.4091,4.5522,4.6979,0.0,5.0293,0.0,5.3356,0.0,5.4511,0.0,5.5691,5.5691,5.5778,5.5717,0.0,5.4712,5.3432,0.0,0.0,0.0,0.0,0.0,4.6496,4.5673,4.5497,4.5698,4.6376,4.7475,4.9916,5.2201,5.4411,5.5867,5.7822,5.9843,0.0,5.8835,0.0,0.0,5.6529,5.7581,0.0,5.3126,5.232,5.0842,5.1878,5.3102,4.9067,4.9702,5.1459,4.894,4.832,4.8281,4.7578,4.748,0.0,4.5879,4.6035,0.0,4.4922,0.0,0.0,0.0,0.0,0.0,0.0,0.0,0.0,0.0,0.0,0.0,0.0,0.0,0.0,0.0,0.0,0.0,0.0,0.0,0.0,0.0,0.0,0.0,0.0,4.9453,4.959,4.9746,5.0293,5.0644,5.0801,5.123,5.124,5.1016,5.0605,5.0254,4.9961,4.9531,4.9382,4.9382,4.9473,4.9562,4.9805,5.0351,5.0664,5.084,5.1221,5.1377,5.1377,5.1377,5.1377,5.1377,4.1378,4.1428,4.1152,4.0149,4.1733,4.3693,4.5347,4.7908,4.9866,0.0,5.2955,5.4723,5.4798,5.5691,5.6344,5.6369,5.6369,5.6821,5.7876,5.6947,0.0,0.0,5.6319,5.5189,5.4697,0.0,0.0,0.0,0.0,4.7179,4.5673,4.62,4.7004,4.8109,4.9715,5.2277,5.5491,5.6373,5.706,5.7391,5.5702,5.5095,5.49,5.2021,5.3275,5.6087,5.2721,5.0355,4.8835,4.8835,4.8535,4.8203,4.8203,4.8223,4.8242,4.8242,4.8535,4.8815,4.8359,4.7949,4.7637,4.7662,4.7305,0.0,0.0,0.0,4.5625,0.0,0.0,0.0,0.0,0.0,0.0,0.0,0.0,0.0,0.0,0.0,0.0,0.0,0.0,0.0,0.0,0.0,0.0,0.0,0.0,0.0,0.0,4.9766,4.9726,5.0098,5.0156,5.0371,5.0781,5.1211,5.1377,5.1377,5.0996,5.0801,5.0781,5.0371,5.0176,5.0156,4.9746,4.9785,5.0176,5.0195,5.0449,5.0879,5.1221,5.1377,5.1377,5.1377,5.1377,5.1377,4.2484,4.3212,4.3812,4.3966,4.4468,4.5397,4.7029,4.8937,5.0845,0.0,5.4561,5.6269,5.7524,5.7901,5.8227,5.8629,5.8654,0.0,0.0,0.0,0.0,5.7926,5.6671,5.5942,5.5792,5.3507,0.0,5.1473,0.0,4.8736,4.7964,4.8083,4.8711,4.9791,5.0218,5.2503,5.5883,5.4119,5.3904,5.4596,5.3169,5.3888,5.5239,0.0,5.0812,5.3592,4.9936,4.8334,4.7955,4.7955,4.8047,4.8203,4.8203,4.8437,4.8737,4.8737,4.8815,4.8874,4.8776,4.8659,4.8503,4.8125,4.8203,4.8242,0.0,0.0,0.0,0.0,0.0,0.0,0.0,0.0,0.0,0.0,0.0,0.0,0.0,0.0,0.0,0.0,0.0,0.0,0.0,0.0,0.0,0.0,0.0,0.0,4.9285,0.0,4.9766,4.9265,4.9891,5.0234,5.0332,5.1074,5.1377,5.1377,5.0996,5.0801,5.0781,5.0371,5.0176,5.0176,5.0058,5.0078,5.0195,5.0508,5.0898,5.1289,5.1338,5.1377,5.1377,5.1377,5.1377,5.1377,4.4367,4.5121,4.5944,4.6808,4.733,4.7958,4.8862,5.0845,5.2929,5.4913,5.662,0.0,5.9243,5.8967,5.8792,5.9131,5.893,0.0,5.9056,0.0,0.0,5.8604,5.7775,5.7198,5.6947,5.4938,0.0,5.3181,0.0,5.0393,4.917,4.9389,4.9967,5.0762,5.0096,5.2332,5.6374,5.3868,5.3221,5.3766,5.0994,5.0883,0.0,4.8992,4.9171,5.0757,4.8847,4.819,4.819,4.819,4.8164,4.8203,4.8203,4.8379,4.8574,4.8574,4.8757,4.8913,4.8913,4.905,4.9043,4.8594,4.8828,4.9043,4.8594,4.7969,4.7617,0.0,0.0,0.0,0.0,0.0,0.0,0.0,0.0,0.0,0.0,0.0,0.0,0.0,0.0,0.0,0.0,0.0,0.0,0.0,0.0,0.0,0.0,0.0,4.9863,4.918,4.9824,5.0098,4.9902,5.0918,5.1299,5.1152,5.0918,5.0801,5.0781,5.0371,5.0273,5.0449,5.0254,5.0273,5.0469,5.0703,5.1055,5.1416,5.1836,5.1992,5.1992,5.1992,5.1758,5.1377,4.6527,4.7048,4.7851,4.8944,5.0142,5.0971,5.1046,5.3256,5.544,5.691,0.0,5.9659,6.006,5.9207,5.8604,5.8604,5.8177,5.8303,5.9232,5.8855,5.8855,5.9382,5.8905,5.8428,5.8001,5.6897,5.5842,0.0,0.0,5.2226,5.0243,5.067,5.1122,5.1557,5.0295,5.2187,5.6198,5.4092,5.3344,5.3164,4.9276,4.7656,4.7715,4.8125,4.8281,4.834,4.8776,4.8913,4.8913,4.8913,4.8659,4.8281,4.8281,4.8281,4.8281,4.8281,4.8555,4.8913,4.8913,4.9141,4.9336,4.8991,4.916,4.9355,4.907,4.8613,4.8437,4.8972,4.8047,4.7519,0.0,0.0,0.0,0.0,0.0,0.0,0.0,0.0,0.0,0.0,0.0,0.0,0.0,0.0,0.0,0.0,0.0,0.0,0.0,0.0,5.0058,4.9453,4.998,5.0058,4.9609,0.0,5.1201,5.0879,5.084,5.0801,5.0781,5.0371,5.041,5.0781,5.041,5.0508,5.0879,5.0879,5.1133,5.1601,5.2461,5.2754,5.2715,5.2715,5.2246,5.1533,4.7631,4.8837,0.0,0.0,5.2537,5.4019,5.4461,5.5691,5.6872,5.765,5.878,5.9382,5.9031,5.8428,5.8052,5.8052,5.7951,0.0,0.0,0.0,0.0,5.883,5.8328,5.8202,5.8541,5.7437,5.6759,0.0,0.0,5.4536,5.3718,5.3306,5.3181,5.3306,5.3508,5.3319,5.2752,5.1784,5.037,4.8766,4.8266,4.8105,4.8144,4.8574,4.8796,4.8796,4.8874,4.8913,4.8913,4.8913,4.8855,4.8796,4.8796,4.8796,4.8796,4.8796,4.8855,4.8913,4.8913,4.8952,4.9011,4.8933,4.8972,4.9043,4.9336,4.9062,4.9011,4.9832,4.9226,4.864,4.8855,0.0,0.0,0.0,0.0,0.0,0.0,0.0,0.0,0.0,0.0,0.0,0.0,0.0,0.0,0.0,0.0,0.0,0.0,0.0,5.0527,0.0,5.0098,0.0,0.0,0.0,5.1338,5.126,5.0976,5.0801,5.0781,5.0371,5.041,5.0801,5.0723,5.0937,5.128,5.128,5.1582,5.2051,5.296,5.3027,5.2715,5.2715,5.2617,5.2441,5.0092,0.0,0.0,0.0,5.4361,5.5942,5.6194,5.7161,5.8064,5.8654,5.9182,5.9408,5.9156,5.8403,5.8001,5.8303,5.8328,5.8428,5.8704,5.873,5.8855,5.9106,5.8604,5.8453,5.8666,5.7863,5.7286,5.6985,0.0,5.6118,5.4988,5.3835,5.329,5.3278,5.3302,5.233,5.0686,5.0379,0.0,4.9215,4.8269,4.8008,4.8262,4.8737,4.905,4.9199,4.9199,4.9355,4.9558,4.9277,4.9355,4.9578,4.9578,4.9578,4.9578,4.9578,4.9578,4.9578,4.9578,4.9578,4.9539,4.9258,4.9199,4.9199,4.918,4.907,4.9031,4.9441,4.9206,4.8913,4.8913,4.8008,0.0,0.0,0.0,0.0,0.0,0.0,0.0,0.0,0.0,0.0,0.0,0.0,0.0,0.0,0.0,0.0,0.0,0.0,5.0391,0.0,0.0,0.0,4.9539,0.0,0.0,5.0781,5.0586,5.0488,5.0449,4.9832,4.9726,5.0156,5.0371,5.0723,5.1133,5.1582,5.1894,5.2148,5.2773,5.3027,5.3047,5.3047,5.3203,5.3301,5.2004,5.3553,0.0,5.3754,5.5186,5.6501,5.6501,5.6977,5.7805,5.9166,5.8921,5.8575,5.8475,5.7298,5.6647,5.7088,5.7113,5.7285,5.7716,5.7741,5.7814,5.7913,5.7506,5.7334,5.7456,5.7162,5.6682,0.0,0.0,0.0,5.4119,5.3076,5.2664,5.2805,5.1882,5.0918,0.0,0.0,4.9717,5.0202,4.8538,4.8105,4.8516,4.8867,4.9219,4.9465,4.9414,4.9726,5.0117,4.9785,4.9902,5.0176,5.0176,5.0176,5.0176,5.0176,5.0176,5.0176,5.0176,5.0176,5.0098,4.9746,4.9668,4.9551,4.9101,4.905,4.9011,4.8933,4.8913,4.8933,4.9031,4.8633,0.0,0.0,0.0,0.0,0.0,0.0,0.0,0.0,0.0,0.0,0.0,0.0,0.0,0.0,0.0,0.0,5.0449,0.0,0.0,0.0,0.0,5.0117,4.9461,0.0,5.0723,5.0312,5.0215,5.0176,5.0156,4.9304,4.9101,4.9504,4.9883,5.0273,5.0723,5.1504,5.1855,5.1992,5.2402,5.2851,5.3273,5.3273,5.3496,5.3789,5.173,5.3936,5.5445,5.351,5.4143,5.4908,5.4908,5.375,5.4304,5.8257,5.7023,5.5595,5.5117,5.3204,5.1967,5.2013,5.2013,5.2035,5.2058,5.2081,5.2284,5.2777,5.2732,5.2935,5.3429,5.3795,5.375,0.0,0.0,5.2115,5.0049,5.1013,5.19,5.263,5.046,0.0,0.0,4.9027,4.8384,4.8482,4.8666,4.9004,4.9367,4.9453,4.9492,4.9473,4.9109,4.9519,5.0176,5.0137,5.0137,5.0176,5.0176,5.0176,5.0176,5.0176,5.0176,5.0176,5.0176,5.0176,5.0176,5.0137,5.0117,5.0,4.957,4.9426,4.9355,4.8991,4.8913,4.9031,4.9394,4.9101,4.9206,0.0,0.0,0.0,0.0,0.0,0.0,0.0,0.0,0.0,0.0,0.0,0.0,0.0,4.8073,0.0,0.0,0.0,0.0,5.1308,5.1308,5.1269,5.1191,5.126,5.1172,5.0742,5.0351,5.0176,5.0156,4.9304,4.9101,4.9484,4.957,4.9844,5.0273,5.0742,5.1152,5.1494,5.1973,5.2402,5.2773,5.2773,5.3047,5.3468,5.1171,5.2434,5.3397,5.1853,5.2802,5.3509,5.2809,5.2392,5.2812,5.452,5.3978,5.3234,5.2667,5.1825,5.1416,5.1747,5.1769,5.1903,5.2235,5.2257,5.2347,5.2589,5.2839,5.2992,5.288,5.3373,5.3488,0.0,0.0,0.0,5.2298,5.169,5.076,4.9589,0.0,4.8374,4.9176,4.7937,4.8047,4.8984,4.8906,4.9324,4.9883,4.9629,4.9687,4.9863,4.9414,4.9648,5.0176,5.0176,5.0508,5.0937,5.0937,5.0937,5.0937,5.0937,5.0937,5.0937,5.0937,5.0937,5.0859,5.0625,5.0547,5.0449,5.0019,4.9707,4.9426,4.9297,4.9043,4.905,4.9453,4.959,4.9726,0.0,0.0,0.0,0.0,0.0,0.0,0.0,0.0,0.0,0.0,0.0,0.0,0.0,0.0,0.0,0.0,0.0,0.0,5.1377,0.0,5.0937,5.0683,5.0937,5.084,5.043,5.0254,5.0176,5.0156,4.9304,4.9101,4.9484,4.9484,4.9785,5.0215,5.0625,5.0898,5.1094,5.1523,5.1953,5.2324,5.2324,5.2598,5.2969,5.0432,5.1338,5.1997,5.0425,5.1108,5.1611,5.0806,5.0498,5.0409,5.0409,5.0604,5.0725,5.0581,5.0223,5.0154,5.0539,5.069,5.0947,5.1334,5.1356,5.1356,5.1356,5.155,0.0,5.1356,5.1507,5.1658,5.1658,5.2025,0.0,5.1292,5.0153,4.886,0.0,4.7383,4.7578,4.8008,4.7793,4.832,4.9336,4.9394,4.9773,5.0137,4.9844,4.9824,4.9941,4.9492,4.9609,5.0,5.0137,5.0664,5.1201,5.1201,5.128,5.1377,5.1377,5.1377,5.1377,5.1377,5.1377,5.1319,5.1055,5.0996,5.0879,5.0449,5.0117,4.9824,4.9523,4.9277,4.9101,4.9297,4.9687,4.9961,4.9902,0.0,0.0,0.0,0.0,0.0,0.0,0.0,0.0,0.0,0.0,0.0,0.0,0.0,0.0,0.0,0.0,0.0,0.0,0.0,0.0,5.0547,5.0723,5.0664,5.0371,5.0371,5.0371,5.0332,4.9453,4.916,4.9336,4.9336,4.959,5.0019,5.0312,5.0586,5.084,5.1133,5.1504,5.1894,5.1894,5.2168,5.2519,4.9425,5.1101,5.2063,4.9468,4.9028,4.9028,4.9028,4.7511,4.6376,4.6376,4.712,4.7961,4.8755,4.7698,4.6958,4.6958,4.7394,4.7648,4.7648,4.7648,4.7648,0.0,0.0,4.7218,4.7648,4.7237,4.6958,4.6958,0.0,0.0,4.4537,4.4906,4.5957,4.7598,4.8008,4.7969,4.7676,4.8945,4.9258,4.9031,5.0273,5.0547,5.0176,5.0176,4.9902,4.9473,4.907,4.916,4.959,5.0039,5.0469,5.082,5.082,5.1094,5.1377,5.1377,5.1377,5.1377,5.1377,5.1377,5.1377,5.1377,5.1377,5.1308,5.0898,5.0801,5.0547,4.9707,4.9531,4.9394,4.8991,4.9238,4.9805,5.0664,0.0,0.0,0.0,0.0,0.0,0.0,0.0,5.0957,5.1319,0.0,0.0,0.0,0.0,0.0,0.0,0.0,0.0,5.2051,5.084,0.0,5.1358,5.1016,5.0801,5.0801,5.0801,5.0801,5.0762,4.9902,4.9277,4.8913,4.8913,4.9121,4.9484,4.9484,5.0039,5.0801,5.082,5.1074,5.1397,5.1397,5.1719,5.209,4.7592,4.7822,4.812,4.7287,4.7378,4.7578,4.7578,4.7361,4.7168,4.7168,4.7422,4.7671,4.7945,4.7632,4.7383,0.0,4.75,4.7578,0.0,4.7578,4.7578,4.7578,4.7715,4.7734,4.7578,4.7715,4.7793,4.7793,0.0,0.0,0.0,4.7715,4.793,4.8503,4.864,4.875,4.8945,4.9355,4.9785,5.0215,5.0644,5.0723,5.0586,5.0293,4.9902,4.9473,4.9023,4.8991,4.9101,4.9285,4.957,4.9941,4.9941,5.0577,5.1377,5.1377,5.1377,5.1377,5.1377,5.1377,5.1377,5.1377,5.1377,5.1358,5.1269,5.1016,5.0644,5.0078,4.9726,4.957,4.9726,4.9629,4.9707,5.0293,5.0371,0.0,5.0371,0.0,0.0,0.0,5.0371,5.043,0.0,5.084,0.0,0.0,0.0,0.0,0.0,0.0,0.0,0.0,5.0683,0.0,5.0996,5.0879,5.0801,5.0801,5.0801,5.0664,5.0371,5.0098,4.9902,4.9813,4.9813,4.9844,5.0,5.0273,5.0566,5.084,5.1113,5.1308,5.1377,5.1377,5.1475,5.1641,4.7086,4.6777,4.6777,4.6777,4.6992,4.7168,4.7168,4.7539,4.7812,4.7812,4.7994,4.8112,4.8112,4.8112,0.0,4.7832,4.7969,4.8112,4.8112,4.8112,4.8112,4.8112,4.8144,4.8164,4.8112,4.8008,0.0,4.8457,4.8887,4.9336,4.9766,4.9492,4.9258,4.9121,4.9324,4.9414,4.9504,4.9863,5.0234,5.0586,5.0742,5.0605,5.0293,5.0039,4.9668,4.9238,4.9011,4.8913,4.8933,4.9043,4.9297,4.9504,4.9726,5.0312,5.0957,5.0957,5.1074,5.1143,5.1143,5.126,5.1377,5.1377,5.1377,5.1377,5.1377,5.123,5.0918,5.0508,5.0195,5.0039,5.0156,5.0078,5.0098,5.0371,5.041,5.041,5.041,0.0,5.0644,0.0,0.0,0.0,0.0,5.0976,5.1094,0.0,0.0,0.0,0.0,0.0,0.0,5.0675,5.0215,0.0,5.0566,5.0723,5.0879,5.1035,5.1035,5.082,5.041,5.041,5.0332,5.0176,5.0176,5.0273,5.043,5.0703,5.0898,5.1074,5.128,5.1377,5.1377,5.1377,5.1377,5.1377,4.7578,4.7598,4.7617,4.7617,4.7656,4.7676,4.7676,4.8027,4.8301,4.8301,4.8672,4.8991,4.8991,4.8991,4.8835,4.8379,0.0,0.0,4.8913,4.8913,4.8913,4.8913,4.8476,4.8437,4.8894,4.8131,4.8112,4.8952,4.9316,4.9746,5.0176,5.0176,4.9961,4.959,5.0,4.9961,4.9582,5.043,5.0527,5.0215,5.0605,5.0273,4.9484,4.9484,4.9258,4.8913,4.8913,4.8933,4.9011,4.9394,4.9504,4.9601,5.0039,5.0176,5.0176,5.0176,5.0469,5.0801,5.0801,5.1113,5.1377,5.1377,5.1377,5.1377,5.1377,5.1377,5.128,5.0937,5.082,5.0683,5.0293,5.0527,5.0781,5.0801,5.0781,5.0781,5.0801,5.0449,5.0605,0.0,0.0,0.0,0.0,5.1484,5.1133,0.0,0.0,0.0,0.0,0.0,5.0811,4.9609,4.9504,4.9746,5.0215,5.0605,5.1016,5.1377,5.1377,5.1182,5.0859,5.0859,5.0644,5.0273,5.0273,5.0488,5.0859,5.0859,5.1074,5.1377,5.1377,5.1377,5.1377,5.1377,5.1377,5.1377,4.7578,4.7832,4.8066,4.8066,4.834,4.86,4.86,4.8926,4.9172,4.9172,4.959,4.9863,4.9863,4.9863,4.9824,4.9726,4.9226,4.8913,4.8913,4.8913,4.8913,4.8913,4.8796,4.8796,4.8913,4.8698,4.8828,4.9375,4.9426,4.9746,5.0176,5.0176,5.0117,5.0039,5.0137,5.0117,5.0039,5.0234,5.0273,5.0195,5.0293,5.0,4.9484,4.9484,4.9258,4.8913,4.8913,4.9128,4.9394,4.9445,4.9746,5.0039,5.0137,5.0176,5.0176,5.0176,5.0469,5.0801,5.0801,5.1113,5.1377,5.1377,5.1377,5.1377,5.1377,5.1377,5.1358,5.126,5.1035,5.0781,5.0683,5.0469,5.043,5.0762,5.0527,5.0449,5.0762,5.0449,5.0176,0.0,5.0039,4.9883,4.9695,4.9578,4.9844,0.0,0.0,5.0937,5.1221,5.1338,5.0996,5.0058,4.9707,4.9883,5.0644,5.0762,5.1016,5.1377,5.1377,5.1338,5.1289,5.1289,5.123,5.1133,5.1133,5.1191,5.1289,5.1289,5.1299,5.1377,5.1377,5.1377,5.1377,5.1377,5.1377,5.1377,4.8209,4.8516,4.8808,4.8808,4.918,4.95,4.95,4.9668,4.9824,4.9824,5.0039,5.0176,5.0176,5.0176,5.0176,5.0176,4.9793,4.95,4.95,4.95,4.95,4.95,4.9277,4.916,4.916,4.9011,4.9128,4.9484,4.9726,4.9941,5.0176,5.0176,5.0176,5.0176,5.0176,5.0176,5.0176,5.0176,5.0058,4.9902,5.0098,4.9922,4.9504,4.9746,4.9668,4.95,4.95,4.9609,4.9824,4.9824,4.998,5.0176,5.0176,5.0176,5.0176,5.0176,5.0469,5.0801,5.0801,5.1113,5.1377,5.1377,5.1377,5.1377,5.1377,5.1377,5.1377,5.1377,5.125,5.1094,5.1094,5.0898,5.082,5.1055,5.0742,5.0605,5.1035,5.0723,5.0449,5.0362,5.0343,5.0215,4.9785,4.9746,5.0039,5.0762,5.0801,0.0,5.1133,5.1152,5.0859,5.0195,5.0137,5.0332,5.0801,5.0996,5.1211,5.1377,5.1377,5.1377,5.1377,5.1377,5.1377,5.1377,5.1377,5.1377,5.1397,5.1641,5.1719,5.1758,5.1933,5.1962,5.1962,5.1962,5.1962,5.1962,4.9089,4.9355,4.9629,4.9629,4.9941,5.0176,5.0176,5.0234,5.0273,5.0273,5.0332,5.0371,5.0371,5.0371,5.0371,5.0371,5.0371,5.0312,5.0243,5.0176,5.0176,5.0176,4.9824,4.9629,4.9629,4.9258,4.9277,4.9726,5.0019,5.0215,5.0273,5.0215,5.0176,5.0176,5.0117,5.0117,5.0223,5.0098,4.9902,4.9648,5.0039,4.9961,4.9668,5.0039,5.0176,5.0176,5.0176,5.0215,5.0273,5.0273,5.0312,5.0371,5.0371,5.0371,5.0371,5.0371,5.0625,5.0879,5.082,5.1113,5.1377,5.1377,5.1377,5.1377,5.1377,5.1377,5.1377,5.1377,5.1377,5.1377,5.1377,5.1377,5.1455,5.1699,5.1211,5.0996,5.1494,5.1094,5.084,5.1191,5.125,5.1094,5.0742,5.0703,5.0703,5.0703,5.0781,5.0801,5.0801,5.0859,5.0742,5.0371,5.0644,5.084,5.0898,5.1201,5.1377,5.1377,5.1377,5.1377,5.1377,5.1455,5.1523,5.1523,5.1553,5.1621,5.166,5.2031,5.2187,5.2207,5.2578,5.2715,5.2715,5.2715,5.2715,5.2715,4.9902,5.0019,5.0078,5.0078,5.0137,5.0176,5.0176,5.0488,5.0703,5.0703,5.1016,5.1182,5.1182,5.1182,5.1182,5.1182,5.1182,5.0937,5.0215,5.0176,5.0176,5.0176,5.0117,5.0078,5.0078,5.0019,5.0176,5.0605,5.0312,5.0351,5.0703,5.0351,5.0176,5.0156,4.9785,4.9844,5.0156,4.9785,4.9805,5.0078,5.0156,5.0137,5.0078,5.0156,5.0176,5.0176,5.0176,5.041,5.0703,5.0703,5.0937,5.1182,5.1182,5.1182,5.1182,5.1182,5.1289,5.1201,5.0898,5.1113,5.1377,5.1377,5.1377,5.1377,5.1377,5.1377,5.1377,5.1377,5.1377,5.1377,5.1377,5.1377,5.1797,5.294,5.1797,5.1211,5.2344,5.1211,5.0293,5.0371,5.0371,5.0351,5.0273,5.0273,5.0273,5.0273,5.0605,5.0801,5.0801,5.1133,5.126,5.123,5.0957,5.0976,5.128,5.1358,5.1377,5.1377,5.1377,5.1377,5.1397,5.1816,5.1973,5.1992,5.2363,5.2519,5.2519,5.2578,5.2617,5.2617,5.2695,5.2715,5.2715,5.2715,5.2715,5.2715,5.0137,5.0351,5.0508,5.0508,5.0703,5.0859,5.0859,5.1016,5.1133,5.1133,5.126,5.1377,5.1377,5.1377,5.1377,5.1377,5.1377,5.1221,5.0879,5.0859,5.0859,5.0859,5.0644,5.041,5.0176,5.0176,5.0273,5.0469,5.0273,5.0273,5.0469,5.0273,5.0176,5.0176,4.9961,5.0,5.0176,4.9961,5.0,5.0195,5.043,5.0508,5.0547,5.0762,5.0859,5.0859,5.0859,5.0976,5.1133,5.1133,5.1269,5.1377,5.1377,5.1377,5.1377,5.1377,5.1377,5.1338,5.1191,5.1289,5.1377,5.1377,5.1377,5.1377,5.1377,5.1377,5.1377,5.1377,5.1377,5.1377,5.1377,5.1377,5.1621,5.2226,5.166,5.1348,5.1933,5.1348,5.0859,5.0859,5.0859,5.0859,5.0859,5.0859,5.0859,5.0859,5.1035,5.1133,5.1133,5.128,5.1377,5.1377,5.125,5.1182,5.1377,5.1377,5.1543,5.1777,5.1777,5.1894,5.2129,5.2324,5.2422,5.2422,5.2617,5.2715,5.2734,5.2969,5.3066,5.3086,5.332,5.3418,5.3418,5.3418,5.3418,5.3418,5.0449,5.0723,5.0957,5.0957,5.1162,5.1377,5.1377,5.1377,5.1377,5.1377,5.1377,5.1377,5.1377,5.1377,5.1377,5.1377,5.1377,5.1377,5.1377,5.1377,5.1377,5.1377,5.1113,5.0801,5.0469,5.0469,5.0469,5.0469,5.0371,5.0371,5.0469,5.0371,5.0371,5.0469,5.0469,5.0527,5.0625,5.0508,5.0527,5.0644,5.0859,5.0957,5.0976,5.126,5.1377,5.1377,5.1377,5.1377,5.1377,5.1377,5.1377,5.1377,5.1377,5.1377,5.1377,5.1377,5.1377,5.1377,5.1377,5.1377,5.1377,5.1377,5.1377,5.1377,5.1377,5.1377,5.1377,5.1377,5.1377,5.1377,5.1377,5.1377,5.1475,5.1836,5.1572,5.1494,5.1836,5.1621,5.1377,5.1377,5.1377,5.1377,5.1377,5.1377,5.1377,5.1377,5.1377,5.1377,5.1377,5.1377,5.1436,5.1582,5.1436,5.1436,5.1582,5.1582,5.1797,5.2226,5.2226,5.2402,5.2715,5.2812,5.2871,5.2871,5.2969,5.3008,5.3047,5.3379,5.3516,5.3555,5.3887,5.3972,5.3972,5.3972,5.3972,5.3972,5.1269,5.1319,5.1338,5.1338,5.1358,5.1377,5.1377,5.1377,5.1377,5.1377,5.1377,5.1377,5.1377,5.1377,5.1377,5.1377,5.1377,5.1377,5.1377,5.1377,5.1377,5.1377,5.1358,5.1319,5.1299,5.1299,5.1299,5.1299,5.0957,5.0957,5.128,5.0937,5.0957,5.1299,5.1299,5.1562,5.1914,5.1504,5.1562,5.1914,5.1543,5.1338,5.1338,5.1377,5.1377,5.1377,5.1377,5.1377,5.1377,5.1377,5.1377,5.1377,5.1377,5.1377,5.1377,5.1377,5.1377,5.1377,5.1377,5.1377,5.1377,5.1377,5.1377,5.1377,5.1377,5.1377,5.1377,5.1377,5.1377,5.1377,5.1377,5.1377,5.1816,5.3077,5.2207,5.1855,5.3097,5.2187,5.1377,5.1377,5.1377,5.1377,5.1377,5.1377,5.1377,5.1377,5.1377,5.1377,5.1377,5.1377,5.1621,5.2031,5.1641,5.1621,5.2031,5.2031,5.2246,5.2656,5.2656,5.2676,5.2715,5.3125,5.3371,5.339,5.375,5.3875,5.3926,5.3914,5.3984,5.3984,5.3972,5.3972,5.3972,5.3972,5.3972,5.3972,5.1358,5.1377,5.1377,5.1377,5.1377,5.1377,5.1377,5.1377,5.1377,5.1377,5.1377,5.1377,5.1377,5.1377,5.1377,5.1377,5.1377,5.1377,5.1377,5.1377,5.1377,5.1377,5.1377,5.1377,5.1377,5.1699,5.1836,5.1836,5.1933,5.207,5.2226,5.207,5.207,5.2226,5.2226,5.2324,5.2461,5.2285,5.2324,5.2461,5.2285,5.2226,5.2226,5.2226,5.2226,5.2226,5.2226,5.2226,5.2226,5.2226,5.2226,5.2226,5.2226,5.2226,5.2226,5.2226,5.2226,5.2226,5.2226,5.1787,5.1377,5.1377,5.1377,5.1377,5.1377,5.1377,5.1377,5.1377,5.1377,5.1377,5.1377,5.1377,5.1553,5.209,5.1758,5.1601,5.209,5.1738,5.1377,5.1377,5.1377,5.1377,5.1377,5.1377,5.1377,5.1377,5.1377,5.1543,5.1816,5.209,5.2305,5.2461,5.2305,5.2305,5.2461,5.2461,5.2676,5.3105,5.3105,5.3262,5.3535,5.3711,5.3769,5.3789,5.3914,5.3972,5.3972,5.3972,5.3972,5.3972,5.3972,5.3972,5.3972,5.3972,5.3972,5.3972,5.1377,5.1377,5.1377,5.1377,5.1377,5.1377,5.1377,5.1377,5.1377,5.1377,5.1377,5.1377,5.1377,5.1377,5.1377,5.1377,5.1377,5.1377,5.1377,5.1377,5.1377,5.1377,5.1562,5.1641,5.1641,5.2051,5.2285,5.2285,5.2558,5.2773,5.291,5.291,5.2988,5.3125,5.3125,5.3125,5.3125,5.2969,5.291,5.291,5.2754,5.2715,5.2715,5.2715,5.2715,5.2715,5.2715,5.2715,5.2715,5.2715,5.2715,5.2715,5.2715,5.2715,5.2715,5.2715,5.2715,5.2715,5.2715,5.2285,5.1836,5.1836,5.1836,5.1836,5.1836,5.1836,5.1836,5.1836,5.1836,5.1836,5.1836,5.1836,5.1836,5.1836,5.1836,5.1728,5.166,5.1641,5.1582,5.1397,5.1377,5.1436,5.1621,5.1641,5.1699,5.1816,5.1836,5.1973,5.2266,5.2558,5.2773,5.291,5.291,5.2988,5.3125,5.2988,5.3144,5.3574,5.3574,5.373,5.3972,5.3972,5.3972,5.3972,5.3972,5.3972,5.3972,5.3972,5.3972,5.3972,5.3972,5.3972,5.3972,5.3972,5.3972,5.3972,5.1377,5.1377,5.1377,5.1377,5.1377,5.1377,5.1377,5.1377,5.1377,5.1377,5.1377,5.1377,5.1377,5.1377,5.1377,5.1377,5.1377,5.1377,5.1397,5.1397,5.1397,5.1397,5.1855,5.209,5.209,5.25,5.2715,5.2715,5.2715,5.2949,5.341,5.341,5.3613,5.3972,5.3972,5.3972,5.3953,5.3555,5.341,5.3371,5.2891,5.2715,5.2715,5.2715,5.2715,5.2715,5.2715,5.2715,5.2715,5.2715,5.2715,5.2715,5.2715,5.2715,5.2715,5.2715,5.2715,5.2715,5.2715,5.2715,5.2715,5.2715,5.2715,5.2715,5.2715,5.2715,5.2715,5.2715,5.2715,5.2715,5.2715,5.2715,5.2715,5.2715,5.2715,5.2558,5.2148,5.209,5.1933,5.1484,5.1397,5.1601,5.2051,5.209,5.2266,5.2676,5.2715,5.2715,5.2715,5.2715,5.291,5.341,5.341,5.3574,5.3972,5.3594,5.3594,5.3972,5.3972,5.3972,5.3972,5.3972,5.3972,5.3972,5.3972,5.3972,5.3972,5.3972,5.3972,5.3972,5.3972,5.3972,5.3972,5.3972,5.3972,5.3972,5.1377,5.1377,5.1377,5.1377,5.1377,5.1377,5.1377,5.1377,5.1377,5.1377,5.1377,5.1377,5.1377,5.1377,5.1377,5.1377,5.1377,5.1562,5.1875,5.1894,5.2012,5.2324,5.2168,5.2226,5.2519,5.2949,5.3164,5.3164,5.3476,5.3711,5.3828,5.3828,5.3906,5.3972,5.3972,5.3972,5.3972,5.3887,5.3828,5.3808,5.3691,5.3633,5.3633,5.3633,5.3633,5.3633,5.3633,5.3633,5.3633,5.3633,5.3633,5.3633,5.3633,5.3633,5.3633,5.3633,5.3633,5.3633,5.3633,5.3633,5.3476,5.2871,5.2715,5.2715,5.2715,5.2715,5.2715,5.2715,5.2715,5.2715,5.2715,5.2715,5.2715,5.2715,5.2715,5.2656,5.2539,5.2519,5.248,5.2344,5.2324,5.2383,5.2519,5.2519,5.2578,5.2695,5.2988,5.3164,5.3164,5.3457,5.3691,5.3828,5.3828,5.3887,5.3972,5.3887,5.3887,5.3972,5.3972,5.3972,5.3972,5.3972,5.3972,5.3972,5.3972,5.3972,5.3972,5.3972,5.3972,5.3972,5.3972,5.3972,5.3972,5.3972,5.3972,5.3972,5.1377,5.1377,5.1377,5.1377,5.1377,5.1377,5.1377,5.1377,5.1377,5.1377,5.1377,5.1377,5.1377,5.1377,5.1377,5.1377,5.1582,5.1797,5.207,5.2246,5.2519,5.2949,5.2715,5.2715,5.2969,5.3398,5.3633,5.3633,5.3887,5.3972,5.3972,5.3972,5.3972,5.3972,5.3972,5.3972,5.3972,5.3972,5.3972,5.3972,5.3972,5.3972,5.3972,5.3972,5.3972,5.3972,5.3972,5.3972,5.3972,5.3972,5.3972,5.3972,5.3972,5.3972,5.3972,5.3972,5.3972,5.3972,5.3972,5.3906,5.3672,5.332,5.3223,5.3223,5.3223,5.3223,5.3223,5.3223,5.3223,5.3223,5.3223,5.3223,5.3223,5.3223,5.3223,5.3164,5.2988,5.2969,5.291,5.2734,5.2558,5.2519,5.2695,5.2715,5.2851,5.3203,5.3476,5.3633,5.3633,5.3887,5.3972,5.3972,5.3972,5.3972,5.3972,5.3972,5.3972,5.3972,5.3972,5.3972,5.3972,5.3972,5.3972,5.3972,5.3972,5.3972,5.3972,5.3972,5.3972,5.3972,5.3972,5.3972,5.3972,5.3972,5.3972,5.3972,5.1377,5.1377,5.1377,5.1377,5.1377,5.1377,5.1377,5.1377,5.1377,5.1377,5.1377,5.1377,5.1377,5.1377,5.1397,5.1436,5.1894,5.2148,5.2187,5.2558,5.2969,5.3449,5.3468,5.3468,5.3468,5.3828,5.3972,5.3972,5.3972,5.3972,5.3972,5.3972,5.3972,5.3972,5.3972,5.3972,5.3972,5.3972,5.3972,5.3972,5.3972,5.3972,5.3972,5.3972,5.3972,5.3972,5.3972,5.3972,5.3972,5.3972,5.3972,5.3972,5.3972,5.3972,5.3972,5.3972,5.3953,5.3933,5.3972,5.3711,5.3527,5.3926,5.3953,5.3965,5.3965,5.3965,5.3965,5.3965,5.3894,5.3926,5.3965,5.3894,5.3855,5.3855,5.3945,5.3828,5.3468,5.3449,5.3331,5.2871,5.248,5.2383,5.2734,5.2734,5.3047,5.3797,5.3855,5.3855,5.3855,5.3894,5.3965,5.3965,5.3953,5.3972,5.3972,5.3972,5.3972,5.3972,5.3972,5.3972,5.3972,5.3972,5.3953,5.3965,5.3965,5.3894,5.3855,5.3855,5.3855,5.3855,5.3914,5.3965,5.3965,5.3965,5.3965,5.3965,5.1377,5.1377,5.1377,5.1377,5.1377,5.1377,5.1377,5.1377,5.1377,5.1377,5.1377,5.1377,5.1377,5.1377,5.1562,5.1914,5.2324,5.2715,5.3116,5.3214,5.3418,5.3867,5.3887,5.3887,5.3887,5.3984,5.3972,5.3972,5.3972,5.3972,5.3972,5.3972,5.3972,5.3972,5.3972,5.3972,5.3972,5.3972,5.3972,5.3972,5.3972,5.3972,5.3972,5.3972,5.3972,5.3972,5.3972,5.3972,5.3972,5.3972,5.3972,5.3972,5.3972,5.3972,5.3972,5.3972,5.3789,5.3574,5.3926,5.3711,5.3527,5.3926,5.3769,5.3496,5.3496,5.3496,5.3496,5.3496,5.3242,5.3105,5.3437,5.3223,5.2988,5.2988,5.3281,5.3527,5.3429,5.3652,5.3848,5.375,5.3672,5.3516,5.3242,5.291,5.2793,5.2988,5.2988,5.2988,5.2988,5.332,5.3496,5.3496,5.3848,5.3972,5.3972,5.3972,5.3972,5.3972,5.3972,5.3972,5.3972,5.3972,5.3848,5.3496,5.3496,5.3301,5.2988,5.2988,5.2988,5.3027,5.3379,5.3496,5.3496,5.3496,5.3496,5.3457,5.1377,5.1377,5.1377,5.1377,5.1377,5.1377,5.1377,5.1377,5.1455,5.1719,5.1738,5.1816,5.2012,5.2051,5.2129,5.2363,5.2773,5.3125,5.339,5.3555,5.3789,5.3972,5.3972,5.3972,5.3972,5.3972,5.3972,5.3972,5.3972,5.3972,5.3972,5.3972,5.3972,5.3972,5.3972,5.3972,5.3972,5.3972,5.3972,5.3972,5.3972,5.3972,5.3972,5.3972,5.3972,5.3972,5.3972,5.3972,5.3972,5.3972,5.3972,5.3972,5.3972,5.3972,5.3972,5.3972,5.3867,5.373,5.3914,5.3711,5.3527,5.3926,5.3535,5.3164,5.3574,5.3359,5.3105,5.3371,5.3183,5.3086,5.3371,5.3359,5.334,5.334,5.3535,5.3613,5.3449,5.3555,5.3711,5.3711,5.3535,5.3398,5.341,5.2969,5.2793,5.3008,5.2832,5.2715,5.2715,5.293,5.3047,5.3047,5.3281,5.3398,5.3398,5.3398,5.3398,5.3398,5.3613,5.3711,5.3711,5.3496,5.3281,5.3047,5.3047,5.293,5.2715,5.2715,5.2715,5.2734,5.2949,5.3047,5.3047,5.3047,5.3047,5.3008,5.1377,5.1377,5.1377,5.1377,5.1484,5.1543,5.1543,5.1601,5.1777,5.2148,5.2187,5.2324,5.2676,5.2773,5.2812,5.2812,5.3223,5.3476,5.3476,5.3828,5.3972,5.3972,5.3972,5.3972,5.3972,5.3972,5.3972,5.3972,5.3972,5.3972,5.3972,5.3972,5.3972,5.3972,5.3972,5.3972,5.3972,5.3972,5.3972,5.3972,5.3972,5.3972,5.3972,5.3972,5.3972,5.3972,5.3972,5.3972,5.3972,5.3972,5.3972,5.3972,5.3972,5.3972,5.3972,5.3972,5.3965,5.3926,5.3953,5.3711,5.3507,5.3828,5.3301,5.293,5.373,5.3301,5.2812,5.3183,5.3292,5.3312,5.339,5.3594,5.3758,5.3758,5.3867,5.3789,5.3468,5.3468,5.3488,5.3429,5.291,5.2734,5.3155,5.2754,5.2637,5.3058,5.2695,5.248,5.248,5.2558,5.2598,5.2598,5.2676,5.2715,5.2715,5.2715,5.2715,5.2715,5.3008,5.3234,5.3292,5.2871,5.2676,5.2598,5.2598,5.2558,5.248,5.248,5.248,5.25,5.2578,5.2598,5.2598,5.2598,5.2558,5.248,5.1377,5.1377,5.1377,5.1377,5.1738,5.1992,5.1992,5.2305,5.2558,5.2617,5.2617,5.2637,5.2695,5.3047,5.3331,5.3331,5.3672,5.3945,5.3945,5.3953,5.3972,5.3972,5.3972,5.3972,5.3972,5.3972,5.3972,5.3972,5.3972,5.3972,5.3972,5.3972,5.3972,5.3972,5.3972,5.3972,5.3972,5.3972,5.3972,5.3972,5.3972,5.3972,5.3972,5.3972,5.3972,5.3972,5.3972,5.3972,5.3972,5.3972,5.3972,5.3972,5.3972,5.3972,5.3972,5.3972,5.375,5.3586,5.3926,5.3711,5.3429,5.3488,5.3086,5.2832,5.334,5.3066,5.2734,5.2793,5.2793,5.291,5.3331,5.3105,5.2891,5.2891,5.3203,5.3468,5.3429,5.3691,5.3789,5.3449,5.2656,5.2187,5.2246,5.1855,5.1572,5.1699,5.1592,5.1553,5.1553,5.1953,5.2168,5.2168,5.2519,5.2715,5.2715,5.2715,5.2715,5.2695,5.2402,5.2441,5.2793,5.2734,5.2519,5.2168,5.2168,5.1953,5.1553,5.1553,5.1553,5.1641,5.2012,5.2168,5.2168,5.2168,5.1933,5.1553,5.1377,5.1377,5.1455,5.1758,5.1953,5.2168,5.2402,5.2598,5.2793,5.3047,5.3066,5.3164,5.3418,5.3613,5.373,5.373,5.3926,5.3972,5.3972,5.3972,5.3972,5.3972,5.3972,5.3972,5.3972,5.3972,5.3972,5.3972,5.3972,5.3972,5.3972,5.3972,5.3972,5.3972,5.3972,5.3972,5.3972,5.3972,5.3972,5.3972,5.3972,5.3972,5.3972,5.3972,5.3972,5.3972,5.3972,5.3972,5.3972,5.3972,5.3972,5.3972,5.3972,5.3972,5.3972,5.3972,5.3887,5.3769,5.3965,5.3887,5.373,5.373,5.3398,5.3175,5.3371,5.3253,5.3066,5.3066,5.2871,5.2851,5.3331,5.3253,5.3144,5.3398,5.3613,5.3652,5.3449,5.3535,5.3574,5.3429,5.3242,5.3164,5.3164,5.2773,5.2402,5.2168,5.1933,5.168,5.1397,5.1621,5.1719,5.1719,5.1894,5.1992,5.1992,5.1992,5.1992,5.1992,5.1797,5.1933,5.2344,5.2109,5.1894,5.1719,5.1719,5.1738,5.1797,5.1797,5.1933,5.2148,5.209,5.1933,5.1719,5.1719,5.1601,5.1377]},{"header":{"parameterUnit":"m.s-1","parameterCategory":1,"la1":30.6,"la2":28.766,"lo1":-90.7593,"lo2":-88.6598,"dx":0.0162,"dy":0.0183,"nx":116,"ny":114,"refTime":"2022-11-17T18:00:00:Z","depth":0,"parameterNumber":3,"parameterNumberName":"V-component_of_WINDS"},"data":[0.0,0.0,0.0,0.0,0.0,0.0,0.0,0.0,0.0,0.0,0.0,0.0,0.0,0.0,0.0,0.0,0.0,0.0,0.0,0.0,0.0,0.0,0.0,0.0,0.0,0.0,0.0,0.0,0.0,0.0,0.0,0.0,0.0,0.0,0.0,0.0,0.0,0.0,0.0,0.0,0.0,0.0,0.0,0.0,0.0,0.0,0.0,0.0,0.0,0.0,0.0,0.0,0.0,0.0,0.0,0.0,0.0,0.0,0.0,0.0,0.0,0.0,0.0,0.0,0.0,0.0,0.0,0.0,0.0,0.0,0.0,0.0,0.0,0.0,0.0,0.0,0.0,0.0,0.0,0.0,0.0,0.0,0.0,0.0,0.0,0.0,0.0,0.0,0.0,0.0,0.0,0.0,0.0,0.0,0.0,0.0,0.0,0.0,0.0,0.0,0.0,0.0,0.0,0.0,0.0,0.0,0.0,0.0,0.0,0.0,0.0,0.0,0.0,0.0,0.0,0.0,0.0,0.0,0.0,0.0,0.0,0.0,0.0,0.0,0.0,0.0,0.0,0.0,0.0,0.0,0.0,0.0,0.0,0.0,0.0,0.0,0.0,0.0,0.0,0.0,0.0,0.0,0.0,0.0,0.0,0.0,0.0,0.0,0.0,0.0,0.0,0.0,0.0,0.0,0.0,0.0,0.0,0.0,0.0,0.0,0.0,0.0,0.0,0.0,0.0,0.0,0.0,0.0,0.0,0.0,0.0,0.0,0.0,0.0,0.0,0.0,0.0,0.0,0.0,0.0,0.0,0.0,0.0,0.0,0.0,0.0,0.0,0.0,0.0,0.0,0.0,0.0,0.0,0.0,0.0,0.0,0.0,0.0,0.0,0.0,0.0,0.0,0.0,0.0,0.0,0.0,0.0,0.0,0.0,0.0,0.0,0.0,0.0,0.0,0.0,0.0,0.0,0.0,0.0,0.0,0.0,0.0,0.0,0.0,0.0,0.0,0.0,0.0,0.0,0.0,0.0,0.0,0.0,0.0,0.0,0.0,0.0,0.0,0.0,0.0,0.0,0.0,0.0,0.0,0.0,0.0,0.0,0.0,0.0,0.0,0.0,0.0,0.0,0.0,0.0,0.0,0.0,0.0,0.0,0.0,0.0,0.0,0.0,0.0,0.0,0.0,0.0,0.0,0.0,0.0,0.0,0.0,0.0,0.0,0.0,0.0,0.0,0.0,0.0,0.0,0.0,0.0,0.0,0.0,0.0,0.0,0.0,0.0,0.0,0.0,0.0,0.0,0.0,0.0,0.0,0.0,0.0,0.0,0.0,0.0,0.0,0.0,0.0,0.0,0.0,0.0,0.0,0.0,0.0,0.0,0.0,0.0,0.0,0.0,0.0,0.0,0.0,0.0,0.0,0.0,0.0,0.0,0.0,0.0,0.0,0.0,0.0,0.0,0.0,0.0,0.0,0.0,0.0,0.0,0.0,0.0,0.0,0.0,0.0,0.0,0.0,0.0,0.0,0.0,0.0,0.0,0.0,0.0,0.0,0.0,0.0,0.0,0.0,0.0,0.0,0.0,0.0,0.0,0.0,0.0,0.0,0.0,0.0,0.0,0.0,0.0,0.0,0.0,0.0,0.0,0.0,0.0,0.0,0.0,0.0,0.0,0.0,0.0,0.0,0.0,0.0,0.0,0.0,0.0,0.0,0.0,0.0,0.0,0.0,0.0,0.0,0.0,0.0,0.0,0.0,0.0,0.0,0.0,0.0,0.0,0.0,0.0,0.0,0.0,0.0,0.0,0.0,0.0,0.0,0.0,0.0,0.0,0.0,0.0,0.0,0.0,0.0,0.0,0.0,0.0,0.0,0.0,0.0,0.0,0.0,0.0,0.0,0.0,0.0,0.0,0.0,0.0,0.0,0.0,0.0,0.0,0.0,0.0,0.0,0.0,0.0,0.0,0.0,0.0,0.0,0.0,0.0,0.0,0.0,0.0,0.0,0.0,0.0,0.0,0.0,0.0,0.0,0.0,0.0,0.0,0.0,0.0,0.0,0.0,0.0,0.0,0.0,0.0,0.0,0.0,0.0,0.0,0.0,0.0,0.0,0.0,0.0,0.0,0.0,0.0,0.0,0.0,0.0,0.0,0.0,0.0,0.0,0.0,0.0,0.0,0.0,0.0,0.0,0.0,0.0,0.0,0.0,0.0,0.0,0.0,0.0,0.0,0.0,0.0,0.0,0.0,0.0,0.0,0.0,0.0,0.0,0.0,0.0,0.0,0.0,0.0,0.0,0.0,0.0,0.0,0.0,0.0,0.0,0.0,0.0,0.0,0.0,0.0,0.0,0.0,0.0,0.0,0.0,0.0,0.0,0.0,0.0,0.0,0.0,0.0,0.0,0.0,0.0,0.0,0.0,0.0,0.0,0.0,0.0,0.0,0.0,0.0,0.0,0.0,0.0,0.0,0.0,0.0,0.0,0.0,0.0,0.0,0.0,0.0,0.0,0.0,0.0,0.0,0.0,0.0,0.0,0.0,0.0,0.0,0.0,0.0,0.0,0.0,0.0,0.0,0.0,0.0,0.0,0.0,0.0,0.0,0.0,0.0,0.0,0.0,0.0,0.0,0.0,0.0,0.0,0.0,0.0,0.0,0.0,0.0,0.0,0.0,0.0,0.0,0.0,0.0,0.0,0.0,0.0,0.0,0.0,0.0,0.0,0.0,0.0,0.0,0.0,0.0,0.0,0.0,0.0,0.0,0.0,0.0,0.0,0.0,0.0,0.0,0.0,0.0,0.0,0.0,0.0,0.0,0.0,0.0,0.0,0.0,0.0,0.0,0.0,0.0,0.0,0.0,0.0,0.0,0.0,0.0,0.0,0.0,0.0,0.0,0.0,0.0,0.0,0.0,0.0,0.0,0.0,0.0,0.0,0.0,0.0,0.0,0.0,0.0,0.0,0.0,0.0,0.0,0.0,0.0,0.0,0.0,0.0,0.0,0.0,0.0,0.0,0.0,0.0,0.0,0.0,0.0,0.0,0.0,0.0,0.0,0.0,0.0,0.0,0.0,0.0,0.0,0.0,0.0,0.0,0.0,0.0,0.0,0.0,0.0,0.0,0.0,0.0,0.0,0.0,0.0,0.0,0.0,0.0,0.0,0.0,0.0,0.0,0.0,0.0,0.0,0.0,0.0,0.0,0.0,0.0,0.0,0.0,0.0,0.0,0.0,0.0,0.0,0.0,0.0,0.0,0.0,0.0,0.0,0.0,0.0,0.0,0.0,0.0,0.0,0.0,0.0,0.0,0.0,0.0,0.0,0.0,0.0,0.0,0.0,0.0,0.0,0.0,0.0,0.0,0.0,0.0,0.0,0.0,0.0,0.0,0.0,0.0,0.0,0.0,0.0,0.0,0.0,0.0,0.0,0.0,0.0,0.0,0.0,0.0,0.0,0.0,0.0,0.0,0.0,0.0,0.0,0.0,0.0,0.0,0.0,0.0,0.0,0.0,0.0,0.0,0.0,0.0,0.0,0.0,0.0,0.0,0.0,0.0,0.0,0.0,0.0,0.0,0.0,0.0,0.0,0.0,0.0,0.0,0.0,0.0,0.0,0.0,0.0,0.0,0.0,0.0,0.0,0.0,0.0,0.0,0.0,0.0,0.0,0.0,0.0,0.0,0.0,0.0,0.0,0.0,0.0,0.0,0.0,0.0,0.0,0.0,0.0,0.0,0.0,0.0,0.0,0.0,0.0,0.0,0.0,0.0,0.0,0.0,0.0,0.0,0.0,0.0,0.0,0.0,0.0,0.0,0.0,0.0,0.0,0.0,0.0,0.0,0.0,0.0,0.0,0.0,0.0,0.0,0.0,0.0,0.0,0.0,0.0,0.0,0.0,0.0,0.0,0.0,0.0,0.0,0.0,0.0,0.0,0.0,0.0,0.0,0.0,0.0,0.0,0.0,0.0,0.0,0.0,0.0,0.0,0.0,0.0,0.0,0.0,0.0,0.0,0.0,0.0,0.0,0.0,0.0,0.0,0.0,0.0,0.0,0.0,0.0,0.0,0.0,0.0,0.0,0.0,0.0,0.0,0.0,0.0,0.0,0.0,0.0,0.0,0.0,0.0,0.0,0.0,0.0,0.0,0.0,0.0,0.0,0.0,0.0,0.0,0.0,0.0,0.0,0.0,0.0,0.0,0.0,0.0,0.0,0.0,0.0,0.0,0.0,0.0,0.0,0.0,0.0,0.0,0.0,0.0,0.0,0.0,0.0,0.0,0.0,0.0,0.0,0.0,0.0,0.0,0.0,0.0,0.0,0.0,0.0,0.0,0.0,0.0,0.0,0.0,0.0,0.0,0.0,0.0,0.0,0.0,0.0,0.0,0.0,0.0,0.0,0.0,0.0,0.0,0.0,0.0,0.0,0.0,0.0,0.0,0.0,0.0,0.0,0.0,0.0,0.0,0.0,0.0,0.0,0.0,0.0,0.0,0.0,0.0,0.0,0.0,0.0,0.0,0.0,0.0,0.0,0.0,0.0,0.0,0.0,0.0,0.0,0.0,0.0,0.0,0.0,0.0,0.0,0.0,0.0,0.0,0.0,0.0,0.0,0.0,0.0,0.0,0.0,0.0,0.0,0.0,0.0,0.0,0.0,0.0,0.0,0.0,0.0,0.0,0.0,0.0,0.0,0.0,0.0,0.0,0.0,0.0,0.0,0.0,0.0,0.0,0.0,0.0,0.0,0.0,0.0,0.0,0.0,0.0,0.0,0.0,0.0,0.0,0.0,0.0,0.0,0.0,0.0,0.0,0.0,0.0,0.0,0.0,0.0,0.0,0.0,0.0,0.0,0.0,0.0,0.0,0.0,0.0,0.0,0.0,0.0,0.0,0.0,0.0,0.0,0.0,0.0,0.0,0.0,0.0,0.0,0.0,0.0,0.0,0.0,0.0,0.0,0.0,0.0,0.0,0.0,0.0,0.0,0.0,0.0,0.0,0.0,0.0,0.0,0.0,0.0,0.0,0.0,0.0,0.0,0.0,0.0,0.0,0.0,0.0,0.0,0.0,0.0,0.0,0.0,0.0,0.0,0.0,0.0,0.0,0.0,0.0,0.0,0.0,0.0,0.0,0.0,0.0,0.0,0.0,0.0,0.0,0.0,0.0,0.0,0.0,0.0,0.0,0.0,0.0,0.0,0.0,0.0,0.0,0.0,0.0,0.0,0.0,0.0,0.0,0.0,0.0,0.0,0.0,0.0,0.0,0.0,0.0,0.0,0.0,0.0,0.0,0.0,0.0,0.0,0.0,0.0,0.0,0.0,0.0,0.0,0.0,0.0,0.0,0.0,0.0,0.0,0.0,0.0,0.0,0.0,0.0,0.0,0.0,0.0,0.0,0.0,0.0,0.0,0.0,0.0,0.0,0.0,0.0,0.0,0.0,0.0,0.0,0.0,0.0,0.0,0.0,0.0,0.0,0.0,0.0,0.0,0.0,0.0,0.0,0.0,0.0,0.0,0.0,0.0,0.0,0.0,0.0,0.0,0.0,0.0,0.0,0.0,0.0,0.0,0.0,0.0,0.0,0.0,0.0,0.0,0.0,0.0,0.0,0.0,0.0,0.0,0.0,0.0,0.0,0.0,0.0,0.0,0.0,0.0,0.0,0.0,0.0,0.0,0.0,0.0,0.0,0.0,0.0,0.0,0.0,0.0,0.0,0.0,0.0,0.0,0.0,0.0,0.0,0.0,0.0,0.0,0.0,0.0,0.0,0.0,0.0,0.0,0.0,0.0,0.0,0.0,0.0,0.0,0.0,0.0,0.0,0.0,0.0,0.0,0.0,0.0,0.0,0.0,0.0,0.0,0.0,0.0,0.0,0.0,0.0,0.0,0.0,0.0,0.0,0.0,0.0,0.0,0.0,0.0,0.0,0.0,0.0,0.0,0.0,0.0,0.0,0.0,0.0,0.0,0.0,0.0,0.0,0.0,0.0,0.0,0.0,0.0,0.0,0.0,0.0,0.0,0.0,0.0,0.0,0.0,0.0,0.0,0.0,0.0,0.0,0.0,0.0,0.0,0.0,0.0,0.0,0.0,0.0,0.0,0.0,0.0,0.0,0.0,0.0,3.2667,0.0,0.0,0.0,0.0,0.0,0.0,0.0,0.0,0.0,0.0,0.0,0.0,0.0,0.0,0.0,0.0,0.0,0.0,0.0,0.0,0.0,0.0,0.0,0.0,2.1036,2.1635,2.1585,2.1944,0.0,0.0,0.0,0.0,0.0,0.0,0.0,2.2073,2.371,2.4739,2.5039,2.6979,2.9132,3.1404,2.9668,2.7991,2.6435,0.0,0.0,0.0,0.0,0.0,0.0,0.0,0.0,0.0,0.0,0.0,0.0,0.0,0.0,0.0,0.0,0.0,0.0,0.0,0.0,0.0,0.0,0.0,0.0,0.0,0.0,0.0,0.0,0.0,0.0,0.0,0.0,0.0,0.0,0.0,0.0,0.0,0.0,0.0,0.0,0.0,0.0,0.0,0.0,0.0,0.0,0.0,0.0,0.0,0.0,0.0,0.0,0.0,0.0,0.0,0.0,0.0,0.0,0.0,0.0,0.0,0.0,0.0,0.0,0.0,0.0,0.0,0.0,0.0,0.0,0.0,3.3897,0.0,0.0,0.0,0.0,0.0,0.0,0.0,0.0,0.0,0.0,0.0,0.0,0.0,0.0,0.0,0.0,0.0,0.0,0.0,0.0,0.0,2.1605,2.2583,2.3092,2.3531,2.3909,2.3591,2.3601,2.4088,2.3909,0.0,0.0,0.0,0.0,2.4309,2.6255,2.7662,2.8453,3.1316,3.3439,3.4863,3.5759,3.4322,3.0895,2.9442,0.0,0.0,0.0,0.0,0.0,0.0,0.0,0.0,0.0,0.0,0.0,0.0,0.0,0.0,0.0,0.0,0.0,0.0,0.0,0.0,0.0,0.0,0.0,0.0,0.0,0.0,0.0,0.0,0.0,0.0,0.0,0.0,0.0,0.0,0.0,0.0,0.0,0.0,0.0,0.0,0.0,0.0,0.0,0.0,0.0,0.0,0.0,0.0,0.0,0.0,0.0,0.0,0.0,0.0,0.0,0.0,0.0,0.0,0.0,0.0,0.0,0.0,0.0,4.3633,4.3345,4.2028,4.4123,4.4089,4.2206,3.9516,3.7961,3.7264,3.6555,0.0,0.0,0.0,0.0,0.0,0.0,0.0,0.0,0.0,0.0,0.0,0.0,0.0,0.0,0.0,0.0,0.0,0.0,0.0,2.3082,2.2733,2.4739,2.5884,2.5364,2.5794,2.6135,2.6195,2.5124,0.0,0.0,0.0,2.6465,2.7046,2.9009,3.0612,3.1854,3.5639,3.7045,3.6284,3.8045,3.7985,3.6297,3.4428,3.344,3.3051,0.0,0.0,0.0,0.0,0.0,0.0,0.0,0.0,0.0,0.0,0.0,0.0,0.0,0.0,0.0,0.0,0.0,0.0,0.0,0.0,0.0,0.0,0.0,0.0,0.0,0.0,0.0,0.0,0.0,0.0,0.0,0.0,0.0,0.0,0.0,0.0,0.0,0.0,0.0,0.0,0.0,3.3554,3.4102,0.0,0.0,0.0,0.0,0.0,0.0,0.0,0.0,0.0,0.0,0.0,0.0,0.0,4.218,4.2445,4.3565,4.4462,4.5122,4.5743,4.6198,4.654,4.6883,4.6867,4.659,4.612,0.0,4.109,4.2158,0.0,0.0,0.0,0.0,0.0,0.0,0.0,0.0,0.0,0.0,0.0,0.0,0.0,0.0,0.0,0.0,0.0,0.0,0.0,0.0,0.0,2.7692,2.8996,2.9431,2.9744,2.9774,2.9371,2.9162,0.0,0.0,2.9192,2.9894,2.9804,3.2108,3.4322,3.637,3.8871,3.9996,3.9865,4.1414,4.1634,4.0677,3.981,3.7404,3.3889,3.3081,0.0,0.0,0.0,0.0,0.0,0.0,0.0,0.0,0.0,0.0,0.0,0.0,0.0,0.0,0.0,0.0,0.0,0.0,0.0,0.0,0.0,0.0,0.0,0.0,0.0,0.0,0.0,0.0,0.0,0.0,0.0,0.0,0.0,0.0,0.0,0.0,0.0,0.0,0.0,3.4415,3.6044,3.7269,3.7043,3.6872,0.0,0.0,0.0,0.0,0.0,0.0,0.0,0.0,0.0,4.4299,4.5132,4.6377,4.8132,4.7892,4.8077,4.874,4.8605,4.8282,4.7903,4.9013,4.8688,4.7325,4.8837,4.8387,4.6414,4.5594,4.4618,4.3585,0.0,0.0,0.0,0.0,4.0503,4.0632,0.0,0.0,0.0,0.0,0.0,0.0,0.0,0.0,0.0,0.0,0.0,0.0,2.877,3.0313,3.1599,3.2422,3.2662,3.2691,3.2527,3.2811,3.2647,3.1809,3.2916,3.329,3.2796,3.5383,3.7883,4.0157,4.1474,4.2391,4.29,4.4018,4.4296,4.3818,4.3818,4.0816,3.5775,3.5775,3.4801,3.323,0.0,0.0,0.0,0.0,0.0,0.0,0.0,0.0,0.0,0.0,0.0,0.0,0.0,0.0,0.0,0.0,0.0,0.0,0.0,0.0,0.0,0.0,0.0,0.0,0.0,0.0,0.0,0.0,0.0,0.0,0.0,0.0,0.0,0.0,0.0,0.0,0.0,3.8156,3.949,4.0813,4.0967,4.0976,0.0,0.0,0.0,0.0,0.0,0.0,4.4881,4.5598,4.6849,4.8646,4.8851,5.0188,5.2695,5.1535,5.1475,5.2486,5.1624,5.0882,5.0276,5.1606,5.1116,4.9303,5.1336,5.1954,5.1279,4.8881,4.7687,4.7384,4.7241,4.6901,4.6336,4.5482,4.5175,4.5282,0.0,0.0,0.0,0.0,0.0,0.0,0.0,0.0,0.0,0.0,0.0,2.9458,2.9548,3.1823,3.3125,3.2542,3.3095,3.3993,3.522,3.4727,3.4667,3.5204,3.5908,3.6284,3.6254,3.8811,4.0816,4.2261,4.3539,4.4177,4.4207,4.4915,4.5214,4.5185,4.5185,4.4008,4.1841,3.9948,3.8721,3.7841,3.5356,0.0,0.0,0.0,0.0,0.0,0.0,0.0,0.0,0.0,0.0,0.0,0.0,0.0,0.0,0.0,0.0,0.0,0.0,0.0,0.0,0.0,0.0,0.0,0.0,0.0,0.0,0.0,0.0,0.0,0.0,0.0,0.0,0.0,0.0,0.0,0.0,0.0,0.0,4.5938,4.6476,0.0,0.0,0.0,0.0,4.882,4.7856,4.7961,4.9729,4.9895,5.0544,5.1936,5.2563,5.3305,5.4102,5.3384,5.4037,5.5923,5.461,5.4645,5.5761,5.5214,5.4919,5.4793,5.4919,5.4974,5.4779,5.2759,5.1218,5.0039,4.956,4.8215,4.6643,4.7101,4.7272,4.7412,0.0,0.0,0.0,1.931,2.0268,2.1285,2.2183,2.4159,2.5615,2.5914,2.8803,3.0807,3.0807,3.3933,3.6267,3.6879,3.835,3.9068,3.8691,3.9248,3.9308,3.8691,3.9308,4.0038,4.0857,4.1784,4.294,4.4277,4.5155,4.5583,4.5613,4.6711,4.698,4.6621,4.704,4.6352,4.4796,4.2771,4.1305,4.0206,3.8859,3.6985,0.0,0.0,0.0,0.0,0.0,0.0,0.0,0.0,0.0,0.0,0.0,0.0,0.0,0.0,0.0,0.0,0.0,0.0,0.0,0.0,0.0,0.0,0.0,0.0,0.0,0.0,0.0,0.0,0.0,0.0,0.0,0.0,0.0,0.0,0.0,0.0,0.0,4.6869,4.7908,0.0,4.9247,4.9613,5.0032,5.0481,5.087,5.1588,5.2701,5.2761,5.3414,5.4725,5.5025,5.5444,5.6047,5.5807,5.6072,5.6765,5.6286,5.6316,5.6765,5.6526,5.6406,5.6406,5.6406,5.6406,5.6346,5.5628,5.4598,5.3444,5.3232,5.3006,5.2731,5.2378,5.2233,5.2263,0.0,0.0,0.0,1.9708,2.0996,2.2243,2.2902,2.5237,2.7081,2.7517,3.0448,3.2751,3.3424,3.643,3.8763,3.966,4.1564,4.2241,4.1164,4.2301,4.2521,4.1444,4.2222,4.3329,4.4625,4.4865,4.5613,4.6929,4.7407,4.7736,4.7975,4.8865,4.8925,4.8304,4.8745,4.8327,4.7219,4.5642,4.3988,4.2282,4.1433,3.9787,3.7644,0.0,0.0,0.0,0.0,0.0,0.0,0.0,0.0,0.0,0.0,0.0,0.0,0.0,0.0,0.0,0.0,0.0,0.0,0.0,0.0,0.0,0.0,0.0,0.0,0.0,0.0,0.0,0.0,0.0,0.0,0.0,0.0,0.0,0.0,4.5783,4.7399,4.7608,4.8985,4.9935,4.9935,5.1109,5.1977,5.2193,5.3443,5.4581,5.5478,5.5538,5.6047,5.7124,5.718,5.7479,5.8112,5.7872,5.7992,5.8441,5.7992,5.7902,5.8082,5.7872,5.7782,5.7782,5.7782,5.7782,5.7782,5.7782,5.7393,5.6795,5.6346,5.6585,5.7109,5.653,5.6324,5.6324,0.0,0.0,1.9708,1.9738,2.1385,2.2932,2.355,2.5937,2.859,3.1122,3.3275,3.5266,3.7195,3.923,4.0457,4.0487,4.2263,4.313,4.253,4.3688,4.4147,4.3469,4.4736,4.6022,4.7339,4.8027,4.8985,5.0226,5.0255,5.0637,5.1265,5.1295,5.0996,5.0345,5.0315,4.9972,4.9359,4.8648,4.683,4.4296,4.305,4.1733,4.0277,0.0,0.0,0.0,0.0,0.0,0.0,0.0,0.0,0.0,0.0,0.0,0.0,0.0,0.0,0.0,0.0,0.0,0.0,0.0,0.0,0.0,0.0,0.0,0.0,0.0,0.0,0.0,0.0,0.0,0.0,0.0,0.0,0.0,4.66,4.8117,4.9127,4.8528,5.0122,5.1265,5.1325,5.2516,5.3563,5.4251,5.5508,5.6821,5.8085,5.8145,5.8474,5.9159,5.9189,5.9518,6.0174,5.9548,5.9907,6.1194,5.9907,5.9608,6.0234,5.9578,5.9279,5.9279,5.9279,5.9279,5.9249,5.9249,5.9638,6.0057,5.871,5.8563,5.9159,5.9189,5.9219,5.9219,1.9708,1.9708,1.9848,2.0339,2.2054,2.358,2.4227,2.7021,2.9458,3.0628,3.3365,3.5789,3.7255,4.0056,4.2032,4.2472,4.4326,4.5194,4.4547,4.6193,4.713,4.692,4.775,4.8379,4.8738,4.9374,5.0099,5.0936,5.1917,5.2456,5.2665,5.3653,5.4012,5.3773,5.2815,5.2007,5.1319,5.0159,4.8716,4.713,4.6292,4.4586,4.2442,0.0,0.0,0.0,0.0,0.0,0.0,0.0,0.0,0.0,0.0,0.0,0.0,0.0,0.0,0.0,0.0,0.0,0.0,0.0,0.0,0.0,0.0,0.0,0.0,0.0,0.0,0.0,0.0,0.0,0.0,0.0,4.9015,5.0099,4.9262,5.0009,5.096,5.1761,5.2306,5.3025,5.4012,5.4875,5.5623,5.6256,5.7094,5.8171,5.9488,5.9548,5.9847,6.0535,6.1014,6.1343,6.1553,6.2271,6.2839,6.3199,6.3319,6.3469,6.3648,6.3439,6.3379,6.3379,6.3379,6.308,6.266,6.266,6.275,6.269,6.0416,5.9967,6.0625,6.1104,6.1583,6.2,1.9708,1.9708,1.9998,2.0937,2.2503,2.3939,2.4874,2.738,2.9817,3.1539,3.3933,3.6537,3.9218,4.1444,4.315,4.4057,4.5194,4.5822,4.5723,4.707,4.8117,4.8708,4.9314,5.0186,5.1234,5.2451,5.3552,5.4452,5.5804,5.6173,5.5707,5.6473,5.6661,5.6357,5.5035,5.4206,5.3766,5.2425,5.0936,4.9494,4.9105,4.7168,4.4536,4.4237,4.31,4.1425,4.0127,3.9738,3.972,3.905,0.0,0.0,0.0,0.0,0.0,0.0,0.0,0.0,0.0,0.0,0.0,0.0,0.0,0.0,0.0,0.0,0.0,0.0,0.0,0.0,0.0,0.0,0.0,0.0,5.1768,5.2845,5.2725,5.2576,5.2636,5.3139,5.3707,5.4221,5.473,5.6107,5.7124,5.7483,5.8653,5.9967,6.1311,6.1371,6.1762,6.2691,6.3109,6.3318,6.3318,6.4066,6.4425,6.4425,6.4815,6.4994,6.5024,6.5293,6.5413,6.5413,6.5742,6.5622,6.5263,6.5263,6.5263,0.0,0.0,0.0,0.0,0.0,6.3558,6.3887,1.9708,1.9768,2.0208,2.1495,2.2802,2.4148,2.5393,2.738,2.9864,3.3066,3.4801,3.7375,4.1811,4.303,4.3997,4.5185,4.5424,4.5906,4.6761,4.7254,4.8249,4.9944,5.0569,5.2056,5.4612,5.6427,5.7997,5.9396,6.0549,6.0654,5.9668,5.9526,5.9111,5.8503,5.6981,5.6268,5.6113,5.4794,5.315,5.1535,5.1445,4.9441,4.645,4.5873,4.4825,4.3519,4.2432,4.1624,4.0995,4.0468,0.0,0.0,0.0,0.0,0.0,0.0,0.0,0.0,0.0,0.0,0.0,0.0,0.0,0.0,0.0,0.0,0.0,0.0,0.0,0.0,0.0,0.0,0.0,0.0,5.4456,5.5593,5.6312,5.5388,5.4431,5.3803,5.473,5.5239,5.482,5.6918,5.8384,5.8534,6.0328,6.1972,6.3257,6.3317,0.0,0.0,0.0,6.5233,6.5233,6.5383,6.5443,6.5443,6.5443,6.5443,6.5473,6.6071,6.634,6.637,6.6969,6.7208,6.7208,6.7208,6.7208,6.7029,6.5084,6.4755,6.5323,6.5323,6.5383,6.5443,1.9708,2.0148,2.0757,2.1545,2.321,2.4664,2.5483,2.7769,3.0386,3.3125,3.5579,3.8212,4.1254,4.3569,4.5005,4.5274,4.6292,4.78,4.9857,4.9321,5.0584,5.4314,5.4776,5.62,5.8792,5.8757,5.9912,6.2377,6.2108,6.2393,6.3177,6.2091,6.1525,6.1288,5.8252,5.6921,5.6787,5.495,5.3982,5.3593,5.3025,5.0863,4.7908,4.778,4.689,4.5762,4.6052,4.5753,4.5224,4.5613,4.5155,4.4227,4.3549,4.2641,0.0,0.0,0.0,0.0,0.0,0.0,0.0,0.0,0.0,0.0,0.0,0.0,0.0,0.0,0.0,0.0,0.0,0.0,0.0,5.3862,5.5119,5.6432,5.7573,5.7487,5.7307,5.7158,5.6915,5.7094,5.8052,5.9099,6.0146,6.1253,6.263,6.3797,6.4575,6.4605,6.4725,6.4994,6.6071,6.661,6.661,6.7687,6.8226,6.8226,0.0,0.0,6.8226,6.8375,6.8435,6.8435,6.8555,6.8615,6.8615,6.8615,6.8615,6.8465,6.6999,6.6819,6.7449,6.7449,6.7747,6.8226,2.0198,2.0458,2.1116,2.2413,2.3719,2.4933,2.5944,2.7812,2.9924,3.2183,3.4502,3.7075,4.0068,4.2731,4.4566,4.5244,4.683,4.8421,4.9853,5.0712,5.2653,5.605,5.6664,5.8163,6.0792,6.1276,6.264,6.4981,6.5456,6.5638,6.5662,6.4956,6.4478,6.3996,6.1665,6.0197,5.9439,5.7837,5.6405,5.5119,5.4486,5.3025,5.1139,5.0122,4.9112,4.8215,4.7908,4.7578,4.7309,4.7309,4.686,4.6232,4.5933,4.5364,4.4517,0.0,0.0,0.0,0.0,0.0,0.0,0.0,0.0,0.0,0.0,0.0,0.0,0.0,0.0,5.1505,5.2522,0.0,5.473,5.6406,5.7214,5.7992,5.8949,5.9967,6.0116,5.877,5.8919,5.9368,6.0057,6.1283,6.2331,6.2989,6.3947,6.4964,6.5951,6.6011,6.6311,6.6999,6.7657,6.7986,6.7986,6.8675,6.9004,6.9004,6.9004,6.9004,6.9004,6.9333,6.9482,6.9512,6.9812,6.9961,6.9961,6.9961,6.9961,6.9871,6.9213,6.8764,6.8495,6.8495,6.8704,6.9004,2.1057,2.1086,2.1565,2.3161,2.4077,2.5023,2.6213,2.7649,2.9282,3.1241,3.3245,3.5655,3.8673,4.1365,4.3628,4.5413,4.7341,4.8877,4.9716,5.1873,5.4387,5.7257,5.8001,5.9621,6.2432,6.3529,6.5126,6.7252,6.8232,6.8272,6.7492,6.7073,6.6562,6.591,6.4256,6.2881,6.1734,6.0316,5.8486,5.6521,5.5837,5.5179,5.4371,5.2492,5.1206,5.0278,4.9224,4.8708,4.8438,4.7997,4.7698,4.7489,4.7489,4.7489,4.716,4.5394,4.5274,0.0,0.0,0.0,0.0,0.0,0.0,0.0,0.0,4.8985,5.0145,5.1146,5.2336,5.3683,5.5448,5.5867,5.6675,5.8919,5.9398,5.9757,6.0565,6.218,6.251,6.0505,6.1104,6.1704,6.1824,6.3288,6.4306,6.4545,6.5203,6.6131,6.7328,6.7388,6.7867,6.8974,6.9123,6.9183,6.9183,6.9303,6.9363,6.9363,6.9363,6.9363,6.9393,6.9931,7.0171,7.0201,7.0679,7.0889,7.0889,7.0889,7.0889,7.0889,7.0769,7.0111,6.9213,6.9333,6.9363,6.9363,2.2373,2.2493,2.2553,2.2763,2.3819,2.4844,2.5603,2.735,2.9282,3.1241,3.3245,3.5296,3.7404,4.0008,4.2938,4.6265,4.8168,5.0172,5.2394,5.3117,5.5296,5.9525,6.0059,6.1857,6.5172,6.4895,6.6057,6.8842,6.7755,6.781,6.8827,6.6976,6.6077,6.5854,6.2745,6.1249,6.0986,5.9136,5.8154,5.7816,5.7154,5.6496,5.5833,5.4401,5.2701,5.1056,5.0936,5.0152,4.9247,4.971,4.9112,4.8199,4.8199,4.8199,4.8027,4.7219,4.701,4.689,4.6001,4.6352,4.7519,4.983,4.9673,4.9875,0.0,5.2995,5.2576,5.5025,5.6047,5.6795,5.7606,5.8261,5.8949,5.9817,6.0505,6.1313,6.2599,6.3408,6.4006,6.4306,6.3947,6.3917,6.4516,6.4755,6.5383,6.658,6.7299,6.7986,6.8734,6.8764,6.8854,6.9004,6.9572,6.9903,6.9903,7.041,7.0679,7.0679,7.0679,7.0679,7.0679,7.0769,7.0799,7.0799,7.0859,7.0889,7.0889,7.0889,7.0889,7.0859,7.029,6.9991,6.9931,7.05,7.0679,7.0679,2.2643,2.2972,2.3231,2.3231,2.4317,2.5274,2.5573,2.732,2.9026,3.0253,3.1779,3.3349,3.4951,3.8512,4.1723,4.3988,4.6251,4.8376,5.0274,5.2416,5.5357,5.9276,5.9771,6.136,6.4356,6.3907,6.4983,6.776,6.7599,6.7669,6.7913,6.7046,6.6026,6.4816,6.3439,6.1928,6.0431,5.9599,5.8603,5.7453,5.6825,5.6432,5.6042,5.47,5.3683,5.2791,5.1624,5.1109,0.0,5.0817,5.0159,4.9471,4.9883,4.9733,4.9262,4.8626,4.8716,4.9022,4.9112,4.9351,4.992,5.1409,5.1977,5.2576,5.4251,5.485,5.5478,5.7004,5.7812,5.8471,5.9129,5.9488,6.0146,6.1611,6.2061,6.272,6.4036,6.4755,6.5413,6.6071,6.6251,6.6281,6.6191,6.652,6.7148,6.8076,6.8405,6.8854,6.9542,6.9572,6.9722,7.0081,7.038,7.053,7.053,7.0769,7.0709,7.038,7.038,7.0171,6.9782,6.9782,6.9782,6.9782,6.9782,6.9782,6.9782,6.9782,6.9782,6.9782,6.9512,6.9423,6.9453,6.9692,6.9782,6.9782,2.2942,2.3291,2.361,2.361,2.4556,2.5393,2.5573,2.7141,2.856,2.9249,3.0283,3.1615,3.3305,3.7395,4.0561,4.1842,4.4711,4.7037,4.8368,5.1502,5.473,5.7861,5.8458,6.0044,6.2835,6.2557,6.3626,6.6183,6.6745,6.6791,6.6411,6.626,6.5288,6.3714,6.3211,6.1806,5.9799,5.9269,5.8171,5.6821,5.6192,5.5923,5.5773,5.4431,5.3922,5.3683,5.1834,5.1648,5.2067,5.1206,5.0607,5.0338,5.0996,5.0757,5.0189,5.0145,5.0541,5.1116,5.1594,5.2037,5.2456,5.3144,5.4162,5.5089,5.5478,5.6346,5.7393,5.8441,5.889,5.9428,6.0446,6.0625,6.1224,6.3049,6.3498,6.4066,6.5383,6.6131,6.6789,6.7478,6.7987,6.8167,6.7837,6.8107,6.8525,6.9213,6.9273,6.9542,7.0201,7.0081,7.0201,7.0649,7.047,7.038,7.038,7.038,7.0141,6.9722,6.9722,6.9453,6.9004,6.9004,6.9004,6.9004,6.9004,6.9004,6.9004,6.9004,6.9004,6.8974,6.8794,6.8704,6.8704,6.8525,6.8675,6.9004,2.358,2.358,2.361,2.361,2.4167,2.4844,2.5513,2.6764,2.7884,2.8547,2.9249,3.0626,3.3215,3.6839,3.9529,4.0735,4.4487,4.7249,4.8331,5.087,5.3275,5.5341,5.6359,5.8284,6.1298,6.1361,6.2443,6.4681,6.4681,6.4695,6.4667,6.412,6.3529,6.2749,6.1001,5.9818,5.9012,5.7102,5.6303,5.6162,5.5504,5.5209,5.5059,5.3737,5.3228,5.3049,5.1708,5.1648,5.2007,5.0697,5.0196,5.0338,5.0996,5.0757,5.0458,5.1738,5.2576,5.3109,5.3139,5.4097,5.5239,5.5923,5.6551,5.7363,5.865,5.7992,5.7663,5.9608,5.9548,5.9697,6.1672,6.2032,6.245,6.3767,6.4516,6.5383,6.6759,6.7538,6.8197,6.8854,6.8944,6.9213,6.9842,6.9333,6.9243,6.9901,6.9961,7.0231,7.0829,7.032,7.0023,7.0053,6.9393,6.9064,6.9064,6.9064,6.9064,6.9034,6.9034,6.9034,6.9004,6.9004,6.9004,6.9004,6.9004,6.9004,6.9004,6.9004,6.9004,6.8944,6.8287,6.8047,6.7958,6.7329,6.7867,6.9004,2.361,2.361,2.361,2.361,2.4526,2.5334,2.5573,2.6363,2.7333,2.8457,2.9189,0.0,0.0,0.0,0.0,0.0,4.1043,4.3676,4.6305,4.8336,5.0741,5.3653,5.4298,5.558,5.7609,5.8263,5.9109,6.0138,6.0933,6.0931,6.028,5.9633,5.9011,5.8348,5.7306,5.648,5.5794,5.514,5.461,5.4156,5.3473,5.3498,5.3827,5.3378,5.3198,5.3079,0.0,5.1738,5.1468,5.1026,5.1146,5.1624,5.2306,5.2695,5.294,5.3414,5.4311,5.5085,5.4665,5.5448,5.6615,5.7304,5.7962,5.877,6.0116,6.0086,6.0326,6.2271,6.1822,6.1553,6.3079,6.3348,6.3647,6.4516,6.5203,6.6131,6.7479,6.7868,6.8407,6.9512,6.9662,6.9722,6.9993,6.9752,6.9722,6.9961,7.0023,6.9871,6.9662,6.9453,6.9333,6.9333,6.9123,6.9004,6.9004,6.9004,6.8764,6.8347,6.7867,6.7657,6.7687,6.8106,6.8347,6.8345,6.8794,6.9004,6.9004,6.9004,6.9004,6.8974,6.8734,6.8645,6.8645,6.8405,6.8615,6.8944,2.361,2.361,2.361,2.361,2.4317,0.0,0.0,0.0,0.0,0.0,0.0,0.0,0.0,0.0,0.0,0.0,0.0,4.1018,4.3515,4.5575,4.7823,5.0329,5.1577,5.2753,5.3929,5.5489,5.652,5.7004,5.7937,5.8199,5.7847,5.7051,5.6231,5.5389,5.4745,5.3982,5.309,5.2851,5.2935,5.3049,5.1439,5.1618,5.2725,5.1821,5.1312,0.0,5.1163,5.072,5.0242,5.0697,5.1295,5.1917,5.2336,5.3114,5.3982,5.47,5.5837,5.6825,5.6645,5.7723,5.8919,5.9102,5.9877,6.0745,6.1613,6.1642,6.1882,6.3348,6.2839,6.248,6.3767,6.4006,6.4306,6.5203,6.5712,6.655,6.8167,6.8377,6.8856,7.0141,7.0111,7.0023,7.0023,6.9752,6.9602,6.9632,6.9632,6.9453,6.9034,6.8764,6.8645,6.8645,6.8405,6.8286,6.8286,6.8286,6.8166,6.7987,6.7568,6.7478,6.7717,6.8167,6.8377,6.8407,6.8794,6.9004,6.9004,6.9004,6.9004,6.9004,6.9004,6.9004,6.9004,6.9004,6.9153,6.9243,2.361,2.361,2.361,0.0,0.0,0.0,0.0,0.0,0.0,0.0,0.0,0.0,0.0,0.0,0.0,0.0,0.0,0.0,4.0257,4.2776,4.4655,4.5696,4.8293,4.9901,5.0301,5.2963,5.4544,5.4985,5.5547,5.6211,5.692,5.5995,5.4892,5.3661,5.3118,5.2187,5.0966,5.0338,5.1146,5.263,4.9486,4.9703,5.1678,4.9194,4.7848,4.7489,4.8768,4.8828,4.8446,4.971,5.0667,5.1325,5.1505,5.2426,5.3827,5.5773,5.7214,5.8354,5.9039,6.0625,6.1972,6.1403,6.2211,6.3168,6.3227,6.272,6.2421,6.3108,6.272,6.263,6.3827,6.4066,6.4515,6.5802,6.6041,6.6759,6.8734,6.9004,6.9453,7.0709,7.035,6.9961,6.9903,6.9303,6.8944,6.8914,6.8944,6.8944,6.8884,6.8317,6.7958,6.7958,6.7328,6.6999,6.6999,6.7029,6.7389,6.8047,6.8047,6.8375,6.9004,6.9034,6.9064,6.9064,6.9093,6.9093,6.9093,6.9093,6.9093,6.9093,6.9093,6.9093,6.9093,6.9093,6.9482,6.9963,0.0,0.0,0.0,0.0,0.0,0.0,0.0,0.0,0.0,0.0,0.0,0.0,0.0,0.0,0.0,0.0,0.0,0.0,3.9204,4.0634,4.2075,4.3521,4.5738,4.6848,4.6661,4.9387,5.0339,4.9375,5.0348,5.0745,5.0596,4.9843,4.9587,4.9738,4.9081,4.8626,4.8297,4.8095,4.8356,4.8686,4.7369,4.7497,4.8476,4.7818,4.7459,4.7429,4.8259,4.8117,4.7758,4.9097,5.0953,5.3114,5.5572,5.656,5.7064,5.8052,5.8949,5.9727,6.0416,6.1343,6.2301,6.3079,6.3528,6.4036,6.5024,6.4755,6.4426,6.5114,6.4755,6.4366,6.4665,6.5144,6.5592,6.5951,6.643,6.7268,6.8794,6.9004,6.9303,7.0111,7.0081,6.9634,6.8616,6.8377,6.8047,6.7537,6.7987,6.8047,6.7537,6.7328,6.7238,6.7238,6.7089,6.6999,6.6999,6.7508,6.8107,6.8734,6.8734,6.8824,6.9004,6.9512,6.9722,6.9752,7.0231,7.041,7.041,7.041,7.041,7.041,7.041,7.041,7.041,7.041,7.053,7.0649,0.0,0.0,0.0,0.0,0.0,0.0,0.0,0.0,0.0,0.0,0.0,0.0,0.0,0.0,0.0,0.0,0.0,0.0,0.0,3.8253,3.9369,4.0812,4.2986,4.382,4.314,4.6115,4.705,4.5819,4.6991,4.7618,4.7684,4.7426,4.7339,4.7399,4.704,4.6711,4.6411,4.6411,4.71,0.0,0.0,4.633,4.7608,4.6441,4.5792,4.5672,4.6651,4.7309,4.8027,4.9935,5.1941,5.4012,5.6166,5.7214,5.7786,5.8471,5.9757,6.1044,6.1433,6.266,6.3977,6.4695,6.4874,6.4994,6.5443,6.4844,6.4276,6.4635,6.4186,6.3977,6.4845,6.5084,6.5413,6.6311,6.652,6.7119,6.8764,6.9004,6.9363,7.026,6.9901,6.9243,6.8495,6.7928,6.7419,6.7029,6.7359,6.7419,6.6999,6.6999,6.6999,6.6999,6.7299,6.7567,6.7867,6.8226,6.8796,6.9423,6.9423,6.9572,6.9842,7.0201,7.038,7.041,0.0,7.0889,7.0889,7.0889,7.0889,7.0889,7.0889,7.0889,7.0889,7.0889,7.0889,7.0889,0.0,0.0,0.0,0.0,0.0,0.0,0.0,0.0,0.0,2.8966,2.8846,2.9175,0.0,0.0,0.0,0.0,0.0,0.0,0.0,0.0,3.6838,3.7965,4.0134,4.0953,4.0146,4.3091,4.424,4.343,4.4581,4.5488,4.6164,4.6413,4.6232,4.5642,4.5642,4.5334,4.4766,4.4766,4.6133,4.7989,4.5095,4.5304,4.7151,0.0,4.3609,4.3339,4.4586,4.6381,4.8536,5.099,5.2935,5.4461,5.5209,5.6316,5.7483,5.8145,6.0146,6.2151,6.2421,6.4216,6.6041,6.6131,6.6131,6.5951,6.5174,6.4216,6.3407,6.3168,6.275,6.2989,6.4575,6.4456,6.4725,6.658,6.646,6.6819,6.8734,6.9064,6.9542,7.0649,6.9812,6.9093,6.9004,6.7867,6.7119,6.7119,6.7029,6.6999,6.6999,6.6999,6.7029,6.7119,6.7808,6.8466,6.9123,6.9123,6.9453,7.0111,7.0111,7.038,7.0889,7.0889,7.0889,7.0889,7.0889,7.0889,7.0889,7.0889,7.0949,7.1038,7.1038,7.1098,7.1188,7.1188,7.1188,7.1188,0.0,0.0,0.0,0.0,0.0,0.0,0.0,0.0,0.0,0.0,3.0073,2.9698,0.0,0.0,0.0,0.0,0.0,0.0,0.0,0.0,0.0,3.5968,3.7412,3.8344,3.8739,4.039,4.1176,4.0992,4.1757,4.2228,4.2349,4.2398,4.2361,4.2271,4.2271,4.2182,4.2092,4.2092,4.2331,4.272,4.2152,4.2182,4.2541,4.2092,0.0,0.0,4.3369,4.5284,4.7698,4.9277,5.2151,5.5209,5.6406,5.7693,5.889,5.9548,6.0864,6.245,6.4037,6.5203,6.6131,6.67,6.6819,6.652,6.5263,6.5233,6.5024,6.3437,6.3857,6.4426,6.4216,6.4516,6.5114,6.6041,6.655,6.7328,6.8794,6.9482,6.9901,7.0111,6.9963,6.9602,6.9064,6.8317,6.7838,6.7838,6.7298,6.6999,6.6999,6.6999,6.7238,6.7808,6.8465,6.9153,6.9812,6.9844,7.0141,7.0739,7.0739,7.0799,7.0889,7.0889,7.0889,7.0889,7.0889,0.0,7.0889,7.0889,7.1218,7.1727,7.1727,7.2056,7.2565,7.2565,7.2565,7.2565,0.0,0.0,0.0,0.0,0.0,0.0,0.0,3.0687,3.1719,3.3349,3.3335,3.2781,3.1659,3.1525,3.1525,0.0,0.0,0.0,0.0,0.0,0.0,0.0,3.5729,3.6567,3.6896,3.8182,3.8841,3.8841,0.0,3.9846,3.9846,4.0187,4.0367,4.0367,4.0367,4.0546,4.0894,4.0894,4.1283,4.1901,4.1523,4.1613,4.1882,4.1523,0.0,0.0,4.307,4.5014,4.7459,4.8468,5.1642,5.5418,5.6705,5.8501,6.0146,6.0086,6.1762,6.3767,6.4336,6.5473,6.652,6.649,6.649,6.6041,6.4395,6.4246,6.4126,6.2839,6.3079,6.3617,6.3947,6.4006,6.4336,6.5323,6.5772,6.643,6.7777,6.8824,6.9602,6.9963,7.0023,6.9842,6.9542,6.8884,6.8495,6.8495,6.8226,6.7897,6.7538,6.7837,6.8345,6.9035,6.9333,6.9812,7.044,7.047,7.062,7.0889,7.0889,7.0889,7.0889,7.0889,7.0889,7.0919,7.1278,7.1427,7.1457,7.1816,7.2146,7.2415,7.2415,7.2624,7.2924,7.2924,7.2924,7.2924,0.0,0.0,0.0,0.0,0.0,0.0,3.1421,3.2392,3.3604,3.5459,3.6297,3.5789,3.3409,3.2991,3.2602,0.0,0.0,0.0,0.0,0.0,0.0,0.0,0.0,0.0,3.528,0.0,0.0,3.7225,3.7853,0.0,0.0,0.0,0.0,0.0,3.8973,3.9242,3.9768,3.9768,4.0445,0.0,0.0,4.1164,4.1733,0.0,0.0,0.0,0.0,4.4745,4.68,4.7758,5.078,5.4401,5.5987,5.8411,6.0565,6.0027,6.2032,6.4336,6.4246,6.5383,6.652,6.6281,6.6011,6.5323,6.3527,6.3197,6.2959,6.1882,6.1882,6.2421,6.3408,6.3227,6.3288,6.4575,6.5024,6.5682,6.7029,6.8375,6.9453,7.0111,7.0171,7.0171,7.0171,6.9602,6.9213,6.9213,6.9213,6.8914,6.8257,6.8824,6.9453,6.9961,7.0143,7.041,7.0889,7.0889,7.0889,7.0889,7.0889,7.0889,7.0889,7.0889,7.0979,7.1128,7.1667,7.1966,7.2146,7.2684,7.2984,7.3133,7.3133,7.3223,7.3343,7.3343,7.3343,7.3343,0.0,0.0,0.0,0.0,0.0,0.0,3.2123,3.3484,3.4817,3.6224,3.6926,3.6759,3.54,3.4697,3.3799,0.0,0.0,0.0,0.0,0.0,0.0,0.0,0.0,0.0,0.0,0.0,0.0,3.6583,3.7195,0.0,0.0,0.0,0.0,0.0,0.0,3.7614,3.7674,3.7674,0.0,0.0,0.0,0.0,0.0,0.0,0.0,0.0,0.0,4.3848,4.4865,4.677,4.8843,5.1116,5.3658,5.6675,5.9279,5.9219,6.0685,6.275,6.4426,6.5024,6.5443,6.661,6.6011,6.4725,6.3378,6.3498,6.3228,6.0803,6.1253,6.2121,6.2241,6.2241,6.26,6.3887,6.5114,6.637,6.7718,6.9065,7.0111,7.0739,7.0829,7.0829,7.0829,7.026,6.9901,6.9901,6.9901,6.9602,6.8944,6.9542,6.9963,7.0023,7.053,7.0829,7.0889,7.0889,7.0889,7.0889,7.0889,7.0889,7.0889,7.0889,7.1218,7.1787,7.1846,7.2235,0.0,7.286,7.3283,7.3821,7.3821,7.418,7.4723,7.4723,7.4723,7.4723,0.0,0.0,0.0,0.0,0.0,0.0,3.2736,3.3889,3.5266,3.7362,3.8212,3.8272,3.7345,3.6656,3.522,3.2721,0.0,0.0,0.0,0.0,0.0,0.0,0.0,0.0,0.0,0.0,3.5908,3.5908,3.6148,0.0,0.0,0.0,0.0,0.0,0.0,3.6477,3.6866,3.6866,0.0,0.0,0.0,0.0,0.0,0.0,0.0,0.0,0.0,0.0,4.4536,4.6151,4.8027,5.0032,5.2306,5.473,5.7064,5.865,6.0535,6.2361,6.3528,6.4725,6.5562,6.5263,6.5114,6.4545,6.2869,6.266,6.245,6.1014,6.1134,6.1613,6.2032,6.2091,6.2391,6.3288,6.4545,6.5892,6.7208,6.8854,7.0201,7.0829,7.2062,7.2346,7.1016,7.1881,7.2133,7.1226,7.0769,7.044,7.0171,7.041,7.053,7.053,7.0769,7.0889,7.0889,7.0889,7.1375,7.233,7.1343,7.1407,7.2329,7.1765,7.1637,7.1936,7.2744,7.3253,0.0,7.3941,7.4821,7.597,7.597,7.6715,7.7707,7.67,7.6335,7.6202,0.0,0.0,0.0,0.0,0.0,3.0476,3.3095,3.4248,3.5535,3.7571,3.8571,3.8931,3.8452,3.7644,3.6118,3.3589,3.2841,0.0,0.0,0.0,0.0,0.0,0.0,0.0,0.0,0.0,3.5609,3.5789,3.5789,3.5878,0.0,0.0,3.6058,3.6041,0.0,0.0,0.0,0.0,0.0,0.0,0.0,0.0,0.0,0.0,0.0,0.0,0.0,0.0,0.0,0.0,0.0,4.9007,5.0803,5.2869,5.5119,5.7752,5.9937,6.1702,6.2569,6.3947,6.5024,6.4455,6.4246,6.3768,6.2421,6.1942,6.1553,6.0685,6.0685,6.0954,6.1403,6.1672,6.2032,6.2718,6.4216,6.5682,6.6819,6.8854,7.0438,7.1128,7.3154,7.3846,7.203,7.3103,7.3476,7.2361,7.1873,7.1824,7.2299,7.1855,7.1375,7.0919,7.0889,7.1148,7.1631,7.1601,7.2424,7.3959,7.283,7.3015,7.4273,7.3599,7.3554,7.3982,7.4928,7.5448,0.0,7.6151,7.7027,7.8059,7.8059,7.8785,7.965,7.8471,7.8059,7.7868,0.0,0.0,0.0,0.0,0.0,0.0,3.3095,3.4622,3.5729,3.6434,3.7614,3.8409,3.8409,3.7272,3.6224,3.5519,3.3649,0.0,0.0,0.0,0.0,0.0,0.0,0.0,0.0,0.0,3.5818,3.6493,3.6493,3.6793,3.7375,3.7375,3.7375,3.7357,0.0,0.0,0.0,0.0,0.0,0.0,0.0,0.0,0.0,0.0,0.0,0.0,0.0,0.0,0.0,0.0,0.0,0.0,0.0,5.1103,5.3737,5.6346,5.8557,6.0386,6.1732,6.26,6.3437,6.4665,6.3558,6.2121,6.2091,6.1583,6.0717,5.9398,5.9638,6.0114,6.0116,6.0655,6.1343,6.2002,6.4306,6.6221,6.6879,6.9243,7.1128,7.1787,7.3889,7.4966,7.4222,7.3602,7.3199,7.3199,7.323,7.3929,7.5464,7.411,7.2549,7.0954,7.0889,7.1665,7.3261,7.3292,7.405,7.5579,7.5551,7.5963,7.6665,7.6635,7.7403,7.8713,7.8745,7.9131,0.0,7.9741,7.9741,7.9773,7.9773,7.9773,7.9803,7.9773,7.9773,7.9773,0.0,0.0,0.0,0.0,0.0,0.0,0.0,3.2871,3.3828,3.4997,3.5895,3.6417,3.6417,3.6058,3.537,3.4233,3.3544,0.0,0.0,0.0,0.0,0.0,0.0,0.0,0.0,0.0,3.6284,3.6493,3.6896,3.7225,3.7387,3.7387,3.7387,3.7404,3.7195,3.7135,0.0,0.0,0.0,0.0,0.0,0.0,0.0,0.0,0.0,0.0,0.0,0.0,0.0,0.0,0.0,0.0,0.0,0.0,0.0,5.4221,5.6855,5.9039,6.0356,6.1553,6.2391,6.2332,6.1523,6.0835,6.1313,6.0179,5.9192,5.9668,5.9578,5.9697,6.0625,6.0954,6.1584,6.3139,6.4485,6.6402,6.9485,7.1046,7.2676,7.4866,7.5346,7.6025,7.7299,7.5847,7.5011,7.5394,7.5104,7.5085,7.5579,7.5144,7.4615,7.414,7.3077,7.323,7.4882,7.4851,7.5637,7.7165,7.6611,7.7019,7.8243,7.8186,7.8389,7.8837,7.9289,7.9579,7.9803,7.9802,8.0436,8.1447,8.1447,8.2441,8.3763,8.2604,8.2518,8.2791,0.0,0.0,0.0,0.0,0.0,0.0,0.0,3.169,3.2512,3.3604,3.4322,3.4951,3.5459,3.504,3.4502,3.3949,3.3395,0.0,0.0,0.0,0.0,0.0,0.0,0.0,0.0,3.5476,3.6733,3.7212,3.8093,3.8661,3.8901,3.917,3.902,3.8512,3.8272,3.8003,0.0,0.0,0.0,0.0,0.0,0.0,3.9541,0.0,0.0,0.0,0.0,0.0,0.0,0.0,0.0,0.0,0.0,0.0,0.0,0.0,5.5149,5.7304,5.859,6.0116,6.1253,6.0835,6.0416,6.0206,6.0625,5.9578,5.871,5.9548,5.9398,5.9428,6.0535,6.0954,6.1672,6.3378,6.4635,6.6702,7.0386,7.1958,7.3954,7.7471,7.7277,7.7385,7.8793,7.7451,7.6629,7.6989,7.6694,7.6748,7.7303,7.6804,7.6716,7.7303,7.5229,7.488,7.6435,7.6463,7.7379,7.9176,7.8656,7.9232,8.0707,8.0598,8.073,8.0992,8.1454,8.1621,0.0,8.1945,8.2655,8.3576,8.3842,8.4728,8.5648,8.4606,8.4336,8.4361,0.0,0.0,0.0,0.0,0.0,0.0,0.0,3.0987,3.166,3.2273,3.2976,3.3873,3.51,3.4143,3.3664,3.4248,0.0,0.0,0.0,0.0,0.0,0.0,0.0,0.0,3.3634,3.5625,3.7242,3.8469,3.9798,4.0816,4.1493,4.2111,4.1733,4.0516,3.984,3.914,0.0,0.0,0.0,0.0,3.7793,3.8285,0.0,0.0,0.0,0.0,0.0,0.0,0.0,0.0,0.0,0.0,0.0,0.0,0.0,0.0,0.0,0.0,0.0,5.8411,5.9967,6.0024,5.9967,5.9967,6.0024,5.9518,0.0,5.9159,5.9189,5.9368,6.0054,6.0828,6.1813,6.3018,6.5022,6.7364,7.0219,7.2441,7.5358,7.9504,7.9408,7.904,7.9061,7.8467,7.8044,7.8044,7.8044,7.8697,8.0099,7.8829,7.8723,8.015,7.7413,7.6604,7.8077,7.811,7.9202,8.1317,8.1418,8.2171,8.349,8.3558,8.3964,0.0,8.4614,8.4614,8.4749,8.5486,8.5851,8.5953,8.6636,8.6501,8.5987,8.5987,8.5486,8.4952,0.0,0.0,0.0,0.0,0.0,0.0,0.0,0.0,0.0,0.0,3.2004,3.2662,3.2467,3.2632,3.2572,0.0,0.0,0.0,0.0,0.0,0.0,0.0,0.0,0.0,3.5011,3.6956,3.8332,3.9152,4.0516,4.1523,4.2171,4.2321,4.2231,4.1882,4.1224,4.0277,0.0,0.0,0.0,0.0,3.9002,3.9122,0.0,0.0,0.0,0.0,4.2831,4.3638,0.0,0.0,0.0,0.0,0.0,0.0,0.0,0.0,5.2127,5.3294,5.5149,0.0,5.871,5.9219,5.8949,5.871,0.0,5.883,5.865,5.9638,5.9847,6.0057,6.0745,6.2707,6.4315,6.4512,6.7734,7.0999,7.3273,7.6452,7.8962,8.005,8.0001,7.9893,7.9918,7.9758,7.9657,7.9657,7.9657,7.9811,8.0183,7.9836,7.9811,8.0209,7.9495,7.9314,7.9657,8.0221,8.0746,8.1317,8.2441,8.3152,8.3524,8.4099,8.4444,8.4614,8.4614,8.4945,8.552,8.5723,8.6129,8.667,8.6839,8.7144,8.7482,8.7482,8.7347,8.7245,0.0,0.0,0.0,0.0,0.0,0.0,0.0,0.0,0.0,0.0,0.0,3.1435,3.1076,3.1645,0.0,0.0,0.0,0.0,0.0,0.0,0.0,0.0,0.0,0.0,3.4793,3.6963,3.8414,3.9079,4.0685,4.1407,4.127,4.209,4.2166,4.1548,4.1116,4.0367,0.0,0.0,0.0,0.0,3.8733,0.0,0.0,0.0,0.0,0.0,4.2521,4.3299,0.0,4.4117,4.4496,4.5065,0.0,0.0,0.0,0.0,5.1229,5.2576,5.4281,5.6166,5.7812,5.8444,5.883,5.9129,5.9488,5.9518,5.967,6.0416,6.0565,6.0967,6.226,6.3968,6.5599,6.6771,6.9253,7.1965,7.4755,7.8084,8.031,8.0648,8.0412,8.031,8.0648,8.0412,8.0209,8.0209,8.0209,8.0209,8.0209,8.0209,8.0209,8.0209,8.0209,8.0344,8.0682,8.1114,8.1655,8.2306,8.3118,8.3693,8.4031,8.4411,8.4614,8.4614,8.4614,8.485,8.5317,8.6027,8.6535,8.6974,8.7651,8.7955,8.7989,8.7989,8.7786,8.755,0.0,0.0,0.0,0.0,0.0,0.0,0.0,0.0,0.0,0.0,0.0,0.0,0.0,0.0,0.0,0.0,0.0,0.0,0.0,0.0,0.0,0.0,0.0,3.4936,3.422,3.6679,3.8361,3.9138,4.0777,4.1256,4.0612,4.1852,4.1843,4.0752,4.0508,4.0081,0.0,0.0,0.0,0.0,3.8165,0.0,0.0,0.0,0.0,0.0,0.0,0.0,0.0,4.4766,4.4915,4.4895,4.6621,0.0,0.0,0.0,0.0,0.0,5.4072,5.5867,5.7393,5.7965,5.9039,5.9937,5.9937,6.0386,6.0837,6.1074,6.1166,6.1878,6.3904,6.5195,6.6762,6.9085,7.0541,7.2588,7.5983,7.8613,8.0412,8.108,8.0581,8.0445,8.1054,8.0547,8.0209,8.0209,8.0209,8.0209,8.0209,8.0209,8.0209,8.0209,8.031,8.0716,8.1486,8.146,8.2137,8.349,8.3625,8.3998,8.4614,8.4614,8.4614,8.4614,0.0,0.0,8.4884,8.6196,8.6805,8.7042,8.826,8.8429,8.7989,8.7989,8.7617,8.7177,0.0,0.0,0.0,0.0,0.0,0.0,0.0,0.0,0.0,0.0,0.0,0.0,0.0,0.0,0.0,0.0,0.0,0.0,0.0,0.0,0.0,0.0,0.0,3.4511,3.5075,3.7809,3.9854,4.1155,4.1403,4.2262,4.3675,4.2441,4.1702,4.1414,4.0775,4.0393,4.0217,3.9421,0.0,3.9391,3.9182,0.0,0.0,0.0,0.0,0.0,0.0,0.0,0.0,4.4386,4.5134,4.6061,4.636,0.0,0.0,0.0,0.0,0.0,5.5085,5.6885,5.7965,5.8055,5.8683,5.9249,5.9249,5.9338,5.9727,6.0894,6.1553,6.2572,6.4669,6.7562,6.9723,7.0161,7.3371,7.6684,7.9186,7.9913,8.0242,8.0344,8.0276,8.0242,8.0344,8.0276,8.0209,8.0209,8.0209,8.0209,8.0209,8.0209,8.0209,8.0209,8.0784,8.1494,8.2238,8.2238,8.2678,8.349,8.4133,8.4478,8.4614,8.4614,8.4614,8.4614,0.0,8.5012,8.5621,8.5858,8.6332,8.6941,8.7144,8.755,8.7989,8.7989,8.7922,8.7854,0.0,0.0,0.0,0.0,0.0,0.0,0.0,0.0,0.0,0.0,0.0,0.0,0.0,0.0,0.0,0.0,0.0,0.0,0.0,0.0,0.0,0.0,0.0,0.0,3.4462,3.7264,3.9048,3.9667,4.0893,4.131,4.0955,4.1073,4.046,3.9225,4.0455,4.0431,3.9473,3.9423,3.9391,3.9391,0.0,0.0,0.0,0.0,0.0,0.0,0.0,0.0,0.0,0.0,4.5493,4.636,4.6719,0.0,0.0,0.0,0.0,0.0,5.4965,5.7124,5.865,5.865,5.9697,6.0805,6.1164,6.2133,6.2793,6.229,6.4226,6.6191,6.6774,6.9785,7.2678,7.4247,7.6494,7.8394,7.9465,8.0276,8.0784,8.0784,8.0784,8.0784,8.0784,8.0412,8.0209,8.0209,8.0209,8.0209,8.0209,8.0209,8.0378,8.0784,8.1114,8.1832,8.2983,8.2983,8.3355,8.4099,8.4444,8.4614,8.4614,8.4614,8.4614,8.4614,0.0,8.4783,8.5215,8.6061,8.6366,8.6433,8.7617,8.8057,8.8057,8.8429,8.8564,8.8564,0.0,0.0,0.0,0.0,0.0,0.0,0.0,0.0,0.0,0.0,0.0,0.0,0.0,0.0,0.0,0.0,0.0,0.0,0.0,0.0,0.0,0.0,0.0,0.0,3.4178,3.6751,3.8319,3.8862,4.0475,4.0228,3.824,3.9741,3.9562,3.8078,4.0396,4.0734,3.9586,3.9776,3.969,3.9391,0.0,0.0,0.0,0.0,0.0,0.0,0.0,0.0,0.0,0.0,0.0,0.0,0.0,0.0,0.0,4.986,5.1385,5.2935,5.5239,5.7453,5.9279,6.0057,6.1074,6.2145,6.3145,6.461,6.5496,6.454,6.7183,6.9641,6.9575,7.2379,7.5539,7.8098,7.8855,7.9203,7.9566,8.0445,8.1114,8.1283,8.1148,8.1021,8.1021,8.0513,8.0209,8.0209,8.0209,8.0209,8.0209,8.0344,8.0716,8.1283,8.1655,8.2366,8.349,8.3659,8.4065,8.4614,8.4614,8.4614,8.4614,8.4614,8.4614,8.4614,8.4614,8.4715,8.4952,8.6163,8.6399,8.623,8.7922,8.8328,8.8091,8.8829,8.91,8.91,0.0,0.0,0.0,0.0,0.0,0.0,0.0,0.0,0.0,0.0,0.0,0.0,0.0,0.0,0.0,0.0,0.0,0.0,0.0,0.0,0.0,0.0,0.0,0.0,3.5296,3.7124,3.9113,4.1329,4.0824,3.9978,3.8843,3.9474,4.0049,4.0542,4.1201,4.1746,0.0,0.0,4.0546,3.9391,3.9391,0.0,0.0,0.0,0.0,0.0,0.0,0.0,0.0,0.0,0.0,0.0,0.0,0.0,4.8596,5.0548,5.2067,5.3827,5.7008,5.8474,5.9847,6.2899,6.2391,6.1704,6.3765,6.4323,6.5094,6.7535,6.9302,7.0988,7.2948,7.5698,7.8215,7.9803,7.9532,7.96,8.0953,8.0648,8.0513,8.1215,8.0682,8.0276,8.0276,8.0242,8.0209,8.0209,8.0209,8.0209,8.0209,8.0851,8.1249,8.1317,8.2611,8.3389,8.349,8.42,8.4546,8.4614,8.4614,8.4614,8.4614,8.4614,8.4614,8.4614,8.4614,8.5046,8.5723,8.5851,8.623,8.6839,8.7008,8.7448,8.8091,8.8829,8.91,8.91,0.0,0.0,0.0,0.0,0.0,0.0,0.0,0.0,0.0,0.0,0.0,0.0,0.0,0.0,0.0,0.0,0.0,0.0,0.0,0.0,0.0,0.0,0.0,3.3018,3.6483,3.7551,3.8666,3.9902,3.998,3.9798,3.9422,4.0798,4.0823,3.9847,4.2179,0.0,0.0,0.0,0.0,4.0606,4.0187,4.0019,0.0,0.0,0.0,0.0,0.0,0.0,0.0,0.0,4.6022,4.698,4.7219,4.8027,4.9307,5.1259,5.3054,5.5059,5.7932,5.9518,6.0745,6.2391,6.2869,6.357,6.6133,6.7484,6.8314,6.8912,7.2305,7.5688,7.7405,7.8253,7.916,8.0648,8.0276,8.0141,8.1181,8.108,8.1012,8.1283,8.1054,8.0682,8.0242,8.0209,8.0209,8.0209,8.0209,8.0209,8.0209,8.0885,8.152,8.1968,8.2983,8.3727,8.42,8.4444,8.4614,8.4614,8.4614,8.4614,8.4614,8.4614,8.4614,8.4614,8.5148,8.552,8.5885,8.6771,8.7076,8.6907,8.6907,8.7617,8.8598,8.7955,8.8023,8.8328,0.0,0.0,0.0,0.0,0.0,0.0,0.0,0.0,0.0,0.0,0.0,0.0,0.0,0.0,0.0,0.0,0.0,0.0,0.0,2.7613,2.885,3.0512,0.0,3.3043,3.6584,3.7433,3.8332,3.9421,3.9597,3.9521,3.9196,4.0882,4.1044,0.0,0.0,0.0,0.0,0.0,0.0,0.0,4.0894,4.0696,0.0,0.0,0.0,0.0,0.0,0.0,0.0,0.0,4.6381,4.7309,4.7309,4.8356,4.9912,5.1678,5.4072,5.6585,5.88,6.0386,6.1785,6.3345,6.4243,6.5668,6.9126,7.0194,7.0732,7.159,7.5464,7.9058,8.031,8.0141,8.0107,8.1148,8.0885,8.0784,8.1528,8.1452,8.1384,8.1596,8.1224,8.075,8.0242,8.0209,8.0209,8.0209,8.0209,8.031,8.0513,8.1257,8.2002,8.2746,8.3456,8.4072,8.4614,8.4614,8.4614,8.4614,8.4614,8.4614,8.4614,8.4614,8.4614,8.4647,8.5452,8.5953,8.623,8.7482,8.7854,8.7583,8.7583,8.8192,8.8965,8.7719,8.7583,8.7888,0.0,0.0,0.0,0.0,0.0,0.0,0.0,0.0,0.0,0.0,0.0,0.0,0.0,0.0,0.0,0.0,0.0,0.0,2.7261,2.7795,2.8831,3.0512,3.111,3.2692,3.5433,3.6634,3.8291,4.0499,3.9973,3.912,3.8039,3.9256,0.0,0.0,0.0,0.0,0.0,0.0,0.0,0.0,4.1433,4.1403,4.1403,0.0,0.0,0.0,0.0,0.0,0.0,0.0,4.6719,4.7309,4.7309,4.8633,5.0465,5.1828,5.5029,5.8384,5.9727,6.1102,6.2937,6.6349,6.6824,6.7706,7.2501,7.1961,7.168,7.6044,7.8686,8.0412,8.1156,8.1317,8.1317,8.1317,8.1317,8.1562,8.2306,8.1765,8.1562,8.2306,8.1088,8.0209,8.0209,8.0209,8.0209,8.0209,8.0209,8.0513,8.1283,8.2002,8.2746,8.349,8.4208,8.4614,8.4614,8.4614,8.4614,8.4614,8.4614,8.4614,8.4614,8.4614,8.4614,8.4647,8.5452,8.6196,8.6974,8.7685,8.8429,8.91,8.91,8.91,8.8998,8.826,8.7989,8.7854,0.0,0.0,0.0,0.0,0.0,0.0,0.0,0.0,0.0,0.0,0.0,0.0,0.0,0.0,0.0,0.0,0.0,0.0,2.6725,2.7595,2.848,2.9383,3.0683,3.234,3.4327,3.6609,3.8668,4.0499,3.9973,3.955,3.928,4.0501,0.0,0.0,0.0,0.0,0.0,0.0,0.0,0.0,4.2741,4.2491,4.2152,0.0,0.0,0.0,0.0,0.0,0.0,0.0,0.0,0.0,4.7848,4.9344,5.1265,5.306,5.5722,5.8384,5.9727,6.1786,6.3879,6.5393,6.7134,6.9377,7.2864,7.3952,7.5206,7.8531,7.9329,7.9803,8.108,8.0885,8.0682,8.1215,8.1317,8.1562,8.2306,8.2205,8.2171,8.2374,8.1562,8.075,8.0242,8.0209,8.0209,8.0209,8.0682,8.108,8.1283,8.2475,8.3287,8.349,8.4208,8.4614,8.4614,8.4614,8.4614,8.4614,8.4614,8.4614,8.4614,8.4614,8.4614,8.4647,8.5452,8.5892,8.6196,8.7482,8.8429,8.9066,8.8531,8.8328,8.8158,8.6907,8.6433,8.6332,0.0,0.0,0.0,0.0,0.0,0.0,0.0,0.0,2.3521,2.4666,2.4816,2.5218,0.0,0.0,0.0,2.6499,2.6499,0.0,2.6801,2.762,2.8448,2.9208,3.0432,3.1964,3.3847,3.6609,3.8391,3.9195,3.932,3.917,3.8825,0.0,0.0,0.0,0.0,0.0,0.0,0.0,0.0,0.0,4.3997,4.3868,4.3619,0.0,0.0,0.0,0.0,0.0,0.0,0.0,0.0,0.0,4.8087,4.9643,5.1684,5.4251,5.7034,5.958,6.0924,6.3244,6.5616,6.6977,6.8946,7.1525,7.5045,7.6514,7.7645,7.9415,7.987,8.0175,8.075,8.0716,8.0784,8.1249,8.1528,8.19,8.234,8.2644,8.2611,8.2035,8.1562,8.1012,8.0276,8.0209,8.0209,8.0209,8.0885,8.1452,8.1731,8.2847,8.3625,8.393,8.4377,8.4614,8.4614,8.4614,8.4614,8.4614,8.4614,8.4614,8.4614,8.4614,8.4614,8.4647,8.5452,8.6129,8.6738,8.7617,8.826,8.8598,8.8158,8.7989,8.782,8.6332,8.5817,8.5655,0.0,0.0,0.0,0.0,0.0,0.0,0.0,2.317,2.3597,2.47,2.4867,2.5285,0.0,0.0,0.0,2.6499,2.6499,2.67,2.7185,2.777,2.8574,2.9603,3.0306,3.1712,3.3922,3.6483,3.7613,3.7286,3.8416,3.8491,0.0,0.0,0.0,0.0,0.0,0.0,0.0,0.0,0.0,0.0,4.5095,4.5304,4.5304,4.6091,0.0,0.0,0.0,0.0,0.0,0.0,0.0,0.0,4.8147,4.9673,5.1858,5.5144,5.8381,6.1222,6.265,6.5118,6.7839,7.0049,7.1889,7.424,7.8201,7.9135,7.9194,7.9194,8.0276,8.1012,8.031,8.0784,8.1317,8.1317,8.1968,8.2509,8.2509,8.3084,8.2983,8.1587,8.1418,8.1054,8.0276,8.0242,8.031,8.031,8.0953,8.1731,8.2475,8.3186,8.393,8.458,8.4614,8.4614,8.4614,8.4614,8.4614,8.4614,8.4614,8.4614,8.4614,8.4614,8.4614,8.4647,8.5384,8.6467,8.7786,8.7854,8.7955,8.7989,8.7989,8.7955,8.7719,8.6298,8.5723,8.5587,0.0,0.0,0.0,0.0,0.0,0.0,2.3712,2.3803,2.4205,2.5285,2.5435,2.5703,2.6424,2.6499,0.0,2.6499,2.6499,2.6549,2.6675,2.757,2.8222,2.8448,3.0231,3.2265,3.4477,3.5531,3.6635,3.7839,3.8969,3.9663,0.0,0.0,0.0,0.0,0.0,0.0,0.0,0.0,0.0,0.0,0.0,4.5433,4.4685,4.6441,4.657,0.0,0.0,0.0,0.0,0.0,0.0,0.0,4.8708,5.0062,5.1744,5.4581,5.7363,5.997,6.1882,6.5567,6.9228,7.0928,7.4539,7.7958,7.8882,7.9566,7.9972,7.9972,8.0209,8.0378,8.0242,8.0784,8.1317,8.1317,8.2408,8.3253,8.3253,8.3389,8.3152,8.2272,8.2171,8.1663,8.031,8.0716,8.108,8.108,8.1731,8.2475,8.3219,8.3964,8.4444,8.458,8.4614,8.4614,8.4614,8.4614,8.4614,8.4614,8.4614,8.4614,8.4614,8.4614,8.4614,8.4614,8.4783,8.5418,8.6298,8.6907,8.7482,8.7989,8.7989,8.7651,8.7042,8.6129,8.5384,8.4817,0.0,0.0,0.0,0.0,0.0,0.0,0.0,0.0,2.4381,2.546,2.5586,2.5829,2.6424,2.6499,0.0,0.0,2.6499,2.6499,2.6499,2.7494,2.8348,2.89,3.0507,3.1813,3.2721,3.453,3.6236,3.7706,3.9382,4.0224,0.0,0.0,0.0,0.0,0.0,0.0,0.0,0.0,0.0,0.0,0.0,0.0,0.0,4.713,4.716,4.6241,4.5882,0.0,0.0,0.0,0.0,0.0,0.0,0.0,5.1774,5.479,5.7064,5.9362,6.2712,6.617,6.9569,7.2787,7.6353,7.9101,7.9101,7.9667,8.0209,8.0209,8.0209,8.031,8.0648,8.1021,8.1554,8.2264,8.2983,8.349,8.349,8.3795,8.349,8.2035,8.2205,8.1832,8.0344,8.0547,8.0919,8.1283,8.1968,8.2746,8.3456,8.4174,8.4614,8.4614,8.4614,8.4614,8.4614,8.4979,8.4979,8.4614,8.4986,8.4952,8.4614,8.4614,8.4817,8.5148,8.4749,8.508,8.5851,8.6196,8.6602,8.6941,8.6941,8.6704,8.6264,8.552,8.4979,8.4614,0.0,0.0,0.0,0.0,0.0,0.0,0.0,0.0,0.0,2.5628,2.5753,2.5954,2.6449,2.6499,2.6499,0.0,0.0,0.0,2.6499,2.7494,2.8624,2.9754,3.0733,3.1135,3.0864,3.3921,3.6071,3.7215,3.9833,0.0,0.0,0.0,0.0,0.0,0.0,0.0,0.0,0.0,0.0,0.0,0.0,0.0,0.0,0.0,0.0,0.0,4.651,4.648,4.648,4.648,0.0,0.0,0.0,0.0,5.1804,5.4965,5.6825,5.8941,6.3576,6.6986,7.0317,7.4954,7.7604,7.9135,7.9236,7.9769,8.0209,8.0209,8.0209,8.0412,8.1156,8.1393,8.1934,8.3287,8.3625,8.3693,8.3693,8.3971,8.3558,8.1697,8.19,8.1697,8.0344,8.031,8.0682,8.1426,8.2069,8.278,8.3659,8.4275,8.4614,8.4614,8.4715,8.4783,8.4783,8.5587,8.5655,8.4986,8.5554,8.5384,8.4614,8.4614,8.4979,8.5554,8.4911,8.4979,8.5587,8.575,8.5817,8.5817,8.5817,8.5817,8.5689,8.4884,8.4614,8.4614,0.0,0.0,0.0,0.0,0.0,0.0,0.0,0.0,0.0,0.0,2.6373,2.6399,2.6474,2.6499,2.6499,2.6499,2.6499,2.6499,2.6499,0.0,0.0,2.9754,3.0382,3.109,3.1989,3.4347,3.5867,3.6432,4.0427,0.0,0.0,0.0,0.0,0.0,0.0,0.0,0.0,0.0,0.0,0.0,0.0,0.0,0.0,0.0,0.0,0.0,0.0,4.7189,4.7189,4.7189,4.7668,0.0,0.0,0.0,5.1624,5.3832,5.5777,5.8125,6.2254,6.804,7.3653,7.6889,7.8416,7.9295,7.9904,8.0141,8.0209,8.0209,8.0209,8.0412,8.1156,8.1832,8.2543,8.3355,8.4065,8.4444,8.4444,8.343,8.2584,8.2306,8.1765,8.1122,8.0276,8.0784,8.146,8.2205,8.234,8.3016,8.4377,8.4546,8.4614,8.4614,8.5283,8.5621,8.5621,8.6399,8.6704,8.6602,8.6061,8.5384,8.4614,8.4614,8.4647,8.4749,8.4647,8.4647,8.4817,8.552,8.5817,8.5817,8.5817,8.5817,8.5689,8.4884,8.4614,8.4614,0.0,0.0,0.0,0.0,0.0,0.0,0.0,0.0,0.0,0.0,0.0,2.6499,2.6499,2.6499,2.6499,2.6499,2.6499,2.6625,2.6927,2.767,2.8473,2.9258,2.9854,3.0382,3.0834,3.332,3.52,3.647,0.0,0.0,0.0,4.5579,4.5978,0.0,0.0,0.0,0.0,0.0,0.0,0.0,0.0,0.0,0.0,0.0,0.0,0.0,0.0,0.0,4.8933,4.8933,4.9112,4.9471,5.0039,0.0,0.0,0.0,5.4221,5.6854,6.3215,6.8636,7.3293,7.6567,7.7942,7.8686,7.9431,7.9904,8.0209,8.0209,8.0513,8.1021,8.1765,8.2171,8.278,8.393,8.4377,8.4614,8.4614,8.3693,8.2881,8.2475,8.1731,8.1012,8.0276,8.0877,8.1596,8.234,8.278,8.349,8.4546,8.5046,8.508,8.4614,8.5384,8.5587,8.5148,8.5892,8.6264,8.6264,8.5486,8.4945,8.4614,8.4614,8.4614,8.4614,8.4614,8.4614,8.4614,8.4979,8.5148,8.5148,8.5148,8.5148,8.508,8.4715,8.4614,8.4614,0.0,0.0,0.0,0.0,0.0,0.0,0.0,0.0,0.0,0.0,0.0,2.6499,2.6499,0.0,0.0,0.0,2.6499,2.6675,2.706,2.7613,2.8072,2.848,2.9202,2.9668,2.9936,3.2593,3.4878,3.6699,0.0,0.0,4.6061,4.692,4.7219,0.0,4.6172,0.0,0.0,0.0,0.0,0.0,4.8087,4.9733,0.0,0.0,0.0,0.0,0.0,0.0,5.1415,5.1086,5.0847,5.0697,5.0518,5.0817,0.0,0.0,0.0,5.6546,6.3889,6.8011,7.1243,7.5518,7.686,7.7468,7.8822,7.9532,7.9972,8.0175,8.0648,8.1291,8.2238,8.2543,8.3118,8.4377,8.4614,8.4614,8.4614,8.3964,8.3219,8.2509,8.1731,8.1012,8.0276,8.1021,8.1799,8.2374,8.3456,8.4302,8.4877,8.5655,8.5723,8.4918,8.5655,8.5689,8.4884,8.5689,8.5993,8.579,8.5182,8.4783,8.4614,8.4614,8.4614,8.4614,8.4614,8.4614,8.4614,8.4614,8.4614,8.4614,8.4614,8.4614,8.4614,8.4614,8.4614,8.4614,0.0,0.0,0.0,0.0,0.0,0.0,0.0,0.0,0.0,0.0,0.0,2.6499,2.6499,2.6499,2.6499,2.6499,2.6499,2.6499,2.6524,2.7035,2.7361,2.7386,2.838,0.0,3.0347,3.3099,3.5368,0.0,0.0,0.0,4.5364,4.6681,4.7967,4.9097,4.7788,4.6869,4.642,0.0,0.0,0.0,0.0,5.2037,0.0,0.0,0.0,0.0,0.0,0.0,5.473,5.3468,5.2606,5.1977,5.1355,5.1176,5.1325,0.0,0.0,0.0,6.3045,6.5428,6.7992,7.4191,7.527,7.554,7.8425,7.9135,7.9363,8.0073,8.0242,8.0682,8.2137,8.2983,8.3693,8.4478,8.4614,8.4614,8.4614,8.3964,8.3219,8.2509,8.1731,8.1012,8.0276,8.1494,8.2374,8.2408,8.4437,8.5716,8.575,8.6433,8.6501,8.5784,8.6467,8.6501,8.575,8.6467,8.6501,8.5817,8.5784,8.5351,8.4614,8.4614,8.4614,8.4614,8.4614,8.4614,8.4614,8.4614,8.4614,8.4614,8.4614,8.4614,8.4614,8.4614,8.4614,8.4614,0.0,0.0,0.0,0.0,0.0,0.0,0.0,0.0,0.0,0.0,0.0,0.0,0.0,0.0,0.0,0.0,0.0,0.0,0.0,2.8021,2.8348,2.8348,2.9076,2.9929,3.0877,3.3356,0.0,0.0,0.0,4.3619,4.5334,4.6681,4.7788,4.8588,4.7279,4.7249,4.8199,4.7818,0.0,0.0,0.0,0.0,0.0,0.0,0.0,0.0,0.0,0.0,0.0,5.6017,5.47,5.3294,5.2187,0.0,0.0,5.2127,5.3653,5.6345,6.1543,6.4272,6.6898,7.2244,7.483,7.6352,7.7435,7.916,8.0445,8.0242,8.0953,8.1765,8.2306,8.2644,8.3186,8.4411,8.4614,8.4614,8.4614,8.3964,8.3389,8.3152,8.2441,8.19,8.1629,8.2949,8.3802,8.3802,8.5486,8.6501,8.6501,8.6771,8.6569,8.5817,8.6061,8.5824,8.5046,8.529,8.529,8.5046,8.5046,8.4884,8.4614,8.4614,8.4614,8.4614,8.4614,8.4614,8.4614,8.4614,8.4614,8.4614,8.4614,8.4614,8.4614,8.4614,8.4614,8.4614,0.0,0.0,0.0,0.0,0.0,0.0,0.0,0.0,0.0,0.0,0.0,0.0,0.0,0.0,0.0,0.0,2.8204,2.8097,2.8097,2.8718,2.9105,2.9105,2.9995,3.1027,3.2182,0.0,0.0,0.0,0.0,0.0,0.0,0.0,4.71,4.7908,4.6779,4.7189,0.0,0.0,0.0,5.0235,0.0,0.0,5.7992,0.0,0.0,0.0,0.0,0.0,0.0,0.0,0.0,0.0,0.0,0.0,0.0,0.0,5.3324,5.5255,6.0176,6.3002,6.578,7.08,7.3916,7.5946,7.6724,7.8619,8.0242,8.0513,8.1359,8.2103,8.2374,8.2408,8.2855,8.4343,8.4614,8.4614,8.4614,8.42,8.3795,8.3524,8.3084,8.2678,8.2441,8.3998,8.4884,8.4614,8.6501,8.7516,8.7279,8.7279,8.6805,8.5851,8.552,8.5148,8.4614,8.4614,8.4614,8.4614,8.4614,8.4614,8.4614,8.4614,8.4614,8.4614,8.4614,8.4614,8.4614,8.4614,8.4614,8.4614,8.4614,8.4614,8.4614,8.4614,8.4614,8.4614,0.0,0.0,0.0,0.0,0.0,0.0,0.0,0.0,0.0,0.0,0.0,0.0,0.0,0.0,0.0,0.0,2.8517,2.8209,2.8209,2.9071,2.9592,2.9592,0.0,0.0,0.0,0.0,0.0,0.0,0.0,0.0,0.0,0.0,4.6022,0.0,4.6629,4.6719,4.7459,0.0,5.0092,5.1684,0.0,5.8534,5.9488,0.0,0.0,0.0,6.3467,6.3588,0.0,6.26,0.0,0.0,0.0,0.0,0.0,0.0,0.0,0.0,0.0,0.0,0.0,6.9927,7.2394,7.4086,7.6352,7.7502,7.8711,8.0809,8.1283,8.1528,8.2272,8.2408,8.2855,8.4343,8.458,8.458,8.458,8.458,8.4309,8.3625,8.3524,8.3253,8.2517,8.4471,8.5486,8.4715,8.7414,8.8734,8.8057,8.8023,8.7313,8.5851,8.5046,8.4614,8.4614,8.4614,8.4614,8.4614,8.4614,8.4614,8.4614,8.4614,8.4614,8.4614,8.4614,8.4614,8.4614,8.4614,8.4614,8.4614,8.4614,8.4614,8.4614,8.4614,8.4614,8.4614,0.0,0.0,0.0,0.0,0.0,2.8831,2.9252,3.0105,0.0,0.0,0.0,0.0,0.0,0.0,0.0,0.0,3.0836,3.092,3.092,3.1432,3.1726,3.1726,3.2622,3.3627,0.0,0.0,0.0,0.0,0.0,0.0,0.0,0.0,0.0,0.0,4.7608,4.8117,4.8828,5.0122,0.0,5.3718,5.7872,5.9668,0.0,0.0,0.0,0.0,0.0,6.6101,6.5323,0.0,6.2811,6.0655,0.0,0.0,0.0,0.0,0.0,0.0,5.9193,0.0,0.0,0.0,0.0,0.0,7.5642,7.828,8.0242,7.9803,8.0987,8.2171,8.2374,8.2408,8.2855,8.4343,8.414,8.3795,8.3795,8.4242,8.4512,8.4309,8.4275,8.4208,8.4005,8.508,8.5926,8.6264,8.7516,8.8429,8.8795,8.8294,8.7313,8.5851,8.5587,8.5182,8.4614,8.4614,8.4614,8.4614,8.4614,8.4614,8.4614,8.4614,8.4614,8.4614,8.4614,8.4614,8.4614,8.4614,8.4614,8.4614,8.4614,8.4614,8.4614,8.4614,8.4614,8.4614,0.0,0.0,2.8875,2.9082,2.976,3.0462,3.106,3.2536,3.359,0.0,0.0,0.0,0.0,0.0,0.0,0.0,3.3918,3.3811,3.353,3.4335,3.4746,3.4427,3.5182,3.5992,3.6828,0.0,0.0,0.0,0.0,0.0,0.0,0.0,0.0,0.0,0.0,4.8977,5.0212,0.0,0.0,0.0,5.871,0.0,0.0,6.4186,6.5772,0.0,0.0,0.0,6.637,6.5981,6.4276,0.0,0.0,0.0,0.0,0.0,0.0,0.0,0.0,0.0,0.0,0.0,0.0,0.0,7.527,7.7638,7.9566,7.9938,8.1054,8.1934,8.1934,8.2205,8.2483,8.272,8.3186,8.349,8.349,8.3862,8.414,8.414,8.4411,8.4614,8.4614,8.5317,8.596,8.6399,8.711,8.7719,8.8158,8.8057,8.7482,8.6298,8.6264,8.5892,8.5114,8.5114,8.4918,8.4614,8.4614,8.4614,8.4614,8.4614,8.4614,8.4614,8.4614,8.4614,8.4614,8.4614,8.4614,8.4614,8.4614,8.4614,8.4614,8.4614,8.4614,8.4614,0.0,0.0,3.008,3.0663,3.1667,3.2591,3.319,3.5262,3.6565,0.0,0.0,0.0,0.0,0.0,0.0,0.0,0.0,3.6766,3.6112,3.752,3.8086,3.7411,3.8251,3.899,3.9511,3.8422,0.0,0.0,0.0,0.0,0.0,0.0,0.0,0.0,4.8027,4.9673,5.1618,5.4281,0.0,5.6941,5.9366,6.1491,0.0,0.0,6.5054,6.6191,6.4994,6.5742,6.7298,6.7148,6.5862,0.0,0.0,0.0,0.0,0.0,5.9062,0.0,0.0,0.0,0.0,0.0,0.0,0.0,7.4864,7.6082,7.7502,8.0006,8.0775,8.0945,8.0945,8.1528,8.1663,8.0513,8.19,8.3186,8.3355,8.3524,8.3592,8.3524,8.4167,8.4546,8.4377,8.5148,8.5682,8.5682,8.6433,8.6907,8.6907,8.7617,8.7651,8.6941,8.6974,8.667,8.5953,8.5824,8.5452,8.4715,8.4647,8.4614,8.4614,8.4614,8.4614,8.4614,8.4614,8.4614,8.4614,8.4614,8.4614,8.4614,8.4614,8.4614,8.4614,8.4614,8.4614,8.4614,2.9377,3.0005,3.0738,3.1717,3.2817,3.3771,3.4301,3.6318,3.776,0.0,0.0,0.0,0.0,0.0,0.0,0.0,0.0,0.0,3.902,4.0069,4.0423,3.975,4.0442,4.0606,4.0217,4.0487,4.1134,0.0,0.0,0.0,0.0,0.0,0.0,0.0,5.0062,5.1439,5.2989,5.5598,0.0,6.0236,6.1283,0.0,6.3887,6.4545,6.6311,6.8375,6.8106,6.8615,6.9275,6.8167,6.7209,6.6131,0.0,0.0,0.0,6.0708,0.0,0.0,0.0,0.0,0.0,0.0,0.0,0.0,7.2665,7.4525,7.5946,7.5912,7.7367,7.8643,7.8643,7.9261,8.004,8.0919,8.0953,8.1257,8.2441,8.3659,8.4167,8.3558,8.4167,8.414,8.2923,8.4039,8.4817,8.4817,8.6129,8.6907,8.6907,8.7617,8.7651,8.6941,8.7482,8.7414,8.6704,8.6095,8.5723,8.5554,8.4911,8.4614,8.4614,8.4614,8.4614,8.4614,8.4614,8.4614,8.4614,8.4614,8.4614,8.4614,8.4614,8.4614,8.4614,8.4614,8.4614,8.4614,3.1691,3.2939,3.4252,3.5039,3.6151,3.7237,3.8111,4.0006,0.0,0.0,0.0,0.0,0.0,0.0,0.0,0.0,0.0,0.0,0.0,4.3546,4.3539,4.288,4.2851,4.2551,4.1844,4.2491,4.2851,4.2851,0.0,0.0,0.0,0.0,0.0,0.0,0.0,5.3174,5.5748,5.7393,5.9279,6.1194,6.2181,0.0,6.5533,6.5862,6.7448,6.9482,6.9482,6.9692,6.9873,6.8856,6.8046,0.0,0.0,6.5585,6.5307,0.0,6.4281,6.5924,0.0,0.0,0.0,6.8707,0.0,0.0,0.0,7.3544,7.4593,7.4593,7.6115,7.7333,7.6927,7.7773,7.8686,7.9025,8.004,8.0615,8.0242,8.2137,8.3498,8.349,8.4167,8.4309,8.3565,8.4174,8.4614,8.4614,8.5689,8.6332,8.6332,8.738,8.782,8.7482,8.8158,8.8192,8.7448,8.6738,8.6163,8.579,8.4979,8.4614,8.4614,8.4614,8.4614,8.4614,8.4614,8.4614,8.4614,8.4614,8.4614,8.4614,8.4614,8.4614,8.4614,8.4614,8.4614,8.4614,3.4215,3.5723,3.7408,3.8069,3.9184,4.0382,4.1623,4.3363,0.0,0.0,0.0,0.0,0.0,0.0,0.0,0.0,0.0,0.0,0.0,4.7616,4.7339,4.6651,4.5514,4.4805,4.4635,4.4655,4.4476,4.4087,0.0,0.0,0.0,0.0,0.0,0.0,0.0,0.0,0.0,0.0,0.0,6.1792,0.0,6.5263,6.7388,6.7388,6.8704,7.056,7.056,7.056,7.047,6.9931,6.9393,6.8796,6.7867,6.7426,0.0,0.0,0.0,0.0,0.0,0.0,0.0,0.0,0.0,6.9789,0.0,0.0,0.0,7.3826,7.5067,7.5845,7.5168,7.6183,7.685,7.5946,7.8179,7.9329,7.7401,7.9566,8.1731,8.2746,8.3795,8.4275,8.3971,8.4749,8.5053,8.4614,8.5723,8.619,8.5587,8.6974,8.7786,8.7786,8.8632,8.8829,8.8226,8.7347,8.6602,8.5993,8.5053,8.4614,8.4614,8.4614,8.4614,8.4614,8.4614,8.4681,8.4817,8.4817,8.4918,8.5019,8.4715,8.4614,8.4614,8.4749,8.4817,8.485,3.5908,3.5914,3.6829,3.7855,3.9078,4.0321,4.1537,4.3257,0.0,0.0,0.0,0.0,0.0,0.0,0.0,0.0,0.0,0.0,5.254,0.0,0.0,5.1439,4.8566,4.7736,4.9359,4.7228,4.633,4.686,4.7578,0.0,0.0,0.0,0.0,0.0,5.5568,0.0,0.0,0.0,6.3528,0.0,6.5772,6.7448,0.0,6.8764,7.035,7.2595,7.2595,7.2595,7.2565,0.0,7.2415,7.2026,0.0,7.2244,7.4156,6.8551,0.0,0.0,0.0,0.0,0.0,0.0,6.9045,0.0,0.0,0.0,7.156,7.1661,0.0,7.2868,7.28,0.0,0.0,7.2135,7.3859,7.5067,7.4143,7.6048,7.828,8.0344,8.2374,8.3118,8.1799,8.5283,8.6771,8.4749,8.7144,8.755,8.4884,8.6196,8.7042,8.7042,8.8361,8.9066,8.8998,8.7617,8.6873,8.6771,8.529,8.4614,8.4614,8.4614,8.4614,8.4614,8.4614,8.5012,8.5655,8.5655,8.6061,8.6474,8.5121,8.4614,8.4681,8.5384,8.5655,8.5757,3.9352,3.9693,4.0797,4.2026,4.2992,4.3928,4.4828,4.6569,0.0,0.0,0.0,0.0,0.0,0.0,0.0,0.0,0.0,5.6222,0.0,0.0,0.0,5.3384,5.1289,5.0159,5.0196,4.9119,4.8514,4.8468,4.8738,4.9523,0.0,0.0,0.0,0.0,5.7034,0.0,6.0773,0.0,6.5263,0.0,0.0,7.0201,0.0,7.0679,7.1517,7.3492,7.3492,7.3492,7.357,0.0,7.4208,0.0,0.0,0.0,0.0,0.0,0.0,0.0,0.0,0.0,0.0,0.0,0.0,0.0,7.0398,0.0,7.1052,0.0,0.0,0.0,0.0,0.0,0.0,0.0,7.2462,7.3071,7.2326,7.4931,7.757,7.9363,8.0378,8.1224,8.1866,8.5621,8.7042,8.4783,8.7008,8.7347,8.4749,8.6068,8.6907,8.6907,8.8328,8.91,8.91,8.8057,8.7313,8.6907,8.5824,8.5046,8.4614,8.4614,8.4614,8.4614,8.5114,8.5486,8.5851,8.6264,8.6636,8.6839,8.6169,8.5933,8.5993,8.6298,8.6433,8.6467,4.288,0.0,0.0,4.4566,4.5313,4.6211,4.7638,4.965,5.1505,5.2845,0.0,0.0,5.6406,5.7184,0.0,0.0,5.9189,5.9189,0.0,0.0,5.6944,5.6645,5.4311,0.0,5.2641,5.1774,5.0877,5.0085,5.0265,5.0744,5.1475,5.1475,5.3294,5.6645,5.8052,6.0206,6.2958,6.4964,6.6759,6.8407,6.9692,7.2029,7.442,7.2864,7.3223,7.459,7.4771,7.5134,7.5605,7.6305,7.6387,0.0,7.6494,0.0,7.7444,0.0,0.0,0.0,7.5277,0.0,0.0,0.0,0.0,0.0,0.0,0.0,0.0,0.0,0.0,0.0,0.0,0.0,0.0,0.0,0.0,7.1109,0.0,7.2665,7.554,7.7638,7.8416,7.96,0.0,8.5723,8.7347,8.5114,8.7414,8.782,8.5358,8.6095,8.6771,8.7211,8.8226,8.8897,8.91,8.8361,8.7719,8.7211,8.623,8.5486,8.4918,8.4681,8.4614,8.4614,8.5215,8.5689,8.6129,8.667,8.7144,8.7516,8.7516,8.7516,8.7482,8.7279,8.7211,8.7245,4.6031,4.4625,0.0,4.3349,4.3938,4.5484,4.8738,5.1432,5.3588,5.491,0.0,0.0,0.0,0.0,0.0,0.0,0.0,6.5173,6.3827,0.0,6.2151,6.2808,5.7869,5.6256,0.0,5.5718,5.3443,5.2097,5.2779,5.2755,5.2157,5.2157,5.3264,5.5388,5.8617,6.0805,6.2391,6.6281,6.8347,6.9093,7.035,7.2086,7.4061,0.0,7.5954,7.6296,7.6977,0.0,0.0,7.9648,7.9649,0.0,0.0,0.0,0.0,0.0,0.0,0.0,0.0,0.0,0.0,7.4468,0.0,0.0,0.0,0.0,7.3003,0.0,0.0,0.0,0.0,0.0,0.0,0.0,0.0,0.0,0.0,0.0,0.0,7.4299,7.669,0.0,0.0,8.5587,8.8152,0.0,8.914,8.9918,8.6981,8.6196,8.6467,8.7922,8.8023,8.8361,8.91,8.8361,8.7989,8.7955,8.6467,8.5784,8.575,8.4979,8.4614,8.4614,8.4614,8.5493,8.6873,8.6907,8.7753,8.9032,8.9032,8.9032,8.8965,8.8226,8.7955,8.8057,0.0,0.0,0.0,4.6471,4.68,4.7908,5.078,5.236,5.3977,5.6166,5.7992,0.0,0.0,6.2868,6.4006,0.0,0.0,6.5622,6.4695,6.4695,0.0,0.0,0.0,5.9308,0.0,0.0,5.5324,5.4845,5.3737,5.3294,5.3533,5.3533,5.4371,5.6013,5.9308,6.1732,6.3528,6.6191,6.8974,0.0,0.0,7.4888,7.4616,0.0,7.5781,7.6331,7.7149,7.779,0.0,7.9578,8.0103,8.0431,8.1002,8.2075,8.2971,8.1905,8.1974,0.0,0.0,0.0,7.9194,7.6724,0.0,0.0,0.0,0.0,0.0,0.0,0.0,0.0,0.0,0.0,0.0,0.0,0.0,0.0,0.0,0.0,0.0,0.0,0.0,0.0,0.0,0.0,0.0,0.0,8.7279,0.0,8.5493,8.5655,8.6027,8.6501,8.7482,8.8125,8.8361,8.8598,8.8463,8.7989,8.7008,8.6264,8.5757,8.4979,8.4614,8.4614,8.5182,8.5689,8.623,8.7245,8.7922,8.8395,8.8903,8.91,8.9066,8.8801,8.8734,8.8734,4.7997,0.0,4.7489,4.7878,4.8716,5.0152,5.2546,5.4251,5.5987,0.0,5.9937,0.0,6.3588,0.0,6.4964,0.0,6.637,6.637,6.64,6.64,0.0,6.5203,6.3677,0.0,0.0,0.0,0.0,0.0,5.5474,5.4431,5.4221,5.4461,5.5269,5.6641,5.9488,6.2211,6.4844,6.658,6.9832,7.3983,0.0,7.711,0.0,0.0,7.7272,7.7905,0.0,7.9321,8.0182,8.1265,8.1628,8.177,8.2577,8.3335,8.387,8.3604,8.3693,8.3625,8.2408,8.2238,0.0,7.9464,7.9735,0.0,7.7807,0.0,0.0,0.0,0.0,0.0,0.0,0.0,0.0,0.0,0.0,0.0,0.0,0.0,0.0,0.0,0.0,0.0,0.0,0.0,0.0,0.0,0.0,0.0,0.0,8.5655,8.5892,8.6163,8.711,8.7719,8.7989,8.8734,8.8863,8.8361,8.7651,8.7042,8.6535,8.579,8.5425,8.5425,8.5689,8.5953,8.6264,8.7211,8.7753,8.8057,8.8829,8.91,8.91,8.91,8.91,8.91,4.9366,4.9426,4.9097,4.7848,4.968,5.2013,5.4042,5.7094,5.9428,0.0,6.3109,6.5144,6.5233,6.637,6.7148,6.7178,6.7178,6.7717,6.8974,6.7867,0.0,0.0,6.7119,6.5772,6.5114,0.0,0.0,0.0,0.0,5.6226,5.4431,5.5059,5.6017,5.7334,5.9249,6.2301,6.6131,6.7481,7.0858,7.5558,7.7822,7.8683,7.8771,7.9724,8.0395,8.0849,8.1086,8.2576,8.4478,8.4478,8.4065,8.349,8.349,8.3524,8.3558,8.3558,8.4065,8.4444,8.3761,8.305,8.2509,8.2449,8.1934,0.0,0.0,0.0,7.9025,0.0,0.0,0.0,0.0,0.0,0.0,0.0,0.0,0.0,0.0,0.0,0.0,0.0,0.0,0.0,0.0,0.0,0.0,0.0,0.0,0.0,0.0,8.6196,8.6129,8.6771,8.6873,8.7245,8.7955,8.87,8.91,8.91,8.8328,8.7989,8.7955,8.7245,8.6907,8.6873,8.6163,8.623,8.6907,8.6941,8.738,8.8125,8.8829,8.91,8.91,8.91,8.91,8.91,5.0631,5.1498,5.227,5.2396,5.2995,5.4102,5.6047,5.8321,6.0595,0.0,6.5024,6.7059,6.8555,6.9004,6.9393,6.9871,6.9901,0.0,0.0,0.0,0.0,6.9034,6.7537,6.667,6.649,6.3767,0.0,6.1343,0.0,5.8082,5.7098,5.7304,5.8052,5.9338,5.9847,6.257,6.6821,6.7809,7.129,7.6452,7.9292,7.9986,7.9535,0.0,8.2112,8.2524,8.2191,8.2465,8.2956,8.2956,8.3219,8.349,8.349,8.3896,8.4309,8.4309,8.4444,8.4546,8.4377,8.4174,8.3903,8.3355,8.349,8.3558,0.0,0.0,0.0,0.0,0.0,0.0,0.0,0.0,0.0,0.0,0.0,0.0,0.0,0.0,0.0,0.0,0.0,0.0,0.0,0.0,0.0,0.0,0.0,0.0,8.5256,0.0,8.6196,8.5222,8.6305,8.7008,8.7177,8.8463,8.91,8.91,8.8328,8.7989,8.7955,8.7245,8.6907,8.6907,8.6704,8.6738,8.6941,8.7482,8.8158,8.8835,8.9032,8.91,8.91,8.91,8.91,8.91,5.2875,5.3773,5.4815,5.5722,5.6406,5.7154,5.8231,6.0595,6.3079,6.5443,6.7478,0.0,7.0682,7.0352,7.0143,7.047,7.0231,0.0,7.038,0.0,0.0,6.9842,6.8854,6.8166,6.7867,6.5473,0.0,6.3378,0.0,6.0057,5.8534,5.886,5.9548,6.0563,6.1519,6.398,6.7633,7.068,7.3929,7.7324,8.0431,8.1332,0.0,8.2348,8.306,8.3338,8.3341,8.3362,8.3362,8.3362,8.3422,8.349,8.349,8.3795,8.4133,8.4133,8.4343,8.4614,8.4614,8.485,8.4945,8.4167,8.4573,8.4945,8.4167,8.3084,8.2475,0.0,0.0,0.0,0.0,0.0,0.0,0.0,0.0,0.0,0.0,0.0,0.0,0.0,0.0,0.0,0.0,0.0,0.0,0.0,0.0,0.0,0.0,0.0,8.6366,8.5182,8.6298,8.6771,8.6433,8.8192,8.8965,8.8598,8.8192,8.7989,8.7955,8.7245,8.7076,8.738,8.7042,8.7076,8.7414,8.782,8.8429,8.9168,8.9782,9.0053,9.0053,9.0053,8.9647,8.91,5.5448,5.6132,5.709,5.8264,5.9757,6.0745,6.0835,6.3468,6.6071,6.7898,0.0,7.1098,7.1577,7.056,6.9842,6.9842,6.9333,6.9482,7.059,7.0141,7.0141,7.0769,7.0201,6.9632,6.9123,6.7807,6.655,0.0,0.0,6.2241,5.9877,6.0386,6.0924,6.1579,6.3513,6.6051,6.9244,7.4794,7.7616,7.8542,8.1404,8.2543,8.2644,8.3355,8.3625,8.3727,8.4377,8.4614,8.4614,8.4614,8.4174,8.3625,8.3625,8.3625,8.3625,8.3625,8.4099,8.4614,8.4614,8.5114,8.5452,8.4749,8.5148,8.5486,8.4884,8.42,8.3896,8.4715,8.3219,8.2306,0.0,0.0,0.0,0.0,0.0,0.0,0.0,0.0,0.0,0.0,0.0,0.0,0.0,0.0,0.0,0.0,0.0,0.0,0.0,0.0,8.6704,8.5655,8.6569,8.6704,8.5926,0.0,8.8795,8.8125,8.8057,8.7989,8.7955,8.7245,8.7313,8.7955,8.7313,8.7482,8.8125,8.8125,8.8564,8.9376,9.0865,9.1372,9.1305,9.1305,9.0493,8.9371,5.6765,5.8201,0.0,0.0,6.2541,6.4306,6.4904,6.637,6.7777,6.8704,7.0051,7.0769,7.035,6.9632,6.9183,6.9183,6.9064,0.0,0.0,0.0,0.0,7.0111,6.9512,6.9363,6.9844,6.8526,6.7718,0.0,0.0,6.4994,6.3947,6.3528,6.3378,6.3528,6.4479,6.8092,7.3785,7.7775,8.0316,8.1664,8.2867,8.3321,8.3389,8.4133,8.4411,8.4411,8.4546,8.4614,8.4614,8.4614,8.4512,8.4411,8.4411,8.4411,8.4411,8.4411,8.4512,8.4614,8.4614,8.4681,8.4783,8.4647,8.4715,8.4945,8.5452,8.4979,8.4783,8.6203,8.5155,8.414,8.4512,0.0,0.0,0.0,0.0,0.0,0.0,0.0,0.0,0.0,0.0,0.0,0.0,0.0,0.0,0.0,0.0,0.0,0.0,0.0,8.7516,0.0,8.6771,0.0,0.0,0.0,8.9032,8.8897,8.8294,8.7989,8.7955,8.7245,8.7313,8.7989,8.7854,8.8226,8.8931,8.8931,8.9342,9.0154,9.1614,9.1846,9.1305,9.1305,9.1135,9.0831,5.9697,0.0,0.0,0.0,6.4784,6.667,6.6969,6.8197,6.9275,6.9901,7.053,7.0799,7.05,6.9602,6.9123,6.9482,6.9512,6.9632,6.9961,6.9991,7.0141,7.044,6.9842,6.9662,6.9993,6.9035,6.8347,6.7987,0.0,6.6879,6.5533,6.6333,6.6771,6.683,6.8996,7.2357,7.6488,7.8228,0.0,8.1304,8.2458,8.3152,8.3592,8.4309,8.485,8.5215,8.5215,8.5486,8.573,8.5351,8.5486,8.5763,8.5763,8.5763,8.5763,8.5763,8.5763,8.5763,8.5763,8.5763,8.5696,8.5317,8.5215,8.5215,8.5182,8.4884,8.4817,8.5527,8.5121,8.4614,8.4614,8.3152,0.0,0.0,0.0,0.0,0.0,0.0,0.0,0.0,0.0,0.0,0.0,0.0,0.0,0.0,0.0,0.0,0.0,0.0,8.7279,0.0,0.0,0.0,8.5696,0.0,0.0,8.7955,8.7617,8.7448,8.738,8.6203,8.6129,8.6873,8.7245,8.7854,8.8564,8.9342,8.9884,9.0324,9.1406,9.1846,9.188,9.188,9.215,9.2319,6.3086,6.439,0.0,6.5137,6.7095,6.8694,6.8694,6.997,7.0908,7.0746,7.1002,7.1136,7.1015,7.0364,7.0188,7.0735,7.0765,7.0978,7.1433,7.1463,7.1554,7.1676,7.1251,7.1039,7.1191,7.0826,7.031,0.0,0.0,0.0,6.6906,6.917,7.0365,7.0796,7.3923,7.6475,0.0,0.0,7.9757,8.0928,8.2299,8.3321,8.4031,8.464,8.5249,8.5784,8.5587,8.6129,8.6805,8.623,8.6433,8.6907,8.6907,8.6907,8.6907,8.6907,8.6907,8.6907,8.6907,8.6907,8.6771,8.6163,8.6027,8.5824,8.5046,8.485,8.4783,8.4647,8.4614,8.4647,8.4817,8.4234,0.0,0.0,0.0,0.0,0.0,0.0,0.0,0.0,0.0,0.0,0.0,0.0,0.0,0.0,0.0,0.0,8.738,0.0,0.0,0.0,0.0,8.6805,8.5561,0.0,8.7854,8.7144,8.6974,8.6907,8.6873,8.529,8.5046,8.5851,8.6399,8.7076,8.7854,8.9207,8.9816,9.0053,9.0763,9.1541,9.2155,9.2155,9.2658,9.3165,6.636,6.6754,6.7185,6.8489,6.9926,7.0915,7.0915,7.2722,7.3137,7.0436,7.1288,7.1964,7.1346,7.2396,7.3193,7.3257,7.3257,7.3289,7.332,7.3352,7.3639,7.4247,7.4183,7.447,7.5078,7.568,7.5616,0.0,0.0,7.3232,6.9763,7.2098,7.3863,7.5163,7.6964,0.0,0.0,8.21,8.3069,8.3238,8.408,8.4877,8.5614,8.5655,8.5723,8.5689,8.4952,8.5662,8.6907,8.6839,8.6839,8.6907,8.6907,8.6907,8.6907,8.6907,8.6907,8.6907,8.6907,8.6907,8.6907,8.6839,8.6805,8.6602,8.5858,8.5716,8.5486,8.4749,8.4614,8.4817,8.5554,8.5046,8.5121,0.0,0.0,0.0,0.0,0.0,0.0,0.0,0.0,0.0,0.0,0.0,0.0,0.0,8.3159,0.0,0.0,0.0,0.0,8.8869,8.8869,8.8801,8.8666,8.8897,8.8632,8.7888,8.7211,8.6907,8.6873,8.529,8.5046,8.5817,8.5858,8.6332,8.7076,8.7888,8.8598,8.9303,9.0019,9.0763,9.1406,9.1406,9.188,9.2493,7.0109,7.1023,7.1426,7.1206,7.2593,7.348,7.2685,7.3706,7.4126,7.2928,7.3281,7.3438,7.274,7.3246,7.3772,7.416,7.4192,7.4385,7.4772,7.4804,7.4933,7.5192,7.5637,7.5768,7.5608,7.6312,7.6566,0.0,0.0,0.0,7.4776,7.7086,7.8726,7.9745,0.0,8.0807,8.2147,8.2199,8.3219,8.4843,8.4708,8.5324,8.6399,8.596,8.6061,8.6366,8.5587,8.5993,8.6907,8.6907,8.7482,8.8226,8.8226,8.8226,8.8226,8.8226,8.8226,8.8226,8.8226,8.8226,8.8091,8.7685,8.755,8.738,8.6636,8.6095,8.5716,8.5384,8.4945,8.485,8.5655,8.5892,8.6129,0.0,0.0,0.0,0.0,0.0,0.0,0.0,0.0,0.0,0.0,0.0,0.0,0.0,0.0,0.0,0.0,0.0,0.0,8.91,0.0,8.8226,8.7786,8.8226,8.8057,8.7347,8.7042,8.6907,8.6873,8.529,8.5046,8.5817,8.5817,8.623,8.6974,8.7685,8.8158,8.8497,8.9241,8.9985,9.0628,9.0628,9.1102,9.1744,7.355,7.4349,7.4605,7.3886,7.4886,7.5536,7.4619,7.5487,7.625,7.625,7.6636,7.6275,7.4725,7.5342,7.6044,7.6538,7.6766,7.7064,7.7558,7.759,7.759,7.759,7.7883,0.0,7.759,7.7912,7.8046,7.8046,7.8787,0.0,7.7586,7.9392,8.1016,0.0,8.2069,8.2408,8.3152,8.278,8.3693,8.5452,8.5554,8.6102,8.6839,8.6332,8.6298,8.6501,8.5723,8.5926,8.6602,8.6839,8.7753,8.8795,8.8795,8.8931,8.91,8.91,8.91,8.91,8.91,8.91,8.8998,8.8429,8.8328,8.8125,8.738,8.6805,8.6298,8.5885,8.5351,8.5046,8.5384,8.6061,8.6535,8.6433,0.0,0.0,0.0,0.0,0.0,0.0,0.0,0.0,0.0,0.0,0.0,0.0,0.0,0.0,0.0,0.0,0.0,0.0,0.0,0.0,8.755,8.7854,8.7753,8.7245,8.7245,8.7245,8.7177,8.5655,8.5148,8.5452,8.5452,8.5892,8.6636,8.7144,8.7617,8.8057,8.8564,8.9207,8.9884,8.9884,9.0357,9.0966,7.6473,7.6117,7.5841,7.6631,7.6774,7.6774,7.6774,7.8682,8.0124,8.0124,8.1409,8.0916,7.7272,7.9481,8.1232,8.1232,8.1882,8.2322,8.2322,8.2322,8.2322,0.0,0.0,8.1578,8.2322,8.1612,8.1232,8.1232,0.0,0.0,7.6946,7.7681,7.96,8.2441,8.3152,8.3084,8.2577,8.4776,8.5317,8.4817,8.7076,8.755,8.6907,8.6907,8.6433,8.5689,8.4884,8.5148,8.5892,8.667,8.7414,8.8023,8.8023,8.8497,8.91,8.91,8.91,8.91,8.91,8.91,8.91,8.91,8.91,8.8869,8.8158,8.7989,8.755,8.6095,8.579,8.5554,8.4749,8.5283,8.6264,8.7753,0.0,0.0,0.0,0.0,0.0,0.0,0.0,8.826,8.8998,0.0,0.0,0.0,0.0,0.0,0.0,0.0,0.0,9.0154,8.8057,0.0,8.9066,8.8361,8.7989,8.7989,8.7989,8.7989,8.7922,8.6433,8.5351,8.4614,8.4614,8.508,8.5817,8.5817,8.667,8.7989,8.8023,8.8463,8.9134,8.9134,8.9579,9.0222,7.8816,7.8905,7.8815,7.909,7.9536,7.9872,7.9872,8.0907,8.1697,8.1697,8.2137,8.1948,8.0789,8.1472,8.2069,0.0,8.2272,8.2408,0.0,8.2408,8.2408,8.2408,8.2644,8.2678,8.2408,8.2644,8.278,8.278,0.0,0.0,0.0,8.2644,8.3016,8.3903,8.414,8.4437,8.4776,8.5486,8.623,8.6974,8.7719,8.7854,8.7617,8.711,8.6433,8.5689,8.4911,8.4749,8.5046,8.5256,8.5858,8.6501,8.6501,8.7712,8.91,8.91,8.91,8.91,8.91,8.91,8.91,8.91,8.91,8.9066,8.8801,8.8361,8.7719,8.6738,8.6129,8.5858,8.6129,8.596,8.6095,8.711,8.7245,0.0,8.7245,0.0,0.0,0.0,8.7245,8.7347,0.0,8.8057,0.0,0.0,0.0,0.0,0.0,0.0,0.0,0.0,8.7786,0.0,8.8328,8.8125,8.7989,8.7989,8.7989,8.7753,8.7245,8.6771,8.6433,8.6169,8.6169,8.6332,8.6602,8.7076,8.7583,8.8057,8.8531,8.8869,8.91,8.91,8.9269,8.9444,8.0841,8.1021,8.1021,8.1021,8.1393,8.1697,8.1697,8.234,8.2813,8.2813,8.3024,8.3227,8.3227,8.3227,0.0,8.2847,8.3084,8.3227,8.3227,8.3227,8.3227,8.3227,8.3389,8.3422,8.3227,8.3152,0.0,8.393,8.4674,8.5452,8.6196,8.5723,8.5317,8.508,8.5324,8.5587,8.5851,8.6366,8.7008,8.7617,8.7888,8.7651,8.711,8.667,8.6027,8.5283,8.4783,8.4614,8.4647,8.4945,8.5384,8.5851,8.6129,8.7144,8.826,8.826,8.8463,8.8694,8.8694,8.8897,8.91,8.91,8.91,8.91,8.91,8.8734,8.8192,8.7482,8.6941,8.667,8.6873,8.6738,8.6771,8.7245,8.7313,8.7313,8.7313,0.0,8.7719,0.0,0.0,0.0,0.0,8.8294,8.8497,0.0,0.0,0.0,0.0,0.0,0.0,8.7882,8.6974,0.0,8.7583,8.7854,8.8125,8.8395,8.8395,8.8023,8.7313,8.7313,8.7177,8.6907,8.6907,8.7076,8.7347,8.782,8.8158,8.8463,8.8931,8.91,8.91,8.91,8.91,8.91,8.2408,8.2441,8.2475,8.2475,8.2543,8.2577,8.2577,8.3186,8.3659,8.3659,8.4302,8.4749,8.4749,8.4749,8.4478,8.3795,0.0,0.0,8.4614,8.4614,8.4614,8.4614,8.3964,8.3896,8.458,8.3261,8.3227,8.4681,8.5418,8.6163,8.6907,8.6907,8.6535,8.5892,8.6602,8.6535,8.5987,8.7347,8.7516,8.6974,8.7651,8.7076,8.5817,8.5817,8.5317,8.4614,8.4614,8.4647,8.4783,8.5554,8.5851,8.602,8.667,8.6907,8.6907,8.6907,8.7414,8.7989,8.7989,8.8531,8.91,8.91,8.91,8.91,8.91,8.91,8.8931,8.8226,8.8023,8.7786,8.711,8.7516,8.7955,8.7989,8.7955,8.7955,8.7989,8.738,8.7651,0.0,0.0,0.0,0.0,8.9173,8.8564,0.0,0.0,0.0,0.0,0.0,8.8119,8.5926,8.5851,8.6163,8.6974,8.7651,8.8361,8.91,8.91,8.8761,8.8091,8.8091,8.7719,8.7076,8.7076,8.7448,8.8091,8.8091,8.8463,8.91,8.91,8.91,8.91,8.91,8.91,8.91,8.2408,8.2847,8.3253,8.3253,8.3727,8.4072,8.4072,8.4742,8.5276,8.5276,8.5892,8.6366,8.6366,8.6366,8.6298,8.6129,8.5155,8.4614,8.4614,8.4614,8.4614,8.4614,8.4411,8.4411,8.4614,8.4242,8.4573,8.552,8.5716,8.6163,8.6907,8.6907,8.6805,8.667,8.6839,8.6805,8.667,8.7008,8.7076,8.6941,8.711,8.6602,8.5817,8.5817,8.5317,8.4614,8.4614,8.4986,8.5554,8.575,8.6163,8.667,8.6839,8.6907,8.6907,8.6907,8.7414,8.7989,8.7989,8.8531,8.91,8.91,8.91,8.91,8.91,8.91,8.9066,8.8897,8.8395,8.7955,8.7786,8.7414,8.7347,8.7922,8.7516,8.738,8.7922,8.738,8.6907,0.0,8.667,8.6399,8.5966,8.5763,8.6332,0.0,0.0,8.8226,8.8829,8.9032,8.8328,8.6704,8.6095,8.6399,8.7719,8.7922,8.8361,8.91,8.91,8.9032,8.8835,8.8835,8.8734,8.8564,8.8564,8.8666,8.8835,8.8835,8.8965,8.91,8.91,8.91,8.91,8.91,8.91,8.91,8.3396,8.4031,8.4539,8.4539,8.5182,8.5628,8.5628,8.6027,8.6298,8.6298,8.667,8.6907,8.6907,8.6907,8.6907,8.6907,8.6135,8.5628,8.5628,8.5628,8.5628,8.5628,8.5351,8.5148,8.5148,8.4783,8.4986,8.5817,8.6129,8.6501,8.6907,8.6907,8.6907,8.6907,8.6907,8.6907,8.6907,8.6907,8.6704,8.6433,8.6771,8.6467,8.5851,8.6163,8.6027,8.5628,8.5628,8.5926,8.6298,8.6298,8.6569,8.6907,8.6907,8.6907,8.6907,8.6907,8.7414,8.7989,8.7989,8.8531,8.91,8.91,8.91,8.91,8.91,8.91,8.91,8.91,8.8767,8.8497,8.8497,8.8158,8.8023,8.8429,8.7888,8.7651,8.8395,8.7854,8.738,8.734,8.7306,8.6974,8.623,8.6163,8.667,8.7922,8.7989,0.0,8.8564,8.8598,8.8091,8.6941,8.6839,8.7177,8.7989,8.8328,8.87,8.91,8.91,8.91,8.91,8.91,8.91,8.91,8.91,8.91,8.9134,8.9444,8.9579,8.9647,8.9951,9.0115,9.0115,9.0115,9.0115,9.0115,8.4918,8.5486,8.596,8.596,8.6501,8.6907,8.6907,8.7008,8.7076,8.7076,8.7177,8.7245,8.7245,8.7245,8.7245,8.7245,8.7245,8.7144,8.6913,8.6907,8.6907,8.6907,8.6298,8.596,8.596,8.5317,8.5351,8.6129,8.6636,8.6974,8.7076,8.6974,8.6907,8.6907,8.6805,8.6805,8.6879,8.6771,8.6433,8.5993,8.667,8.6535,8.6027,8.667,8.6907,8.6907,8.6907,8.6974,8.7076,8.7076,8.7144,8.7245,8.7245,8.7245,8.7245,8.7245,8.7685,8.8125,8.8023,8.8531,8.91,8.91,8.91,8.91,8.91,8.91,8.91,8.91,8.91,8.91,8.91,8.91,8.9235,8.9545,8.87,8.8328,8.9303,8.8497,8.8057,8.8666,8.8767,8.8497,8.7888,8.782,8.782,8.782,8.7955,8.7989,8.7989,8.8091,8.7888,8.7245,8.7719,8.8057,8.8158,8.8795,8.91,8.91,8.91,8.91,8.91,8.9235,8.9241,8.9241,8.9404,8.941,8.9478,9.0121,9.0391,9.0425,9.1068,9.1305,9.1305,9.1305,9.1305,9.1305,8.6433,8.6636,8.6738,8.6738,8.6839,8.6907,8.6907,8.7448,8.782,8.782,8.8361,8.8761,8.8761,8.8761,8.8761,8.8761,8.8761,8.8226,8.6974,8.6907,8.6907,8.6907,8.6805,8.6738,8.6738,8.6636,8.6907,8.7651,8.7144,8.7211,8.782,8.7211,8.6907,8.6873,8.623,8.6332,8.6873,8.623,8.6264,8.6738,8.6873,8.6839,8.6738,8.6873,8.6907,8.6907,8.6907,8.7313,8.782,8.782,8.8226,8.8761,8.8761,8.8761,8.8761,8.8761,8.8835,8.8795,8.8158,8.8531,8.91,8.91,8.91,8.91,8.91,8.91,8.91,8.91,8.91,8.91,8.91,8.91,8.9715,9.158,8.9715,8.87,9.0662,8.87,8.711,8.7245,8.7245,8.7211,8.7076,8.7076,8.7076,8.7076,8.7651,8.7989,8.7989,8.8564,8.8897,8.8734,8.826,8.8294,8.8931,8.9066,8.91,8.91,8.91,8.91,8.9134,8.9748,9.0019,9.0053,9.0696,9.0966,9.0966,9.1068,9.1135,9.1135,9.1271,9.1305,9.1305,9.1305,9.1305,9.1305,8.6839,8.7211,8.7482,8.7482,8.782,8.8091,8.8091,8.8361,8.8564,8.8564,8.8897,8.91,8.91,8.91,8.91,8.91,8.91,8.8829,8.8125,8.8091,8.8091,8.8091,8.7719,8.7313,8.6907,8.6907,8.7076,8.7414,8.7076,8.7076,8.7414,8.7076,8.6907,8.6907,8.6535,8.6602,8.6907,8.6535,8.6602,8.6941,8.7347,8.7482,8.755,8.7922,8.8091,8.8091,8.8091,8.8294,8.8564,8.8564,8.8801,8.91,8.91,8.91,8.91,8.91,8.91,8.9032,8.8666,8.8835,8.91,8.91,8.91,8.91,8.91,8.91,8.91,8.91,8.91,8.91,8.91,8.91,8.941,9.0459,8.9478,8.8937,8.9951,8.8937,8.8091,8.8091,8.8091,8.8091,8.8091,8.8091,8.8091,8.8091,8.8395,8.8564,8.8564,8.8931,8.91,8.91,8.8767,8.8761,8.91,8.91,8.9275,8.9681,8.9681,8.9884,9.029,9.0628,9.0797,9.0797,9.1135,9.1305,9.1338,9.1744,9.1913,9.1947,9.2353,9.2522,9.2522,9.2522,9.2522,9.2522,8.738,8.7854,8.826,8.826,8.8728,8.91,8.91,8.91,8.91,8.91,8.91,8.91,8.91,8.91,8.91,8.91,8.91,8.91,8.91,8.91,8.91,8.91,8.8531,8.7989,8.7414,8.7414,8.7414,8.7414,8.7245,8.7245,8.7414,8.7245,8.7245,8.7414,8.7414,8.7516,8.7685,8.7482,8.7516,8.7719,8.8091,8.826,8.8294,8.8897,8.91,8.91,8.91,8.91,8.91,8.91,8.91,8.91,8.91,8.91,8.91,8.91,8.91,8.91,8.91,8.91,8.91,8.91,8.91,8.91,8.91,8.91,8.91,8.91,8.91,8.91,8.91,8.91,8.9269,8.9782,8.9438,8.9303,8.9782,8.941,8.91,8.91,8.91,8.91,8.91,8.91,8.91,8.91,8.91,8.91,8.91,8.91,8.9201,8.9342,8.9201,8.9201,8.9342,8.9342,8.9715,9.0459,9.0459,9.0763,9.1305,9.1474,9.1575,9.1575,9.1744,9.1812,9.188,9.2455,9.2692,9.2759,9.3334,9.3601,9.3601,9.3601,9.3601,9.3601,8.8801,8.8998,8.9032,8.9032,8.9066,8.91,8.91,8.91,8.91,8.91,8.91,8.91,8.91,8.91,8.91,8.91,8.91,8.91,8.91,8.91,8.91,8.91,8.9066,8.8998,8.8965,8.8965,8.8965,8.8965,8.826,8.826,8.8931,8.8226,8.826,8.8965,8.8965,8.9309,8.9918,8.9207,8.9309,8.9918,8.9275,8.9032,8.9032,8.91,8.91,8.91,8.91,8.91,8.91,8.91,8.91,8.91,8.91,8.91,8.91,8.91,8.91,8.91,8.91,8.91,8.91,8.91,8.91,8.91,8.91,8.91,8.91,8.91,8.91,8.91,8.91,8.91,8.9748,9.1817,9.0425,8.9816,9.1851,9.0391,8.91,8.91,8.91,8.91,8.91,8.91,8.91,8.91,8.91,8.91,8.91,8.91,8.941,9.0121,8.9444,8.941,9.0121,9.0121,9.0493,9.1203,9.1203,9.1237,9.1305,9.2015,9.2324,9.2358,9.3098,9.3431,9.3402,9.3499,9.3503,9.3503,9.3601,9.3601,9.3601,9.3601,9.3601,9.3601,8.9066,8.91,8.91,8.91,8.91,8.91,8.91,8.91,8.91,8.91,8.91,8.91,8.91,8.91,8.91,8.91,8.91,8.91,8.91,8.91,8.91,8.91,8.91,8.91,8.91,8.9545,8.9782,8.9782,8.9951,9.0188,9.0459,9.0188,9.0188,9.0459,9.0459,9.0628,9.0865,9.056,9.0628,9.0865,9.056,9.0459,9.0459,9.0459,9.0459,9.0459,9.0459,9.0459,9.0459,9.0459,9.0459,9.0459,9.0459,9.0459,9.0459,9.0459,9.0459,9.0459,9.0459,8.9811,8.91,8.91,8.91,8.91,8.91,8.91,8.91,8.91,8.91,8.91,8.91,8.91,8.9404,9.0222,8.9647,8.9376,9.0222,8.9613,8.91,8.91,8.91,8.91,8.91,8.91,8.91,8.91,8.91,8.9275,8.9748,9.0222,9.0594,9.0865,9.0594,9.0594,9.0865,9.0865,9.1237,9.1981,9.1981,9.2252,9.2725,9.303,9.3131,9.3165,9.3499,9.3601,9.3601,9.3601,9.3601,9.3601,9.3601,9.3601,9.3601,9.3601,9.3601,9.3601,8.91,8.91,8.91,8.91,8.91,8.91,8.91,8.91,8.91,8.91,8.91,8.91,8.91,8.91,8.91,8.91,8.91,8.91,8.91,8.91,8.91,8.91,8.9309,8.9444,8.9444,9.0154,9.056,9.056,9.1034,9.1406,9.1643,9.1643,9.1778,9.2015,9.2015,9.2015,9.2015,9.1744,9.1643,9.1643,9.1372,9.1305,9.1305,9.1305,9.1305,9.1305,9.1305,9.1305,9.1305,9.1305,9.1305,9.1305,9.1305,9.1305,9.1305,9.1305,9.1305,9.1305,9.1305,9.056,8.9782,8.9782,8.9782,8.9782,8.9782,8.9782,8.9782,8.9782,8.9782,8.9782,8.9782,8.9782,8.9782,8.9782,8.9782,8.9709,8.9478,8.9444,8.9342,8.9134,8.91,8.9201,8.941,8.9444,8.9545,8.9748,8.9782,9.0019,9.0527,9.1034,9.1406,9.1643,9.1643,9.1778,9.2015,9.1778,9.2049,9.2793,9.2793,9.3064,9.3601,9.3601,9.3601,9.3601,9.3601,9.3601,9.3601,9.3601,9.3601,9.3601,9.3601,9.3601,9.3601,9.3601,9.3601,9.3601,8.91,8.91,8.91,8.91,8.91,8.91,8.91,8.91,8.91,8.91,8.91,8.91,8.91,8.91,8.91,8.91,8.91,8.91,8.9134,8.9134,8.9134,8.9134,8.9816,9.0222,9.0222,9.0932,9.1305,9.1305,9.1305,9.1711,9.2392,9.2392,9.2861,9.3601,9.3601,9.3601,9.3567,9.2759,9.2392,9.2324,9.1609,9.1305,9.1305,9.1305,9.1305,9.1305,9.1305,9.1305,9.1305,9.1305,9.1305,9.1305,9.1305,9.1305,9.1305,9.1305,9.1305,9.1305,9.1305,9.1305,9.1305,9.1305,9.1305,9.1305,9.1305,9.1305,9.1305,9.1305,9.1305,9.1305,9.1305,9.1305,9.1305,9.1305,9.1305,9.1034,9.0324,9.0222,8.9951,8.9173,8.9134,8.9376,9.0154,9.0222,9.0527,9.1237,9.1305,9.1305,9.1305,9.1305,9.1643,9.2392,9.2392,9.2793,9.3601,9.2827,9.2827,9.3601,9.3601,9.3601,9.3601,9.3601,9.3601,9.3601,9.3601,9.3601,9.3601,9.3601,9.3601,9.3601,9.3601,9.3601,9.3601,9.3601,9.3601,9.3601,8.91,8.91,8.91,8.91,8.91,8.91,8.91,8.91,8.91,8.91,8.91,8.91,8.91,8.91,8.91,8.91,8.91,8.9309,8.985,8.9884,9.0087,9.0628,9.0357,9.0459,9.0966,9.1711,9.2083,9.2083,9.2624,9.303,9.3233,9.3233,9.3368,9.3601,9.3601,9.3601,9.3601,9.3334,9.3233,9.3199,9.2996,9.2895,9.2895,9.2895,9.2895,9.2895,9.2895,9.2895,9.2895,9.2895,9.2895,9.2895,9.2895,9.2895,9.2895,9.2895,9.2895,9.2895,9.2895,9.2895,9.2624,9.1575,9.1305,9.1305,9.1305,9.1305,9.1305,9.1305,9.1305,9.1305,9.1305,9.1305,9.1305,9.1305,9.1305,9.1203,9.1,9.0966,9.0899,9.0662,9.0628,9.0729,9.0966,9.0966,9.1068,9.1271,9.1778,9.2083,9.2083,9.259,9.2996,9.3233,9.3233,9.3334,9.3601,9.3334,9.3334,9.3601,9.3601,9.3601,9.3601,9.3601,9.3601,9.3601,9.3601,9.3601,9.3601,9.3601,9.3601,9.3601,9.3601,9.3601,9.3601,9.3601,9.3601,9.3601,8.91,8.91,8.91,8.91,8.91,8.91,8.91,8.91,8.91,8.91,8.91,8.91,8.91,8.91,8.91,8.91,8.9342,8.9715,9.0188,9.0493,9.0966,9.1711,9.1305,9.1305,9.1744,9.2489,9.2895,9.2895,9.3334,9.3601,9.3601,9.3601,9.3601,9.3601,9.3601,9.3601,9.3601,9.3601,9.3601,9.3601,9.3601,9.3601,9.3601,9.3601,9.3601,9.3601,9.3601,9.3601,9.3601,9.3601,9.3601,9.3601,9.3601,9.3601,9.3601,9.3601,9.3601,9.3601,9.3601,9.3368,9.2962,9.2353,9.2184,9.2184,9.2184,9.2184,9.2184,9.2184,9.2184,9.2184,9.2184,9.2184,9.2184,9.2184,9.2184,9.2083,9.1778,9.1744,9.1643,9.1338,9.1034,9.0966,9.1271,9.1305,9.1541,9.215,9.2624,9.2895,9.2895,9.3334,9.3601,9.3601,9.3601,9.3601,9.3601,9.3601,9.3601,9.3601,9.3601,9.3601,9.3601,9.3601,9.3601,9.3601,9.3601,9.3601,9.3601,9.3601,9.3601,9.3601,9.3601,9.3601,9.3601,9.3601,9.3601,9.3601,8.91,8.91,8.91,8.91,8.91,8.91,8.91,8.91,8.91,8.91,8.91,8.91,8.91,8.91,8.9134,8.9201,8.9884,9.0324,9.0391,9.1034,9.1744,9.2459,9.2493,9.2493,9.2493,9.3233,9.3601,9.3601,9.3601,9.3601,9.3601,9.3601,9.3601,9.3601,9.3601,9.3601,9.3601,9.3601,9.3601,9.3601,9.3601,9.3601,9.3601,9.3601,9.3601,9.3601,9.3601,9.3601,9.3601,9.3601,9.3601,9.3601,9.3601,9.3601,9.3601,9.3601,9.3567,9.3533,9.3601,9.303,9.2595,9.3402,9.3567,9.347,9.347,9.347,9.347,9.347,9.3465,9.3402,9.347,9.3465,9.3398,9.3398,9.3436,9.3233,9.2493,9.2459,9.2257,9.1575,9.0899,9.0729,9.1338,9.1338,9.188,9.3296,9.3398,9.3398,9.3398,9.3465,9.347,9.347,9.3567,9.3601,9.3601,9.3601,9.3601,9.3601,9.3601,9.3601,9.3601,9.3601,9.3567,9.347,9.347,9.3465,9.3398,9.3398,9.3398,9.3398,9.3499,9.347,9.347,9.347,9.347,9.347,8.91,8.91,8.91,8.91,8.91,8.91,8.91,8.91,8.91,8.91,8.91,8.91,8.91,8.91,8.9309,8.9918,9.0628,9.1305,9.1885,9.2054,9.2522,9.33,9.3334,9.3334,9.3334,9.3503,9.3601,9.3601,9.3601,9.3601,9.3601,9.3601,9.3601,9.3601,9.3601,9.3601,9.3601,9.3601,9.3601,9.3601,9.3601,9.3601,9.3601,9.3601,9.3601,9.3601,9.3601,9.3601,9.3601,9.3601,9.3601,9.3601,9.3601,9.3601,9.3601,9.3601,9.3165,9.2793,9.3402,9.303,9.2595,9.3402,9.3131,9.2658,9.2658,9.2658,9.2658,9.2658,9.2218,9.1981,9.2556,9.2184,9.1778,9.1778,9.2286,9.2595,9.2426,9.2928,9.3267,9.3098,9.2962,9.2692,9.2218,9.1643,9.144,9.1778,9.1778,9.1778,9.1778,9.2353,9.2658,9.2658,9.3267,9.3601,9.3601,9.3601,9.3601,9.3601,9.3601,9.3601,9.3601,9.3601,9.3267,9.2658,9.2658,9.2319,9.1778,9.1778,9.1778,9.1846,9.2455,9.2658,9.2658,9.2658,9.2658,9.259,8.91,8.91,8.91,8.91,8.91,8.91,8.91,8.91,8.9235,8.9579,8.9613,8.9748,9.0087,9.0154,9.029,9.0696,9.1406,9.2015,9.2358,9.2759,9.3165,9.3601,9.3601,9.3601,9.3601,9.3601,9.3601,9.3601,9.3601,9.3601,9.3601,9.3601,9.3601,9.3601,9.3601,9.3601,9.3601,9.3601,9.3601,9.3601,9.3601,9.3601,9.3601,9.3601,9.3601,9.3601,9.3601,9.3601,9.3601,9.3601,9.3601,9.3601,9.3601,9.3601,9.3601,9.3601,9.33,9.3064,9.3499,9.303,9.2595,9.3402,9.2725,9.2083,9.2793,9.2421,9.1981,9.2324,9.2116,9.1947,9.2324,9.2421,9.2387,9.2387,9.2725,9.2861,9.2459,9.2759,9.303,9.303,9.2725,9.2489,9.2392,9.1744,9.144,9.1812,9.1508,9.1305,9.1305,9.1677,9.188,9.188,9.2286,9.2489,9.2489,9.2489,9.2489,9.2489,9.2861,9.303,9.303,9.2658,9.2286,9.188,9.188,9.1677,9.1305,9.1305,9.1305,9.1338,9.1711,9.188,9.188,9.188,9.188,9.1812,8.91,8.91,8.91,8.91,8.9173,8.9275,8.9275,8.9376,8.9681,9.0324,9.0391,9.0628,9.1237,9.1406,9.1474,9.1474,9.2184,9.2624,9.2624,9.3233,9.3601,9.3601,9.3601,9.3601,9.3601,9.3601,9.3601,9.3601,9.3601,9.3601,9.3601,9.3601,9.3601,9.3601,9.3601,9.3601,9.3601,9.3601,9.3601,9.3601,9.3601,9.3601,9.3601,9.3601,9.3601,9.3601,9.3601,9.3601,9.3601,9.3601,9.3601,9.3601,9.3601,9.3601,9.3601,9.3601,9.347,9.3402,9.3567,9.303,9.2561,9.3233,9.2319,9.1677,9.3064,9.2319,9.1474,9.2116,9.2189,9.2223,9.2358,9.2827,9.3228,9.3228,9.33,9.3165,9.2493,9.2493,9.2527,9.2426,9.1643,9.1338,9.1952,9.1372,9.1169,9.1783,9.1271,9.0899,9.0899,9.1034,9.1102,9.1102,9.1237,9.1305,9.1305,9.1305,9.1305,9.1305,9.1812,9.2087,9.2189,9.1575,9.1237,9.1102,9.1102,9.1034,9.0899,9.0899,9.0899,9.0932,9.1068,9.1102,9.1102,9.1102,9.1034,9.0899,8.91,8.91,8.91,8.91,8.9613,9.0053,9.0053,9.0594,9.1034,9.1135,9.1135,9.1169,9.1271,9.188,9.2257,9.2257,9.2962,9.3436,9.3436,9.3567,9.3601,9.3601,9.3601,9.3601,9.3601,9.3601,9.3601,9.3601,9.3601,9.3601,9.3601,9.3601,9.3601,9.3601,9.3601,9.3601,9.3601,9.3601,9.3601,9.3601,9.3601,9.3601,9.3601,9.3601,9.3601,9.3601,9.3601,9.3601,9.3601,9.3601,9.3601,9.3601,9.3601,9.3601,9.3601,9.3601,9.3098,9.2696,9.3402,9.303,9.2426,9.2527,9.1947,9.1508,9.2387,9.1913,9.1338,9.144,9.144,9.1643,9.2257,9.1981,9.1609,9.1609,9.215,9.2493,9.2426,9.2996,9.3165,9.2459,9.1203,9.0391,9.0493,8.9816,8.9438,8.9545,8.9472,8.9404,8.9404,8.9985,9.0357,9.0357,9.0966,9.1305,9.1305,9.1305,9.1305,9.1271,9.0763,9.0831,9.144,9.1338,9.0966,9.0357,9.0357,8.9985,8.9404,8.9404,8.9404,8.9444,9.0087,9.0357,9.0357,9.0357,8.9951,8.9404,8.91,8.91,8.9235,8.9647,8.9985,9.0357,9.0763,9.1102,9.144,9.188,9.1913,9.2083,9.2522,9.2861,9.3064,9.3064,9.3402,9.3601,9.3601,9.3601,9.3601,9.3601,9.3601,9.3601,9.3601,9.3601,9.3601,9.3601,9.3601,9.3601,9.3601,9.3601,9.3601,9.3601,9.3601,9.3601,9.3601,9.3601,9.3601,9.3601,9.3601,9.3601,9.3601,9.3601,9.3601,9.3601,9.3601,9.3601,9.3601,9.3601,9.3601,9.3601,9.3601,9.3601,9.3601,9.3601,9.3334,9.3131,9.347,9.3334,9.3064,9.3064,9.2489,9.1986,9.2324,9.2121,9.1913,9.1913,9.1575,9.1541,9.2257,9.2121,9.2049,9.2489,9.2861,9.2928,9.2459,9.2725,9.2793,9.2426,9.2218,9.2083,9.2083,9.1406,9.0763,9.0357,8.9951,8.9512,8.9134,8.941,8.9579,8.9579,8.9884,9.0053,9.0053,9.0053,9.0053,9.0053,8.9715,8.9951,9.0662,9.0256,8.9884,8.9579,8.9579,8.9613,8.9715,8.9715,8.9951,9.0324,9.0222,8.9951,8.9579,8.9579,8.9376,8.91]}]]